GFSCGP_850_thetae_000.txt.gz
Theta_e
323 325 326 329 332 334 336 339 340 340 345 348 347 346 347 350 349 349 350 351 350 348 348 350 352 352 353 353 355 356 354 354 354 352 351 352 350 351 350 350 349 346 349 347
324 324 326 328 330 333 336 337 339 340 345 347 345 347 346 347 350 348 348 351 352 350 349 351 353 352 352 354 356 357 357 355 352 354 353 350 351 350 352 352 352 352 351 348
325 324 326 327 328 332 336 337 339 342 345 346 345 348 346 345 348 348 348 347 350 351 350 350 351 352 352 354 356 357 357 356 354 350 354 354 352 351 352 352 352 351 350 349
324 325 325 325 327 331 335 335 337 340 344 347 346 347 343 345 349 350 349 348 347 350 351 350 350 351 352 353 355 357 357 356 356 352 353 353 353 350 347 348 348 351 350 348
326 324 324 324 326 329 333 335 336 337 343 344 347 348 343 344 345 349 350 349 347 345 349 350 350 350 352 353 354 356 354 350 354 356 354 356 354 349 348 348 351 350 347 346
327 324 324 325 326 328 331 333 335 337 339 344 344 345 341 341 344 342 345 348 348 345 345 348 349 349 350 352 353 354 353 347 350 356 356 355 355 352 349 351 348 345 345 347
326 325 324 324 326 327 330 335 338 339 340 341 342 344 341 338 338 340 338 343 348 346 344 345 347 348 350 351 352 354 352 346 348 351 355 354 356 355 354 353 348 344 344 343
327 326 325 324 325 328 329 333 337 340 338 338 339 341 340 338 337 336 337 340 345 347 344 344 346 347 350 351 352 353 354 347 347 348 347 348 353 355 353 353 349 346 343 340
328 328 326 325 325 327 330 333 334 336 336 336 335 338 337 337 339 339 339 341 343 346 345 343 345 346 348 350 352 351 350 349 348 351 346 345 347 349 353 352 353 347 346 341
329 329 328 326 326 327 329 331 333 335 342 339 336 337 339 339 337 336 339 342 343 345 346 344 344 345 347 348 350 350 349 349 351 351 345 343 345 344 350 353 351 342 344 336
329 329 327 327 325 326 328 330 333 334 335 337 338 337 336 336 337 336 336 341 341 344 346 346 344 344 347 347 348 351 353 353 349 350 342 338 348 351 348 353 342 336 331 322
330 330 329 325 326 326 328 330 333 335 339 336 336 335 334 335 335 335 335 334 335 342 345 347 346 346 346 348 347 348 351 354 353 344 338 341 351 352 353 349 337 325 334 319
330 330 332 330 326 325 326 328 330 332 334 342 337 336 334 334 334 334 339 339 339 344 346 347 348 348 348 348 349 350 352 353 354 354 355 349 346 350 354 339 326 324 329 317
330 329 330 331 330 327 326 325 327 329 334 335 335 335 334 333 334 334 335 338 341 345 346 348 348 350 350 350 350 351 352 353 355 355 357 357 355 354 351 340 329 325 328 318
335 336 333 330 329 329 328 326 326 327 328 334 334 333 334 335 334 333 332 334 340 346 346 348 349 351 352 351 352 354 354 355 355 357 357 358 358 355 349 338 337 335 329 323
330 336 334 334 331 330 329 328 326 326 327 328 330 332 333 333 331 332 332 332 340 345 346 348 350 352 355 355 355 355 356 355 356 357 358 358 358 355 351 347 342 343 338 333
332 335 338 337 334 332 333 331 329 327 327 328 329 330 331 331 333 334 333 337 340 344 345 347 349 351 354 355 356 356 356 355 356 357 357 358 355 351 349 349 347 345 345 341
333 338 338 338 337 337 331 331 330 328 327 328 329 331 331 332 334 336 338 336 339 344 345 346 347 350 352 352 352 352 347 341 352 352 356 355 349 347 347 347 347 346 344 340
331 334 337 336 336 335 334 335 330 329 328 328 330 332 332 332 335 340 338 338 341 345 347 347 347 349 348 348 345 339 340 341 348 351 351 345 344 346 347 347 347 345 343 338
331 333 336 336 336 337 339 338 336 338 338 330 330 332 332 336 338 335 340 337 338 342 344 345 344 345 345 339 333 333 343 339 337 335 337 339 344 347 349 348 346 344 342 340
336 337 334 335 337 336 338 335 336 341 335 331 335 336 337 340 342 341 339 340 342 344 345 345 344 342 333 333 341 345 345 340 334 334 336 340 346 350 348 346 343 343 339 338
337 337 334 336 339 338 334 336 342 341 338 339 339 339 340 340 341 343 343 344 344 343 341 340 341 339 343 342 341 334 335 333 334 340 340 345 350 348 346 344 344 343 339 338
335 333 333 335 334 335 332 334 336 337 339 339 339 339 339 338 340 341 340 340 340 339 339 340 344 345 343 338 346 341 333 332 335 337 344 349 348 347 345 343 343 340 342 339
334 333 335 337 335 333 332 332 333 334 335 335 336 336 336 337 337 337 339 340 342 344 343 342 343 340 330 330 330 330 332 335 338 341 344 345 347 346 345 343 342 340 340 339
333 334 335 335 333 330 329 329 330 330 332 333 334 334 335 339 341 342 343 343 343 344 344 343 343 345 333 332 333 335 338 342 343 344 346 348 347 344 343 342 341 340 338 337
324 332 336 334 332 330 324 324 325 326 327 328 329 329 330 332 334 339 341 343 345 345 345 346 346 344 343 340 342 344 344 348 350 350 347 346 344 343 341 339 338 336 335 329

GFSCGP_850_thetae_006.txt.gz
Theta_e
328 328 328 330 330 332 333 337 337 338 342 340 344 348 344 341 345 342 343 342 344 346 346 347 348 348 348 350 351 352 352 353 355 356 355 353 352 350 349 345 347 350 349 348
327 327 327 330 331 332 334 336 338 339 342 342 342 350 345 348 346 344 342 342 342 343 345 347 348 348 349 350 351 352 353 353 352 355 354 352 349 347 349 352 351 346 348 347
327 327 327 329 331 332 333 335 337 339 341 341 340 342 347 347 345 344 344 343 342 343 343 347 348 349 349 350 351 351 353 354 354 352 354 351 352 354 352 352 350 349 352 348
328 328 327 327 330 332 334 334 335 337 341 344 342 344 349 345 350 346 345 344 344 343 343 345 348 350 350 350 350 352 353 354 353 352 355 351 351 354 352 351 349 346 348 348
326 328 327 327 329 331 334 334 335 336 338 345 347 346 346 348 349 351 348 346 345 345 343 344 348 349 350 351 352 353 354 355 354 352 356 356 353 347 345 345 346 348 350 351
328 328 328 328 328 330 332 334 334 335 337 341 343 344 345 348 346 344 348 347 346 346 345 345 346 348 350 351 354 354 355 357 355 355 354 355 355 351 348 350 350 350 352 350
328 328 328 329 328 329 330 332 336 337 339 340 340 346 348 347 346 344 343 346 347 347 346 346 346 349 350 352 353 356 355 358 356 355 356 352 354 347 350 349 350 352 350 349
329 328 328 329 327 328 329 330 336 339 340 339 340 342 344 346 344 343 343 343 346 348 348 347 348 348 351 352 352 355 358 357 357 355 354 354 350 347 346 353 348 352 348 346
328 329 330 329 329 328 328 329 331 334 335 338 339 339 339 341 345 343 340 341 342 347 348 348 348 349 351 352 352 354 358 358 358 356 356 353 350 346 345 352 354 353 349 347
329 330 330 330 329 329 328 330 329 332 338 341 339 341 344 344 346 345 344 342 339 339 348 349 347 350 351 352 352 354 356 358 360 358 356 355 351 349 344 350 351 351 354 348
328 330 330 331 330 329 327 328 329 331 334 339 342 341 343 347 348 347 344 340 338 338 346 347 348 348 351 353 353 354 356 359 362 361 358 354 352 342 348 351 353 351 350 352
330 329 332 330 331 330 329 329 328 330 337 335 337 339 338 343 344 341 341 338 338 337 339 344 348 348 349 352 353 354 356 358 361 361 359 354 346 347 344 349 351 351 352 351
330 331 333 330 331 332 330 328 328 328 331 336 337 338 338 340 341 342 340 338 339 338 342 343 347 348 348 349 350 353 355 358 361 362 358 357 353 349 344 335 345 351 350 347
329 330 334 333 333 332 333 330 330 329 329 332 334 338 338 341 341 341 340 338 337 336 344 344 345 349 347 348 349 351 354 356 358 361 359 359 357 349 342 337 332 342 346 346
329 332 332 330 330 332 332 330 330 330 331 332 332 334 340 340 342 340 337 336 336 337 343 343 345 346 348 348 349 349 350 352 354 357 360 360 358 353 352 349 336 344 349 350
327 332 332 333 332 331 333 332 330 329 330 331 331 332 334 337 336 341 337 337 338 336 335 345 342 345 349 349 349 349 348 350 350 352 357 358 359 360 359 355 353 356 356 357
330 329 335 335 332 332 333 333 332 331 329 329 330 332 334 334 337 340 340 338 338 336 335 336 347 346 348 352 349 349 348 349 349 350 355 354 357 359 359 357 357 357 357 357
333 332 334 336 336 336 333 332 331 331 331 330 331 332 333 334 332 331 331 333 334 337 335 333 333 347 349 354 354 351 351 349 349 350 354 354 355 359 358 358 358 357 357 357
329 334 335 338 339 336 335 334 335 334 334 334 333 335 332 331 330 331 330 330 331 330 337 335 333 334 347 352 354 354 354 350 352 351 358 357 361 364 361 360 360 359 357 360
327 335 334 337 336 341 339 339 338 338 339 342 342 342 340 337 334 333 330 332 332 330 332 335 337 337 347 352 354 355 357 356 353 355 359 363 364 364 362 361 360 358 358 351
327 331 333 335 335 334 338 338 336 340 341 342 342 342 341 342 341 340 341 340 342 333 332 335 340 349 350 353 356 356 358 361 358 361 364 365 365 362 360 359 355 353 349 350
326 326 330 336 340 341 337 337 340 342 340 339 339 340 340 340 339 338 342 343 338 344 341 345 352 352 356 358 359 361 361 363 363 364 364 365 363 361 357 352 349 349 348 347
324 325 327 330 333 335 338 341 340 339 339 341 342 341 338 338 340 344 346 347 347 347 347 352 357 358 358 359 360 360 360 361 362 361 361 362 358 351 349 348 350 348 347 345
326 329 329 331 333 339 338 337 337 338 342 342 343 344 346 345 344 345 346 347 349 350 351 353 354 355 356 356 357 357 356 356 356 357 354 352 349 349 349 348 348 346 344 343
331 330 336 333 343 339 337 337 337 337 338 338 337 337 338 344 345 348 347 348 349 349 350 353 354 357 356 358 358 358 358 357 352 350 352 348 351 348 349 349 347 343 342 342
326 330 335 342 338 337 335 334 332 332 332 332 332 332 331 333 335 339 344 346 348 349 350 351 353 355 354 357 356 356 354 353 350 351 349 350 349 348 348 347 344 344 342 343

GFSCGP_850_thetae_009.txt.gz
Theta_e
325 324 325 324 323 325 328 329 330 332 337 338 343 343 342 339 341 340 344 344 345 346 346 349 349 349 349 349 350 349 350 350 353 352 352 349 347 349 350 347 347 347 349 347
323 325 325 327 327 326 327 329 330 332 338 337 344 345 342 340 337 339 341 344 345 345 345 347 348 349 348 350 349 350 350 349 354 354 352 351 348 350 348 348 345 347 346 348
324 326 327 327 327 329 327 328 330 332 336 339 344 347 344 338 340 340 342 343 345 345 345 346 347 347 348 348 350 350 350 351 352 354 354 354 350 349 349 348 349 353 350 349
324 326 326 325 325 327 328 329 331 332 333 338 341 346 345 342 348 346 344 342 343 345 345 345 347 347 348 348 348 349 349 350 351 352 353 353 348 346 350 352 350 351 348 349
323 326 326 326 324 325 329 330 331 332 332 339 341 340 340 344 346 343 342 342 342 343 345 346 347 347 348 348 348 349 349 350 351 351 351 351 349 347 351 353 353 348 348 351
325 327 324 326 327 326 327 329 330 331 331 333 337 340 341 342 346 344 344 343 342 342 343 343 346 347 348 348 349 349 349 350 351 352 352 350 351 348 350 351 347 350 350 349
323 324 326 326 325 324 325 324 328 330 332 331 330 339 340 342 341 343 344 344 344 343 343 343 347 348 348 349 350 350 350 350 351 352 351 350 354 351 340 342 345 347 350 349
322 323 325 327 325 324 323 324 326 330 332 332 330 335 335 340 342 344 346 346 345 345 343 344 344 347 349 349 350 351 350 350 352 353 353 351 351 350 343 349 353 351 349 349
322 324 327 327 327 325 324 324 324 324 328 330 332 331 332 339 340 341 342 344 344 344 345 344 344 346 349 350 349 350 353 352 352 353 354 350 353 349 346 348 351 354 352 350
324 326 326 328 327 326 324 325 324 325 325 330 331 332 335 336 341 342 341 341 342 342 343 346 345 346 348 348 348 350 352 353 353 354 355 351 348 350 347 345 349 353 352 349
324 324 325 326 326 325 325 323 322 323 325 327 331 332 331 334 340 342 341 341 341 342 344 346 346 346 347 349 349 350 352 354 355 354 354 354 347 349 348 345 344 350 354 353
325 324 324 325 326 327 326 324 322 324 323 326 326 328 332 331 340 341 340 341 340 340 342 346 347 348 349 350 351 350 351 353 355 355 354 353 351 346 350 344 343 344 350 352
327 326 325 327 325 326 326 326 323 323 322 324 329 329 329 329 335 338 338 342 340 339 346 348 348 350 350 350 351 352 352 352 353 355 355 354 353 346 348 346 344 341 345 349
329 325 326 327 327 326 328 327 326 324 323 323 324 324 326 331 337 336 339 339 337 339 342 348 349 349 351 351 351 352 354 352 352 354 355 354 352 345 340 339 339 344 345 350
322 326 326 327 328 327 327 328 327 326 324 324 324 324 325 327 337 337 339 339 337 338 343 347 349 348 348 351 352 353 353 353 352 354 355 353 350 349 342 344 340 339 348 350
318 325 329 330 329 328 328 329 330 327 326 326 326 326 327 326 329 341 339 336 336 338 342 342 346 348 348 349 351 353 354 354 352 352 353 353 353 353 351 348 342 345 347 350
318 323 329 327 330 330 329 327 329 330 328 327 326 326 326 326 328 336 337 338 335 335 342 344 343 346 348 347 347 350 351 352 352 350 352 352 353 354 354 355 354 354 355 358
319 320 325 327 331 333 331 330 330 331 332 328 327 327 328 327 330 332 331 330 333 336 335 339 336 341 344 349 348 347 349 352 352 350 350 351 352 352 355 357 358 359 359 359
320 321 326 327 329 330 332 331 332 330 330 334 340 340 335 335 332 330 329 329 330 332 334 332 336 337 335 345 349 348 350 350 351 351 348 350 349 350 356 359 359 361 361 360
320 325 328 326 329 331 331 336 336 336 339 342 342 342 341 339 336 329 337 341 333 331 329 332 331 332 337 343 347 353 349 350 350 350 349 348 351 351 357 361 360 362 360 355
325 327 328 331 328 333 337 337 336 339 344 341 341 341 342 341 341 339 336 341 339 339 334 333 330 331 334 340 347 354 353 350 349 349 351 350 352 356 359 361 360 357 356 354
323 326 327 333 335 336 338 337 340 342 344 346 346 347 341 339 337 338 340 342 342 341 338 342 338 333 333 341 348 354 354 352 352 353 353 357 358 360 362 360 358 356 355 356
324 326 327 325 331 336 336 336 337 340 344 345 346 348 346 347 349 350 347 345 346 346 343 343 349 349 344 345 351 355 357 357 355 357 361 366 365 367 367 358 355 356 350 348
325 328 327 333 328 333 333 333 342 338 338 338 343 344 345 345 347 349 351 351 351 351 356 354 357 362 362 360 358 357 359 362 361 361 366 367 366 364 361 357 349 345 347 346
329 327 331 333 336 337 337 338 340 338 336 333 335 337 339 342 341 345 348 351 354 356 357 357 358 359 360 362 362 362 362 363 364 364 362 362 363 361 356 348 347 347 346 345
324 329 331 335 329 331 333 329 333 332 331 330 331 331 330 334 339 342 342 345 347 348 349 356 358 359 360 359 359 359 360 359 359 357 358 358 356 347 347 347 346 346 344 342

GFSCGP_850_thetae_012.txt.gz
Theta_e
323 320 324 322 320 322 323 324 324 326 328 337 337 337 338 345 349 349 350 349 349 349 350 350 348 348 349 349 349 350 350 350 351 350 349 346 345 348 347 347 348 347 348 349
320 321 321 322 322 322 323 323 324 325 327 336 338 339 339 341 343 346 347 348 349 349 348 349 349 348 349 350 349 349 349 350 350 349 351 347 345 346 342 345 348 347 347 347
321 321 322 324 324 324 322 322 324 325 327 335 341 342 340 338 340 342 344 345 347 348 348 349 349 348 348 349 349 349 349 349 350 349 351 351 350 344 346 346 347 346 346 345
322 322 323 324 325 323 322 325 325 326 327 329 340 341 344 340 338 337 342 342 343 345 346 346 349 349 348 348 348 349 349 349 349 349 350 352 351 347 346 347 348 346 350 350
322 323 323 325 325 324 324 324 327 327 327 328 332 338 339 342 341 343 339 341 343 343 344 345 346 347 348 348 348 348 349 349 349 349 349 350 351 349 344 345 346 349 348 350
322 323 323 324 324 324 324 323 325 326 326 328 333 339 335 342 342 341 342 342 342 343 344 344 344 345 347 347 347 347 348 349 349 349 349 349 348 348 346 346 350 351 351 349
325 325 323 322 322 322 321 319 321 325 327 328 325 333 335 338 341 341 342 340 341 342 343 344 344 346 346 347 347 347 348 349 349 349 349 349 348 348 346 346 350 351 352 349
322 323 321 322 323 321 319 320 322 323 326 326 326 329 332 335 341 343 343 342 341 340 342 344 344 345 345 346 347 347 347 348 349 349 349 349 349 348 347 346 350 351 347 346
316 320 321 322 323 323 323 318 320 319 323 325 326 328 327 329 336 341 342 341 342 341 340 342 344 344 346 346 346 347 348 348 348 349 349 349 350 347 347 347 344 344 343 346
318 319 320 323 322 322 321 320 321 315 322 324 324 327 330 329 331 335 339 341 342 341 341 341 342 344 346 346 346 347 347 348 348 349 349 350 350 346 346 347 343 346 349 350
320 319 322 321 321 323 323 321 318 318 319 322 322 325 324 327 328 332 340 343 343 343 342 342 342 343 344 346 347 347 347 348 349 349 349 350 351 349 347 347 346 346 351 353
319 319 321 323 321 323 324 323 318 322 320 320 323 325 328 326 327 332 337 341 344 344 343 344 344 343 345 346 348 347 347 348 349 349 350 351 351 351 347 347 345 345 349 351
320 322 323 321 320 320 322 323 322 315 316 321 323 323 323 323 324 335 338 339 341 342 341 341 343 344 344 346 348 348 347 347 348 350 351 351 351 352 350 343 345 343 345 347
314 318 319 324 323 322 322 323 322 321 323 322 322 323 324 324 329 328 336 340 341 341 340 340 343 344 345 346 348 348 348 347 348 349 352 351 350 351 350 347 341 342 342 344
313 315 319 321 323 324 324 324 324 322 322 322 323 319 320 320 321 324 328 337 339 341 338 339 343 345 346 347 348 348 348 348 348 349 350 351 350 350 351 349 343 340 342 342
311 315 317 322 324 325 326 326 326 325 324 323 320 320 319 321 324 327 330 333 338 337 339 338 343 345 346 347 347 348 349 348 349 349 349 349 350 351 351 350 348 340 340 344
312 313 316 319 322 325 326 327 326 325 324 324 322 321 320 321 323 324 328 330 333 339 338 342 345 345 346 347 347 349 349 349 351 350 350 350 350 349 350 350 350 348 343 344
314 315 314 319 321 327 327 327 326 325 326 325 323 322 322 323 326 326 328 330 332 335 338 337 346 346 347 348 347 347 349 350 351 351 350 350 350 349 349 350 349 351 351 351
315 316 318 321 323 324 330 329 326 324 326 334 326 329 325 325 326 329 330 331 330 332 335 339 342 346 347 347 347 348 350 351 352 352 351 350 350 350 351 350 349 351 354 355
319 317 319 322 325 328 326 332 332 329 343 339 339 337 335 329 326 326 337 335 329 328 330 334 335 333 335 346 346 346 349 350 351 351 350 349 350 351 351 351 353 353 354 355
323 322 322 324 329 326 334 334 333 334 332 338 338 338 336 336 333 338 337 337 337 332 329 329 332 334 332 334 347 346 347 348 346 346 348 352 352 351 350 353 357 355 354 358
324 327 330 327 333 338 325 333 333 332 344 346 347 344 347 347 343 345 341 341 340 337 337 336 332 331 329 332 332 340 346 344 345 348 352 354 354 353 354 355 359 357 356 356
325 324 327 324 330 323 326 335 341 342 342 344 345 345 346 347 348 347 348 349 349 345 341 338 336 336 332 332 333 335 339 344 349 350 352 353 354 354 354 357 359 357 357 355
323 324 324 327 326 328 337 340 336 340 341 342 342 343 344 346 348 350 350 349 350 354 360 361 360 357 341 337 336 344 339 343 350 350 351 352 353 355 356 359 358 356 357 354
324 324 328 326 326 327 330 334 334 333 335 336 339 341 342 343 343 346 348 350 352 353 353 352 349 356 360 361 345 349 351 352 352 351 352 355 358 358 361 363 358 355 353 352
322 326 330 332 326 327 326 332 330 330 331 328 328 331 336 339 339 341 342 340 339 343 344 345 338 337 333 345 353 358 357 354 353 357 358 359 362 362 361 356 351 348 346 345

GFSCGP_850_thetae_015.txt.gz
Theta_e
322 322 320 320 319 321 322 323 323 324 327 335 335 336 350 349 350 350 350 350 351 350 349 349 348 346 344 346 346 347 348 349 348 346 347 347 346 350 349 346 345 346 345 347
319 321 321 321 320 321 321 322 322 322 323 327 331 335 349 349 349 350 351 351 351 351 351 351 349 348 343 345 348 348 349 349 349 347 346 345 345 346 348 347 345 344 348 347
320 319 320 322 322 321 320 321 322 322 324 328 336 339 339 349 349 349 349 349 350 350 351 351 351 350 347 346 347 348 349 349 350 348 349 348 348 346 346 348 347 346 347 347
318 319 321 321 322 321 320 321 323 323 324 324 335 339 339 341 349 347 348 349 348 348 348 350 351 351 349 347 347 348 348 349 350 349 350 348 348 347 344 345 345 345 347 346
320 320 321 321 322 321 323 323 323 325 324 325 327 333 332 337 342 341 344 346 347 348 347 348 349 349 349 348 347 348 349 349 349 349 349 348 348 349 347 342 343 345 347 345
321 322 321 321 322 322 323 323 321 322 321 324 325 327 328 339 339 338 338 342 344 345 347 346 346 348 348 348 348 347 347 348 348 349 349 349 349 347 348 345 345 346 347 346
322 323 320 321 321 321 321 318 320 319 322 325 323 327 328 331 338 338 338 338 342 342 344 345 346 347 348 348 348 348 347 347 348 349 349 349 349 348 346 346 345 343 346 348
322 323 322 320 321 321 318 319 316 320 321 324 322 325 326 331 334 339 339 339 339 341 342 343 344 345 346 348 348 348 348 347 348 348 348 348 349 348 348 346 345 343 347 348
320 322 320 323 321 321 319 320 319 318 319 319 322 324 325 327 329 334 338 339 340 340 341 342 343 343 344 346 347 347 347 347 347 348 348 348 348 348 348 347 344 345 347 349
317 318 317 321 321 320 321 318 321 312 321 322 320 323 324 326 326 331 337 338 340 340 340 342 342 343 343 344 345 345 345 345 345 346 347 348 348 348 348 348 342 344 345 349
317 316 320 318 318 319 318 321 317 316 315 321 322 322 322 325 326 327 332 338 341 340 341 341 342 343 343 343 345 345 346 345 346 346 346 347 347 348 349 349 342 342 341 344
317 311 319 319 318 320 320 320 316 319 318 316 320 321 322 324 325 324 327 332 336 337 340 340 340 341 343 343 344 345 344 345 344 345 346 347 347 348 348 350 345 339 340 341
317 315 316 316 318 318 318 319 319 318 315 322 320 320 318 322 323 324 329 333 331 333 339 341 340 340 341 343 343 344 345 344 344 345 346 347 347 348 348 350 347 341 341 343
313 312 316 318 317 319 319 321 321 319 320 322 322 320 322 320 320 320 326 328 330 334 341 342 341 340 340 341 343 343 345 345 345 345 347 347 347 348 348 350 349 343 341 342
310 313 315 317 317 319 320 320 322 320 321 322 323 318 319 320 320 321 327 327 328 336 341 342 342 342 342 341 342 343 345 346 346 345 346 346 347 348 348 349 350 348 341 341
308 314 313 316 318 321 322 321 322 322 322 321 321 317 318 320 321 320 324 326 327 335 338 341 342 343 343 343 343 342 344 346 347 347 346 346 347 347 349 349 350 350 348 342
311 311 313 316 317 318 322 322 323 323 321 321 322 320 317 318 318 318 322 324 326 326 327 333 339 340 341 340 341 342 343 345 347 347 347 348 348 347 348 350 350 350 349 349
311 311 312 315 317 324 322 322 323 323 322 320 320 320 320 320 324 324 326 326 327 329 329 331 332 337 338 339 339 341 343 345 347 347 348 349 348 347 348 351 351 350 350 348
310 312 314 316 319 321 324 326 325 323 323 325 321 321 320 322 323 323 325 326 327 327 328 329 336 338 339 339 340 344 345 346 348 348 348 349 348 347 349 349 351 352 352 350
311 312 316 316 321 325 323 327 329 327 325 336 328 323 321 320 321 323 326 328 327 328 330 332 334 336 340 342 342 344 345 346 347 347 347 347 348 349 349 349 350 352 353 351
314 319 319 318 319 322 326 334 331 331 326 336 336 334 325 322 322 326 334 338 338 334 330 330 335 340 341 343 345 347 348 348 345 346 346 348 350 350 349 350 352 352 353 355
319 322 323 319 325 328 331 335 340 336 336 343 340 340 340 340 340 340 339 342 342 341 340 342 343 337 333 342 345 347 347 345 347 347 350 351 351 353 355 354 355 356 357 356
318 320 324 323 325 324 327 329 335 334 338 340 344 345 345 347 347 347 348 346 348 348 349 348 346 348 346 345 337 336 340 344 346 347 347 349 352 355 356 356 357 358 359 357
317 318 323 324 325 328 330 329 332 332 334 337 340 344 345 346 347 348 349 349 348 347 344 342 339 341 347 346 353 352 344 345 347 347 347 348 351 353 344 356 358 358 359 356
313 319 322 325 325 327 328 330 329 330 332 335 338 340 342 343 341 343 343 346 347 348 348 350 350 348 344 347 343 340 353 356 350 348 348 351 353 354 356 358 359 359 358 354
317 322 322 323 326 327 327 330 325 326 327 332 334 334 335 339 338 337 335 334 336 337 336 337 338 336 336 337 336 337 333 340 357 349 348 350 352 354 356 356 358 359 357 351

GFSCGP_850_thetae_018.txt.gz
Theta_e
320 319 320 316 317 321 322 322 325 323 324 331 333 338 348 348 349 348 348 348 348 348 345 347 347 347 346 344 343 343 344 343 345 344 344 347 343 345 346 347 346 346 345 346
316 322 319 318 318 320 321 321 321 322 323 324 323 328 347 348 349 349 349 349 349 349 348 347 347 348 347 345 343 345 342 345 345 346 346 345 343 344 345 346 347 346 344 345
321 319 321 322 320 320 319 320 321 323 323 323 330 332 335 348 348 349 349 349 349 349 349 348 348 348 347 347 344 343 344 345 346 347 347 346 344 345 345 345 348 347 345 344
318 318 321 319 321 320 319 319 322 322 321 322 330 330 336 345 350 348 349 349 349 349 350 349 348 349 348 347 343 343 345 346 347 347 348 348 346 344 345 345 346 347 347 345
319 318 319 320 321 319 322 320 320 321 321 321 326 325 325 341 350 349 347 348 350 349 350 349 348 347 349 349 346 344 345 347 347 348 348 348 348 346 345 345 343 345 346 346
320 319 320 319 320 320 320 322 317 317 318 321 322 323 323 336 347 349 347 348 348 348 349 349 347 346 348 350 349 346 345 346 347 348 348 348 348 348 347 346 347 343 345 344
321 322 320 319 319 319 320 318 319 320 320 324 319 323 326 326 336 338 344 346 347 348 348 348 348 347 347 348 348 349 348 346 346 347 348 348 348 348 348 347 345 342 342 344
321 321 321 319 319 319 318 317 318 321 319 322 319 323 323 324 331 336 337 339 342 345 347 347 347 347 346 346 346 347 346 346 347 347 347 348 348 348 348 348 347 344 342 342
320 321 320 320 319 321 317 320 317 316 317 317 319 321 323 325 325 331 335 336 337 340 342 345 346 347 346 345 344 343 345 345 346 346 346 347 347 348 348 348 348 347 344 341
318 321 318 322 320 319 317 316 319 311 320 320 319 320 324 324 327 326 332 336 337 337 338 341 342 344 345 344 344 344 343 344 344 345 346 346 346 347 347 348 348 348 345 344
314 314 318 317 319 322 317 317 315 316 314 318 319 321 318 323 324 325 326 333 335 338 338 338 340 341 342 343 344 343 344 344 345 346 346 347 347 347 348 348 347 347 346 343
317 311 316 318 317 320 322 321 315 319 317 313 315 320 320 320 323 324 325 327 330 333 337 339 339 340 341 341 342 343 343 344 344 344 344 345 346 346 347 347 347 347 347 342
315 313 315 315 317 317 317 319 317 317 314 319 319 321 322 319 321 324 324 327 330 332 334 338 339 339 340 341 341 342 343 343 343 345 345 345 345 346 346 346 347 347 348 344
312 311 313 317 316 316 318 318 316 318 320 321 321 321 321 320 320 321 323 326 327 329 329 329 332 337 339 340 341 342 342 343 343 345 345 345 345 345 345 345 346 347 347 347
310 314 314 315 315 316 317 318 319 316 319 320 321 321 320 319 318 320 326 325 325 326 328 328 333 338 339 339 340 341 341 342 343 343 344 344 344 345 345 345 346 347 347 348
307 313 312 314 316 316 317 319 320 319 318 318 319 318 317 319 321 321 323 324 324 326 327 327 334 340 340 340 339 341 341 342 342 343 343 343 345 345 345 345 346 347 347 348
309 311 312 315 315 315 318 318 319 319 318 319 320 320 319 318 317 318 321 324 325 326 326 326 331 337 341 341 341 341 341 342 342 343 343 344 346 346 345 345 346 347 347 347
308 310 311 314 315 319 317 317 322 320 320 319 320 319 319 321 323 324 325 325 326 326 326 326 326 328 338 342 342 342 341 342 343 343 345 346 346 346 347 347 346 346 347 346
308 307 312 315 315 316 318 325 330 329 328 321 320 320 318 321 321 321 323 323 324 326 326 326 328 328 331 336 341 342 341 342 343 343 345 345 345 346 347 347 346 346 347 348
307 309 310 311 317 320 321 327 329 328 331 334 328 320 320 318 319 321 327 324 324 325 325 326 327 329 332 335 336 335 339 340 342 342 342 343 345 346 348 348 348 347 347 348
309 310 311 313 317 317 321 328 333 332 333 336 336 338 320 320 323 326 326 327 329 328 327 327 330 333 337 339 340 340 341 342 341 343 346 347 347 347 347 347 349 351 350 351
311 313 313 313 317 319 323 331 339 334 334 334 337 339 338 326 327 334 340 343 343 342 342 338 331 331 332 337 343 343 344 345 346 347 347 349 351 351 349 346 337 350 355 354
310 315 317 316 317 316 326 326 331 331 332 333 333 340 341 343 343 345 347 348 348 347 347 346 344 342 344 344 334 340 346 348 349 349 349 349 350 351 349 351 349 355 355 354
312 314 316 317 318 321 326 330 329 330 330 333 336 340 342 341 343 343 343 345 345 346 346 344 344 344 342 340 339 341 345 349 347 344 344 348 350 351 353 353 356 357 357 355
309 310 313 315 317 322 328 327 328 329 333 335 336 337 336 334 335 336 336 335 335 336 338 338 338 338 338 337 338 339 339 339 339 338 339 347 346 348 351 352 354 357 357 357
310 310 314 315 317 322 325 325 327 329 332 332 332 332 333 335 336 336 335 335 335 335 335 336 336 335 334 334 333 332 332 332 332 333 333 334 340 348 350 353 355 357 357 358

GFSCGP_850_thetae_021.txt.gz
Theta_e
323 323 326 324 323 323 323 325 327 328 328 333 338 341 344 349 350 350 349 348 347 347 347 348 348 348 347 345 342 341 340 339 339 336 335 335 337 338 341 344 346 347 344 346
323 324 323 323 322 323 322 324 327 326 326 327 330 333 335 347 350 350 350 349 348 348 348 348 348 349 349 345 344 343 342 339 337 337 337 338 338 342 340 345 344 347 346 345
324 323 324 323 323 323 322 323 325 327 326 326 328 331 333 345 347 349 350 350 349 349 349 348 348 349 349 346 345 344 341 341 339 343 342 343 344 345 341 343 344 346 346 345
322 324 324 324 324 323 322 322 323 325 326 330 330 334 336 338 349 349 349 350 350 349 350 349 349 349 349 346 345 344 342 342 342 343 344 346 346 344 342 342 344 344 346 346
323 324 323 324 324 324 322 322 323 325 327 327 328 332 334 340 348 350 349 349 349 349 350 350 349 347 346 347 346 345 343 343 343 344 345 346 347 346 345 343 343 344 344 346
323 321 324 324 324 324 325 324 325 325 327 328 329 329 333 334 339 345 348 349 349 349 349 350 349 349 349 348 347 347 344 343 343 344 345 346 347 348 347 346 343 345 344 345
323 323 322 324 323 324 324 325 327 326 327 329 330 329 331 332 337 337 345 347 349 350 350 350 351 350 347 347 346 347 347 344 344 344 345 346 347 347 347 347 346 345 346 344
324 324 324 323 324 323 324 324 324 326 327 327 328 330 331 330 330 335 338 343 346 349 349 350 350 350 346 346 344 345 347 346 345 344 345 346 347 348 348 347 347 347 345 343
324 324 323 323 323 324 324 326 324 323 322 325 327 328 328 329 331 333 336 337 341 345 347 349 349 349 347 346 345 343 343 345 346 346 345 345 346 347 348 347 347 348 347 346
324 326 324 324 324 324 323 324 323 324 324 325 326 328 329 332 332 332 335 336 337 338 342 345 348 348 347 346 345 345 343 340 340 341 345 345 345 346 347 348 347 347 348 348
321 322 322 325 324 325 322 324 324 324 324 324 324 325 329 332 336 336 334 334 335 336 338 340 344 347 346 347 347 346 345 343 342 341 341 343 343 344 346 347 347 346 347 348
319 320 325 324 324 325 325 325 325 325 326 324 325 325 326 329 332 334 333 333 334 338 337 334 340 343 345 345 345 345 344 345 344 343 342 342 343 344 345 345 346 346 346 347
318 321 327 325 324 322 325 326 325 325 326 327 324 325 326 327 327 328 329 329 329 330 333 333 339 340 338 339 342 344 343 342 342 344 344 343 343 344 344 344 345 346 346 346
316 318 324 328 325 322 324 322 325 325 327 326 327 326 326 327 328 328 328 329 328 326 327 332 333 331 335 338 339 340 342 343 343 344 344 344 343 343 343 344 345 346 346 346
316 319 318 318 318 319 320 320 321 323 325 328 326 326 326 327 329 328 328 329 326 326 326 327 328 328 329 333 338 339 339 342 343 343 343 342 343 343 344 344 344 345 346 346
313 317 318 318 317 318 319 320 320 321 322 322 323 324 325 324 325 327 326 326 327 326 325 325 326 327 329 335 336 337 339 340 341 342 341 342 343 343 343 345 345 345 345 346
313 316 317 318 318 319 320 320 321 321 322 322 324 324 324 325 326 326 326 327 327 326 326 326 326 326 327 328 328 339 339 340 341 341 342 343 344 344 344 344 345 344 344 345
313 315 315 315 317 320 321 321 324 325 324 323 323 324 324 325 326 326 325 326 326 325 325 325 326 326 326 327 333 337 340 340 340 341 342 342 343 343 344 345 344 345 345 345
310 313 312 313 317 318 318 320 330 333 327 332 335 327 325 324 325 328 326 324 323 324 325 325 325 325 325 325 326 336 340 340 340 341 341 341 342 343 345 346 345 345 346 346
310 312 313 313 312 316 320 322 328 333 329 337 339 341 338 325 327 329 326 325 324 324 324 324 325 326 327 327 329 333 339 340 341 341 342 343 345 345 345 345 348 348 346 345
313 312 313 313 314 315 317 324 335 337 330 337 338 339 341 343 328 328 329 325 325 325 325 325 325 326 327 328 332 334 335 336 338 340 342 343 344 345 346 347 347 348 350 350
313 315 315 312 313 313 315 321 325 336 335 337 338 337 337 340 342 332 337 330 329 330 331 327 326 327 329 335 338 340 340 340 341 342 343 343 344 346 348 348 349 350 351 351
311 311 317 313 312 313 315 320 327 333 334 335 336 336 337 340 342 340 345 343 345 344 339 336 334 332 332 333 336 341 343 345 345 346 346 347 347 348 349 350 350 352 355 352
312 312 315 314 312 314 315 318 323 329 331 333 335 334 337 342 341 343 342 341 341 340 341 341 340 342 344 343 342 342 343 345 345 345 345 344 346 348 350 352 353 355 355 356
311 310 312 315 315 315 314 316 322 328 330 334 334 333 335 338 338 338 337 336 336 336 335 336 337 337 336 336 336 335 335 335 335 335 335 336 342 346 347 348 350 352 353 353
309 311 314 314 315 316 317 320 324 326 331 332 333 334 334 335 335 336 338 341 339 338 337 337 338 336 336 335 335 334 334 334 334 333 333 333 333 337 345 352 349 351 353 353

GFSCGP_850_thetae_024.txt.gz
Theta_e
323 324 325 325 327 328 331 332 334 334 336 335 337 338 338 342 347 347 351 351 350 349 348 348 349 349 350 351 352 352 351 351 349 349 349 347 345 345 345 345 347 344 345 347
325 326 325 325 325 326 328 329 331 333 333 332 335 336 338 340 347 347 350 351 351 350 349 349 349 349 348 350 352 353 351 349 342 347 346 347 345 345 346 346 348 344 347 344
326 326 325 324 326 326 326 328 330 332 333 332 333 335 336 335 339 344 347 350 350 350 350 349 349 348 348 350 352 352 350 348 340 350 349 347 346 346 347 348 349 348 344 346
325 326 325 325 325 325 326 326 327 329 331 335 335 339 339 338 339 342 344 347 349 350 350 350 348 348 348 349 351 353 352 349 347 341 348 345 347 348 349 350 349 350 344 345
325 325 325 326 326 325 325 324 325 326 328 331 334 336 337 338 338 339 342 344 348 349 350 351 350 347 347 349 351 353 353 350 350 344 345 347 347 350 350 350 349 350 352 344
325 324 326 326 326 326 325 324 324 325 327 331 333 336 337 338 339 338 342 345 348 349 350 351 351 348 347 349 351 353 353 345 344 342 340 347 350 350 351 351 351 351 352 352
325 325 325 325 326 326 326 326 327 327 327 330 332 334 335 336 336 337 338 340 347 349 349 350 352 351 349 349 351 353 354 350 343 343 342 342 344 347 352 355 354 352 351 350
326 326 325 326 327 327 327 326 326 328 327 328 331 333 335 335 334 334 335 336 343 348 349 350 351 352 352 350 351 352 353 347 343 342 341 342 344 350 353 354 354 354 352 351
328 328 325 326 326 327 327 329 326 327 328 329 330 331 332 333 334 334 334 335 337 346 349 350 350 351 353 353 352 351 346 341 343 342 341 342 343 345 353 352 353 354 354 352
328 329 326 325 325 326 327 327 326 326 328 329 328 330 332 333 334 335 335 335 336 341 347 348 349 350 352 354 354 354 348 337 337 341 343 343 343 344 345 347 348 350 353 350
327 328 329 327 326 326 327 328 327 327 327 328 329 329 331 332 334 334 335 335 336 339 342 345 347 348 350 352 354 355 355 352 343 339 339 341 342 343 344 345 346 346 347 349
326 328 330 328 327 327 327 327 328 328 330 328 329 329 329 330 331 334 333 334 335 336 338 340 342 345 348 350 352 353 355 355 349 343 340 339 340 341 342 343 344 345 346 347
326 326 330 329 329 328 328 327 328 328 329 331 329 327 330 330 331 333 334 334 334 336 339 341 340 341 345 348 351 351 353 354 354 355 351 347 342 340 340 341 341 343 344 345
319 327 329 331 330 328 329 328 328 328 330 329 330 330 329 329 330 331 330 330 331 334 335 337 338 339 342 345 348 350 350 351 353 353 356 354 345 342 341 341 342 342 343 345
320 326 326 329 325 325 328 328 328 329 329 330 330 330 330 329 330 330 329 329 329 331 333 335 339 341 344 344 346 347 351 350 350 351 354 354 344 344 344 343 342 343 344 344
317 324 323 326 324 323 325 326 326 328 329 329 329 330 330 329 328 329 328 328 328 328 328 329 331 338 338 338 339 347 348 348 350 350 350 353 353 348 344 346 345 344 344 344
316 320 322 326 324 324 326 325 325 326 327 327 329 329 329 329 329 328 327 327 327 328 329 330 332 334 337 338 335 334 344 350 349 348 351 350 351 348 347 349 348 345 345 348
315 317 319 324 324 326 326 326 326 326 326 326 327 327 328 328 327 327 327 328 328 328 329 330 330 330 331 336 335 344 347 340 343 347 345 348 347 348 355 351 348 347 349 348
313 316 317 320 322 324 324 323 324 326 327 327 328 329 328 327 326 327 326 327 329 329 330 330 330 331 332 334 335 339 347 346 349 343 341 340 344 348 351 349 345 346 349 350
313 314 316 317 319 323 323 323 326 326 330 329 333 334 336 338 336 331 327 327 328 329 330 330 330 332 331 326 330 340 344 347 339 343 345 343 341 343 342 342 345 348 348 348
311 314 316 316 317 319 320 324 330 330 340 337 336 338 340 343 341 341 341 338 336 335 334 334 333 330 328 329 327 335 344 339 344 351 352 348 346 343 343 344 345 348 350 355
312 313 313 314 315 316 316 318 324 331 333 333 334 337 339 341 343 343 343 344 339 337 339 342 335 335 342 332 333 333 333 342 352 353 354 353 348 352 357 351 350 353 356 356
311 312 314 315 315 315 315 317 318 319 322 329 328 330 334 337 341 344 346 344 343 344 346 347 344 349 350 344 351 348 345 347 352 351 352 354 356 356 354 356 357 359 357 358
312 311 313 313 313 315 314 314 316 318 320 322 326 327 332 335 339 344 346 346 347 346 346 347 350 350 351 355 357 358 348 346 349 350 353 355 358 359 360 359 360 359 359 361
312 312 313 315 315 313 313 314 315 317 321 325 326 330 334 335 339 344 346 345 344 342 343 346 347 347 347 347 345 345 345 346 356 356 357 358 357 357 359 360 359 359 359 359
310 313 314 315 313 313 314 314 318 319 321 323 326 329 334 335 339 339 341 342 343 345 346 347 347 345 344 343 338 335 334 333 333 334 341 346 348 350 354 355 358 357 356 359

GFSCGP_850_thetae_027.txt.gz
Theta_e
333 335 338 333 337 336 335 335 336 338 339 339 340 342 341 342 345 345 349 351 350 349 347 347 348 348 348 350 353 354 353 353 353 353 351 350 348 348 346 346 345 348 351 352
331 333 332 331 329 332 334 335 336 336 336 338 339 340 340 341 343 345 347 350 351 350 349 347 347 348 348 350 352 354 354 354 353 353 351 350 349 347 346 346 347 350 353 354
329 328 328 327 326 328 330 332 334 335 336 336 338 340 339 339 340 344 346 349 350 350 350 349 348 348 348 350 352 354 353 353 353 353 352 351 349 347 348 348 348 351 353 353
329 328 327 327 326 327 327 328 331 332 334 337 337 340 340 339 339 344 345 348 350 350 351 351 348 348 348 349 352 353 353 352 353 352 352 350 349 347 347 348 348 350 353 353
331 328 328 328 327 327 328 328 328 330 332 335 336 340 341 340 339 339 341 344 349 348 350 351 350 348 347 348 350 353 354 353 353 352 352 352 349 347 348 349 350 349 352 353
328 327 328 328 328 327 328 327 328 328 329 333 334 338 341 341 341 340 340 340 344 346 349 351 351 349 347 347 349 352 355 353 352 350 343 351 350 347 350 350 351 352 351 355
327 328 328 328 328 328 327 328 328 327 329 330 332 335 337 339 338 340 339 339 341 343 348 350 351 350 348 347 348 351 354 354 352 353 348 344 348 345 352 352 351 351 351 350
328 329 328 328 329 329 328 328 328 329 328 328 331 334 336 337 337 337 338 339 342 343 347 350 351 352 349 347 348 351 353 355 356 352 352 340 341 353 352 352 352 352 350 350
330 330 329 329 328 329 329 330 329 329 330 330 330 331 333 335 336 337 337 338 339 342 346 349 351 352 351 348 349 351 353 353 348 347 344 342 339 341 353 352 350 356 354 351
330 332 331 329 329 329 330 329 328 329 332 332 332 333 333 335 336 337 338 337 337 339 345 348 350 352 353 352 350 351 353 353 342 344 338 335 337 339 344 353 354 356 355 354
330 332 332 331 329 329 329 331 329 329 329 331 334 333 334 336 336 336 337 336 337 337 343 347 350 350 352 353 353 352 354 355 355 343 341 337 335 338 339 344 351 350 352 356
329 331 333 331 329 329 330 330 331 330 333 330 332 333 333 333 333 336 336 335 335 337 340 346 348 349 350 352 354 355 355 356 355 351 344 340 339 337 338 339 342 346 346 347
329 331 334 335 331 330 329 329 330 331 331 333 331 332 333 332 333 334 335 335 336 337 339 342 346 347 348 349 352 354 356 356 357 358 356 355 345 341 339 340 339 341 342 343
322 330 332 336 334 331 330 330 329 331 333 332 332 332 332 332 334 335 335 335 336 337 340 341 341 341 345 347 350 353 354 356 357 357 358 359 356 342 343 345 340 339 339 340
324 330 331 332 333 332 330 329 330 330 331 332 332 333 333 332 334 333 333 333 333 336 337 337 339 341 342 345 349 351 353 354 355 356 357 358 359 359 359 356 349 343 340 339
323 327 330 332 331 330 330 332 330 330 330 331 331 332 333 332 331 332 331 331 331 331 332 334 335 337 343 344 347 350 353 353 352 355 355 357 359 360 360 359 357 354 344 340
320 324 329 332 331 331 331 331 331 331 331 331 332 332 333 333 332 332 331 331 330 330 330 331 331 332 337 341 344 346 350 352 352 352 356 356 358 359 361 361 361 357 352 352
318 322 326 329 331 333 331 330 330 330 331 331 331 332 332 332 331 330 330 330 330 330 330 330 331 331 333 334 335 341 345 349 352 354 353 356 356 359 359 357 353 360 360 352
315 318 323 327 330 330 329 329 330 329 330 329 330 330 330 329 329 329 329 329 329 330 330 331 331 331 332 333 334 337 345 348 347 342 351 354 358 359 359 353 350 357 357 357
314 316 319 324 327 332 329 327 326 328 331 330 329 330 331 331 333 336 341 341 338 332 333 333 331 332 333 334 335 335 338 344 349 343 346 354 356 358 358 356 353 353 360 359
314 316 317 320 323 325 327 329 327 330 343 339 332 333 334 338 341 343 343 344 343 343 343 340 340 339 336 337 337 338 338 342 343 354 355 357 355 358 358 355 352 354 359 362
315 316 318 318 320 323 322 323 329 330 329 330 334 333 335 337 339 339 341 344 346 345 343 338 340 344 341 339 342 345 342 342 348 351 355 358 358 359 360 357 358 360 360 360
314 316 316 317 319 320 319 319 320 320 322 325 327 329 330 331 335 336 339 346 348 346 347 346 347 345 347 353 354 352 349 351 353 355 356 358 358 359 358 360 360 363 361 362
314 314 315 315 316 317 316 317 317 317 318 320 321 323 328 330 335 337 340 348 348 348 348 347 350 352 355 360 359 360 363 359 358 359 359 359 361 361 363 361 363 362 362 362
314 314 314 314 315 315 314 315 315 316 317 318 322 326 327 328 333 338 341 349 348 347 346 350 352 354 354 354 354 354 356 361 361 362 362 362 362 362 363 362 361 362 362 362
312 313 314 315 315 315 315 314 314 314 316 320 322 322 324 327 332 338 339 344 348 349 349 352 352 350 350 351 352 352 352 353 355 360 361 360 359 361 362 361 363 360 361 361

GFSCGP_850_thetae_030.txt.gz
Theta_e
334 335 335 333 335 337 339 338 336 338 339 341 340 342 344 344 344 350 350 350 348 348 347 348 348 348 348 349 348 348 349 349 350 350 349 352 347 349 347 346 345 344 344 344
336 337 334 333 334 335 337 338 336 335 337 338 341 340 342 345 343 345 349 350 350 348 348 348 349 348 348 349 350 349 349 349 351 350 350 348 350 349 348 346 346 345 346 349
337 335 334 334 335 333 336 337 336 336 336 338 340 341 341 344 344 343 347 349 350 350 349 348 349 348 348 350 350 351 351 351 352 352 351 351 350 349 348 347 346 347 347 347
336 334 333 334 334 334 333 335 334 335 336 337 337 339 344 342 342 343 343 348 350 351 350 348 349 348 348 350 351 352 353 351 351 351 352 352 350 349 349 347 348 348 348 349
337 333 332 330 332 330 329 329 331 332 334 335 336 338 338 343 342 342 345 347 349 350 351 349 349 348 349 349 353 354 353 352 352 351 355 352 351 350 347 348 348 348 349 349
334 333 331 329 328 328 328 328 328 329 331 336 335 337 340 341 344 342 343 343 348 349 351 351 349 349 349 350 352 355 353 353 351 352 351 355 351 349 348 347 348 349 350 352
332 334 333 329 329 328 327 327 329 329 330 331 333 335 339 339 342 342 341 341 344 348 350 352 352 350 349 350 352 353 354 353 352 349 349 353 354 348 349 349 349 352 352 353
330 331 332 329 329 329 328 328 329 332 331 328 330 333 336 337 338 340 340 340 342 345 349 352 353 352 350 349 351 353 353 352 351 350 347 347 352 353 346 349 350 351 352 351
330 331 330 330 329 330 329 329 329 329 329 329 329 330 332 335 337 338 338 340 341 343 345 350 352 353 351 349 350 351 354 352 351 348 349 341 344 349 340 349 352 354 351 352
329 331 330 330 330 329 330 330 329 330 332 333 331 335 333 335 337 338 340 338 340 341 343 349 352 353 352 349 350 351 353 352 345 345 343 340 335 337 339 338 349 351 355 350
326 330 330 331 330 330 330 331 329 329 330 331 334 332 337 338 338 340 339 338 339 342 344 347 352 353 353 351 350 351 352 354 353 347 338 337 339 336 336 339 340 347 351 357
327 326 331 333 331 330 329 331 332 332 335 332 334 334 335 338 338 339 338 337 338 339 345 346 349 353 354 353 351 351 353 355 354 350 348 343 339 336 334 335 336 339 346 347
326 330 332 333 333 332 331 330 331 331 331 336 333 332 334 335 338 338 338 339 338 339 340 345 349 351 354 354 353 353 353 354 358 360 358 354 347 341 337 334 333 336 340 345
322 328 333 335 335 334 333 330 331 331 333 332 332 334 334 334 334 338 338 337 337 340 338 345 348 350 352 354 355 355 354 355 357 360 361 359 356 350 349 344 339 336 338 338
326 331 331 331 333 333 331 330 331 332 334 334 333 333 336 337 337 338 337 337 338 340 342 344 347 350 350 351 354 355 355 356 356 357 360 359 358 357 355 355 351 349 343 339
322 328 331 333 333 333 333 331 330 330 330 332 332 333 335 337 335 337 336 334 334 335 339 340 340 342 344 351 351 353 355 357 357 357 357 357 358 359 360 360 359 354 348 346
320 325 329 333 333 333 335 333 332 331 331 331 334 335 336 337 337 336 333 333 332 333 333 333 336 337 339 341 352 353 352 354 356 357 357 358 359 359 359 359 360 360 357 354
317 321 326 330 332 336 333 333 332 332 331 332 333 335 338 338 335 333 332 332 332 332 331 331 331 333 332 335 343 348 353 352 351 355 356 360 359 360 360 360 360 360 361 358
316 318 323 330 332 333 333 333 332 332 333 333 333 334 334 332 332 332 331 331 331 331 332 331 332 332 332 335 339 341 340 346 349 347 352 353 357 359 360 360 360 360 361 363
315 317 320 326 330 333 332 331 331 331 332 340 334 332 332 331 331 344 346 345 345 345 345 343 340 338 333 335 334 335 343 346 344 343 342 347 352 354 358 360 361 360 361 362
315 317 319 322 326 330 329 329 329 333 340 336 337 335 334 340 344 343 341 343 346 346 345 344 342 342 340 336 336 337 336 340 344 343 347 347 347 351 358 360 364 363 364 364
316 317 318 320 324 327 323 326 332 333 327 328 331 332 334 334 336 338 339 339 344 347 346 344 342 338 341 343 335 337 338 337 342 346 348 350 350 355 360 362 364 366 364 363
317 318 318 319 321 326 320 321 321 322 323 323 325 325 327 331 333 336 338 340 348 349 348 351 349 347 347 347 348 347 349 348 343 352 350 352 353 360 359 363 363 364 363 362
314 315 316 317 319 319 318 318 318 319 319 319 320 322 328 330 330 332 338 341 346 351 350 348 349 351 358 361 361 358 359 357 353 353 357 357 358 362 361 361 364 362 363 362
313 314 316 316 316 316 315 316 316 316 317 317 318 320 325 326 327 330 334 339 342 348 353 353 354 356 358 358 362 363 363 361 362 359 360 362 362 363 363 362 361 366 364 363
312 312 313 315 315 317 318 316 316 316 316 317 317 319 322 323 323 323 332 338 340 343 347 352 353 353 353 354 354 354 351 357 365 363 364 364 363 363 362 364 362 361 362 363

GFSCGP_850_thetae_033.txt.gz
Theta_e
329 328 328 328 329 331 337 339 338 337 338 340 340 337 346 348 350 349 345 348 349 349 348 348 349 348 349 345 343 346 347 347 347 346 338 339 339 346 346 347 346 344 344 343
330 331 330 330 329 330 333 337 338 336 335 337 340 338 348 345 344 345 345 346 348 349 349 349 347 347 347 346 345 345 346 346 345 347 346 340 342 348 345 346 347 345 345 344
332 333 333 334 331 330 331 334 335 336 334 333 336 340 347 346 343 343 340 344 348 348 349 349 348 348 347 347 347 346 346 345 345 347 349 345 346 347 350 348 345 348 346 345
332 332 334 333 333 331 331 332 335 336 335 334 333 341 338 344 343 341 343 348 349 347 348 349 348 348 349 348 347 347 347 347 346 347 350 349 344 350 349 349 344 346 347 346
332 334 334 334 333 332 333 331 333 334 334 330 332 335 338 341 344 343 344 349 348 347 349 349 348 348 348 349 348 348 348 349 347 348 349 349 346 349 349 350 347 346 346 347
330 335 334 334 332 333 332 332 328 331 331 330 329 330 332 339 340 343 345 349 349 349 348 348 349 348 348 349 349 349 349 350 349 347 348 350 348 348 349 349 349 347 348 347
329 330 334 332 332 330 330 327 325 325 328 328 325 329 329 334 339 338 344 347 346 345 341 349 349 349 349 349 351 350 349 350 351 350 347 349 347 348 347 346 347 348 348 348
329 329 330 333 329 327 327 326 321 324 325 325 324 327 329 331 333 338 341 345 342 345 349 350 349 349 349 349 349 351 351 350 351 350 349 346 348 351 348 347 347 347 348 348
327 328 329 331 331 328 325 325 323 323 326 324 324 324 325 327 329 330 337 341 346 349 351 350 349 349 348 349 349 351 351 351 350 350 349 345 346 350 347 345 347 349 350 352
323 324 329 331 331 328 326 324 323 323 325 326 326 326 326 325 327 329 331 336 343 350 348 351 350 349 348 348 348 350 351 350 350 350 349 344 337 340 342 343 344 350 349 351
320 322 322 328 331 331 325 326 324 323 323 324 329 328 328 326 327 330 330 335 339 345 351 352 351 350 350 349 348 349 351 351 351 349 348 344 337 336 342 341 339 345 354 352
320 321 323 324 328 329 327 326 325 325 324 324 324 327 330 330 329 330 331 335 339 342 350 353 352 352 351 350 350 349 349 350 349 348 348 349 343 337 336 339 334 337 340 350
318 321 325 323 323 325 327 326 326 324 325 326 325 327 332 332 329 333 332 334 336 342 350 352 354 353 352 351 350 350 349 348 348 349 349 347 348 345 337 335 334 334 335 335
316 320 323 326 325 326 328 328 326 326 327 327 327 328 332 333 335 335 335 338 335 342 348 351 353 354 353 352 351 350 350 349 349 349 348 347 346 345 342 336 334 335 334 334
312 319 324 328 328 329 330 328 328 327 326 328 326 331 334 336 336 337 339 339 339 339 346 350 352 354 354 353 352 351 351 350 350 350 349 347 345 344 343 340 335 332 333 336
310 317 323 331 330 329 331 329 329 328 328 328 327 327 331 335 336 335 335 336 338 342 346 349 350 353 354 353 353 353 352 352 352 352 352 352 352 352 350 344 340 338 335 335
311 315 320 330 331 333 334 332 329 329 328 328 329 328 334 335 333 332 334 332 333 332 333 338 342 351 354 355 354 354 353 353 353 353 353 354 355 355 355 355 354 347 343 342
311 313 319 327 330 335 331 331 333 329 330 328 327 334 332 335 339 337 332 332 332 332 333 332 332 334 338 341 354 353 354 354 355 355 355 356 356 356 357 357 357 357 356 352
311 313 318 327 330 332 332 330 329 331 335 335 339 335 335 342 344 345 346 345 344 342 338 335 335 336 333 333 335 355 354 354 355 356 357 356 356 356 357 358 358 358 358 358
312 313 318 322 331 336 324 325 328 330 338 332 336 338 334 342 346 343 343 346 346 344 343 338 336 339 340 341 338 343 349 353 355 355 356 356 358 358 358 359 359 359 359 359
314 315 318 320 325 329 323 325 329 337 335 328 327 332 336 339 341 339 341 346 348 347 346 342 339 340 341 341 336 342 345 345 344 348 349 349 349 352 355 356 359 361 361 361
316 318 318 320 325 329 320 322 329 328 322 323 323 326 332 333 336 339 341 344 351 351 349 350 347 345 340 339 340 336 337 343 346 346 345 344 344 344 346 351 355 360 362 363
317 315 317 318 322 318 319 319 319 319 320 319 320 321 328 327 328 332 338 339 342 349 349 349 349 349 353 348 346 342 337 340 345 341 343 349 351 350 351 352 357 362 363 365
312 312 313 316 316 316 316 318 317 317 316 317 317 319 324 325 324 323 335 337 337 343 349 349 351 358 359 358 355 349 344 338 342 345 344 341 354 356 355 356 361 363 364 364
310 311 313 312 316 315 315 316 316 316 318 317 317 317 319 322 322 321 322 335 330 335 336 342 350 354 355 356 359 361 359 357 359 356 355 358 356 355 356 359 362 362 362 362
311 310 311 311 310 313 313 313 314 316 316 317 319 318 319 320 320 320 320 326 333 330 333 332 339 349 353 352 349 349 351 357 361 361 361 362 361 359 361 360 361 362 364 366

GFSCGP_850_thetae_036.txt.gz
Theta_e
321 320 321 321 322 325 330 333 337 336 336 336 339 348 353 350 349 350 349 349 348 348 347 347 346 345 344 345 346 344 344 343 342 341 342 340 345 343 345 345 347 345 344 342
325 324 322 324 323 325 328 330 335 337 337 333 336 347 351 350 350 350 350 350 349 349 348 348 348 345 343 345 346 346 345 344 344 344 342 340 339 340 345 345 347 347 345 344
327 328 327 327 327 327 327 328 330 335 335 332 335 347 347 348 349 349 349 349 349 349 348 349 349 348 344 344 347 348 346 344 344 346 344 341 337 338 340 345 346 346 346 344
324 328 328 329 329 328 327 328 329 332 333 335 331 345 349 349 348 345 345 346 348 348 348 348 348 349 349 347 347 347 345 344 346 345 344 344 337 336 338 340 345 346 346 347
324 326 329 329 330 330 329 327 328 330 331 331 333 331 348 349 349 343 341 342 345 348 348 348 347 348 349 348 348 345 344 344 345 345 344 342 345 339 339 344 346 346 345 347
321 328 328 330 330 331 330 329 329 329 328 331 332 329 327 351 348 344 341 341 342 347 348 348 348 347 347 347 347 345 345 345 345 345 345 343 345 344 341 345 348 349 345 344
323 323 326 331 331 331 331 328 331 331 330 331 330 325 328 344 345 344 342 341 344 347 348 348 348 347 347 347 347 346 346 346 346 346 347 345 343 344 341 345 348 350 347 346
322 323 324 327 331 333 331 328 330 333 327 329 322 323 325 326 340 342 342 343 346 347 347 348 348 348 347 347 348 348 347 347 347 347 348 346 344 345 343 343 346 348 348 347
319 322 324 326 329 332 327 331 321 319 319 320 323 321 322 323 323 334 344 346 347 347 346 345 347 348 348 348 347 348 348 348 348 348 348 348 346 345 343 341 344 344 345 348
314 320 322 324 328 329 329 323 324 316 322 323 322 321 324 323 323 322 341 345 348 348 346 346 347 348 348 348 347 348 348 348 348 348 348 349 349 347 343 342 343 342 343 345
312 316 321 322 327 328 326 326 322 321 317 321 322 325 322 322 321 323 336 343 347 347 347 344 346 348 348 348 348 348 348 348 349 348 348 348 349 349 347 342 341 342 340 345
313 316 321 321 321 324 328 323 321 322 320 318 320 325 326 324 324 323 324 344 345 345 346 346 347 347 348 348 349 348 348 348 348 346 347 348 348 349 348 343 339 340 340 344
313 317 318 321 318 320 321 327 322 317 317 320 323 324 324 324 325 327 326 330 343 344 345 347 348 348 348 348 349 349 348 348 348 348 348 348 348 349 347 342 336 336 339 341
312 309 314 320 321 321 322 323 323 323 323 321 323 324 325 325 327 324 326 328 333 344 348 349 349 348 347 348 348 348 349 348 348 349 348 348 348 347 344 340 337 334 334 336
309 309 310 314 317 321 323 326 327 323 323 324 324 325 323 324 330 328 329 331 337 346 348 348 349 349 349 349 349 349 349 349 349 349 348 346 345 345 342 340 338 336 335 333
308 308 310 314 324 326 327 328 328 324 325 323 321 323 322 328 332 332 336 334 339 346 349 350 350 350 350 350 350 350 350 350 350 350 349 348 346 344 342 340 337 336 335 334
308 307 309 317 323 329 331 327 328 325 324 325 324 323 330 332 339 338 329 336 341 346 350 352 351 351 350 350 350 350 350 350 350 350 350 350 349 347 345 342 340 338 336 334
309 308 308 317 322 332 325 323 326 333 330 328 334 333 337 344 344 345 341 338 338 340 346 349 351 352 352 352 351 350 351 351 351 351 351 351 351 351 351 351 351 350 350 348
309 308 309 319 324 328 325 322 323 326 329 324 328 339 343 342 343 344 348 347 344 340 340 342 348 351 353 353 353 352 351 351 351 351 351 351 352 352 352 353 354 355 355 355
311 310 309 314 326 331 323 321 326 327 329 323 328 337 339 336 345 340 348 349 347 344 342 340 340 338 337 344 350 353 354 353 352 352 352 352 352 353 353 354 354 355 355 356
313 313 315 319 327 324 320 319 323 329 328 321 323 326 330 338 339 340 348 350 350 349 347 342 339 340 341 340 339 344 353 354 354 353 353 353 353 354 355 355 356 356 357 357
317 318 317 321 324 327 319 319 319 318 317 317 321 325 324 323 333 337 338 344 349 350 350 348 341 340 339 341 342 338 350 356 356 355 352 353 354 355 357 357 357 358 358 359
315 314 316 316 319 316 317 317 316 316 317 317 317 322 322 321 321 332 334 332 340 345 353 358 358 356 352 347 346 344 340 343 345 349 352 354 356 355 354 354 354 357 358 360
310 310 313 313 314 312 316 316 316 313 315 318 319 317 320 320 321 319 322 333 331 332 337 350 354 355 356 358 359 356 353 348 342 338 340 343 342 346 349 350 351 352 353 357
308 309 309 309 309 311 313 311 312 312 314 317 318 320 319 319 319 319 323 329 330 329 332 337 349 350 352 352 352 351 353 357 359 355 345 340 339 340 347 356 356 356 354 359
309 309 309 309 307 306 308 309 309 310 312 316 317 318 318 318 320 326 329 332 330 328 330 338 339 344 348 349 347 344 343 344 347 358 359 358 359 356 359 360 358 360 361 362

GFSCGP_850_thetae_039.txt.gz
Theta_e
317 315 317 316 320 323 327 332 336 335 335 339 344 345 352 349 349 349 348 348 347 347 347 347 346 343 342 344 343 342 341 341 339 341 340 341 342 345 344 344 344 345 344 342
317 318 317 318 319 321 322 325 330 332 333 333 334 343 352 349 349 349 348 348 347 347 347 347 347 345 343 344 344 342 342 342 342 341 342 341 340 344 344 343 344 346 345 343
322 322 320 321 320 321 322 323 326 331 331 333 337 346 346 350 349 349 349 348 347 347 347 346 346 345 345 345 344 343 342 344 344 342 342 342 341 342 343 344 345 346 346 344
321 323 324 321 323 322 322 323 326 328 331 332 331 351 354 352 350 349 349 348 348 347 347 347 346 345 344 344 344 344 343 343 345 343 343 342 342 341 341 342 344 346 346 345
322 323 324 324 324 324 325 324 326 327 327 329 330 332 347 351 353 350 349 349 349 349 348 347 347 347 345 344 343 344 343 344 344 345 343 343 344 339 336 337 339 345 346 345
317 320 323 324 326 326 326 325 325 326 324 329 329 330 328 348 351 350 348 349 349 349 348 348 348 348 348 346 341 343 343 344 344 346 344 344 344 341 337 333 334 341 343 344
319 319 320 324 326 326 327 324 326 328 327 332 328 327 331 339 345 346 347 347 347 346 348 348 347 348 348 349 347 343 344 346 347 347 344 345 344 343 339 335 335 340 345 346
316 322 321 321 326 327 328 327 327 330 331 332 324 327 326 330 342 344 345 345 344 341 345 347 347 347 348 348 348 348 346 346 347 345 344 345 345 345 342 340 339 338 343 347
315 318 315 322 323 328 328 330 325 322 317 323 329 320 320 323 334 342 344 344 342 340 341 346 347 347 347 347 348 348 348 347 347 345 344 345 345 346 345 341 341 338 342 347
313 315 315 319 322 325 329 325 328 319 326 326 321 321 325 323 325 331 342 343 343 342 342 344 347 347 347 347 347 347 347 346 346 345 345 346 346 347 346 342 342 340 341 345
312 313 317 319 320 322 325 327 328 327 319 327 320 325 319 321 321 323 336 341 341 342 343 344 346 347 347 346 347 347 347 347 346 346 346 346 346 347 347 345 342 343 342 344
311 315 319 321 318 317 324 324 319 331 326 316 318 324 322 320 320 322 329 337 341 343 344 345 345 346 347 347 347 347 347 347 347 347 347 347 347 347 347 347 345 342 343 343
310 317 314 319 318 319 320 326 321 321 316 320 329 328 319 321 323 320 322 331 337 343 345 345 345 345 346 347 347 347 348 348 347 347 347 347 347 347 347 347 346 345 343 343
311 313 311 316 317 314 317 319 323 320 319 322 322 326 324 321 321 321 324 326 329 340 345 346 346 344 346 347 347 347 348 348 348 348 348 347 347 347 347 347 347 347 344 339
309 311 308 310 310 311 313 315 318 319 321 322 321 319 321 320 321 326 331 333 327 336 343 346 346 344 345 346 347 347 348 348 348 348 348 347 346 346 346 347 346 346 343 338
308 311 308 310 312 312 315 320 324 324 321 320 320 320 320 327 338 340 332 327 331 339 342 344 345 345 346 346 347 347 347 347 347 348 348 347 347 346 345 346 346 343 340 337
308 309 308 311 316 322 325 323 326 326 325 325 321 325 326 340 342 342 344 330 330 339 342 343 345 346 346 346 347 346 347 347 348 348 348 348 348 347 343 341 343 341 338 336
309 308 306 309 316 331 321 320 322 327 325 325 328 332 337 342 345 345 345 344 336 337 340 342 345 347 347 347 347 347 347 348 348 349 349 349 349 349 348 347 345 343 342 341
307 308 308 312 320 325 323 321 321 322 325 322 326 332 342 345 345 346 345 347 341 343 345 346 346 348 348 348 348 348 348 348 348 349 349 349 350 350 350 350 349 348 348 348
309 308 313 309 327 330 322 320 318 322 325 319 324 324 337 343 348 343 343 350 347 343 347 349 349 349 349 349 349 349 349 349 349 349 349 350 350 350 350 351 351 351 352 353
314 314 314 314 327 324 319 318 318 322 321 318 320 322 322 331 336 336 341 353 355 348 343 346 350 351 351 351 351 350 350 350 349 349 350 350 350 350 351 351 351 352 352 353
314 316 319 323 325 327 317 318 318 315 316 316 318 321 320 319 327 333 335 346 355 353 345 343 342 341 343 352 353 353 352 353 352 352 351 352 351 351 352 352 352 353 354 355
314 311 315 316 318 315 317 317 313 312 312 313 318 319 319 319 324 332 333 338 343 353 356 355 351 350 349 349 351 352 355 355 354 355 355 355 355 355 354 354 354 355 356 357
310 310 310 311 310 310 314 315 314 312 312 312 315 317 319 327 327 332 330 331 338 343 349 353 354 354 354 354 351 349 349 348 348 348 351 353 354 355 356 357 358 358 358 357
309 309 309 310 308 311 312 310 310 315 313 314 315 316 321 326 329 329 328 327 325 333 341 345 349 351 350 350 351 352 352 349 345 343 343 343 344 345 345 347 353 356 358 357
307 308 309 310 308 308 308 309 310 312 312 313 313 315 317 318 319 321 324 325 324 328 332 340 343 344 345 346 345 342 342 344 347 347 345 345 344 343 343 344 345 350 355 357

GFSCGP_850_thetae_042.txt.gz
Theta_e
316 314 315 316 319 323 325 330 333 334 334 341 342 344 352 348 347 347 346 343 341 342 342 344 345 344 344 342 337 334 333 329 328 327 338 339 342 343 344 342 342 345 345 344
314 315 315 314 315 319 321 322 326 329 333 335 336 343 351 349 348 347 347 346 345 344 344 344 345 346 345 344 340 337 339 331 330 330 334 339 341 342 344 344 344 343 345 343
316 316 316 316 317 316 318 321 322 329 330 332 334 338 350 349 348 348 347 346 346 346 345 345 345 344 345 343 341 339 341 332 337 336 339 340 340 342 344 344 343 344 346 345
318 319 319 316 317 317 316 319 323 324 328 331 333 339 347 350 350 348 348 347 347 346 346 345 345 346 346 343 342 341 341 339 341 341 340 341 341 340 341 343 343 344 344 345
319 321 321 320 317 318 318 319 321 323 325 327 329 332 338 349 352 350 348 348 347 346 346 346 345 345 346 346 343 342 343 341 340 341 342 342 341 341 341 341 343 342 344 345
314 316 317 321 321 319 322 323 321 323 322 328 327 330 329 350 352 350 348 348 348 347 346 345 344 346 345 346 345 343 342 343 340 341 343 344 343 342 342 341 340 340 341 344
316 317 316 317 320 321 323 322 323 325 326 330 328 330 329 328 348 348 347 348 348 348 347 346 346 346 345 345 344 343 343 342 342 342 342 343 344 343 343 342 338 335 336 336
314 318 318 317 318 322 323 323 323 327 327 328 323 328 328 328 338 347 347 347 348 348 348 347 347 347 346 346 344 342 342 342 342 343 343 344 345 344 343 344 341 335 332 333
313 316 313 316 317 321 323 325 322 323 318 323 326 323 323 325 330 340 344 346 347 348 348 348 348 348 347 347 347 346 343 342 343 343 343 344 345 345 343 344 343 341 335 335
312 314 313 315 318 319 323 323 326 321 331 324 325 320 331 323 325 330 337 342 345 346 346 346 347 347 347 348 347 347 348 346 345 345 344 345 346 344 343 344 344 343 341 338
310 313 314 314 318 320 321 327 326 325 321 329 321 322 322 323 326 326 331 341 342 344 344 344 344 346 346 347 347 347 348 348 347 346 346 345 346 345 344 345 345 345 342 340
311 313 315 315 316 317 316 321 324 330 326 318 320 328 321 321 321 323 325 335 339 341 343 342 342 343 345 346 347 347 347 347 347 347 347 346 346 345 344 345 346 346 343 341
309 311 315 315 315 313 317 320 321 318 326 328 332 328 321 319 319 321 322 325 331 336 341 341 341 342 344 345 346 346 346 347 347 347 347 346 346 345 345 345 346 346 346 342
310 311 312 314 315 312 312 313 319 319 326 329 329 328 326 324 321 321 320 323 325 334 339 341 341 342 344 345 346 346 346 346 346 347 347 346 346 346 346 346 346 346 346 345
307 312 311 310 311 311 311 312 313 315 318 326 324 324 324 323 322 319 323 326 325 326 330 338 341 343 344 345 346 346 346 346 346 347 347 347 347 346 346 346 346 346 346 346
308 310 312 310 309 310 311 313 314 315 318 318 319 319 325 320 326 340 341 342 337 329 329 330 337 342 344 345 345 345 346 346 346 347 347 347 347 347 347 346 346 346 345 345
308 310 310 309 311 313 315 317 323 325 325 324 321 325 329 332 343 341 342 344 344 339 329 328 335 341 343 344 344 344 345 346 346 347 347 347 347 347 346 346 345 344 344 344
308 309 309 310 310 325 322 320 324 323 321 323 325 326 336 336 344 343 340 341 344 341 333 329 337 338 342 343 345 345 345 346 346 346 346 347 347 347 347 346 345 343 343 342
307 308 310 310 313 324 323 320 320 322 322 318 321 324 327 338 342 344 342 340 343 348 335 339 341 340 342 343 344 345 345 346 346 346 346 346 347 348 348 347 346 344 343 341
308 307 310 312 317 333 321 318 318 319 324 318 318 322 322 337 344 342 337 341 346 346 341 339 340 342 344 344 345 345 345 345 346 346 346 347 348 348 348 348 348 348 348 347
311 310 309 314 318 324 317 318 316 325 321 315 318 319 321 326 326 330 338 344 346 350 344 345 343 344 345 345 346 346 346 346 346 346 347 347 348 348 349 349 350 350 350 350
313 314 319 319 327 329 317 315 318 314 313 313 314 317 320 328 330 333 338 346 347 348 347 347 348 347 347 347 347 347 347 347 347 348 348 348 349 349 349 350 350 351 352 352
313 311 312 313 317 311 315 312 312 312 312 312 312 316 323 327 328 326 328 337 345 350 350 352 349 348 349 349 349 349 349 349 349 349 349 349 350 350 350 351 351 351 352 352
309 308 311 312 310 311 313 311 310 311 312 313 314 316 320 323 323 322 321 325 333 341 348 349 349 352 353 351 350 351 352 351 351 352 352 352 353 354 354 354 353 353 354 354
309 308 308 310 309 310 313 310 310 311 312 315 315 315 316 319 318 317 317 317 318 327 338 345 347 347 346 348 353 354 354 353 351 350 352 354 355 355 356 356 355 355 356 356
308 309 310 311 309 309 309 311 312 311 311 313 315 315 316 316 317 317 316 315 315 315 320 337 342 343 343 344 343 344 346 349 349 348 346 345 344 345 347 348 349 351 351 354

GFSCGP_850_thetae_045.txt.gz
Theta_e
318 318 321 320 321 322 327 331 330 336 339 343 345 345 351 350 348 345 342 340 339 340 341 342 343 344 344 339 337 335 329 328 328 328 334 341 342 342 344 345 344 344 344 343
317 318 318 318 317 321 322 327 330 333 333 341 343 345 345 351 350 348 345 341 340 341 341 343 344 344 345 342 338 337 331 328 327 327 334 340 340 341 344 343 342 343 344 343
321 320 318 317 317 318 321 322 327 329 329 334 338 342 341 351 350 349 348 345 342 341 341 343 345 345 345 345 341 338 332 329 327 327 329 336 338 341 343 344 344 344 344 344
323 323 319 318 319 318 319 319 322 327 329 337 337 348 344 344 353 351 349 348 347 344 343 343 345 346 345 345 341 339 334 333 333 328 328 329 335 339 341 342 343 342 344 345
324 324 324 323 321 319 319 319 319 320 327 330 333 338 344 345 350 352 350 349 348 347 346 344 345 346 345 345 342 343 342 334 339 332 331 331 335 337 338 339 342 343 343 344
318 317 320 324 324 319 320 320 321 321 321 325 332 335 339 343 349 350 349 349 349 348 348 347 346 346 346 346 344 342 342 338 340 334 337 337 337 339 341 341 341 342 343 343
314 316 318 319 322 322 322 323 326 325 325 322 326 333 335 338 342 345 348 349 349 349 348 348 347 346 347 346 345 344 344 341 341 338 339 341 341 342 342 342 342 341 341 341
315 311 319 316 321 323 324 324 325 327 326 322 324 333 334 333 333 340 344 347 349 350 349 349 347 347 346 344 343 345 345 344 342 342 340 340 341 343 343 343 342 342 341 338
315 316 315 315 316 319 323 326 324 324 327 327 324 326 330 332 333 334 340 346 348 349 349 349 348 347 346 344 342 343 344 343 342 341 341 340 340 342 343 344 343 343 343 340
313 307 312 315 315 319 321 323 327 326 327 327 327 327 327 333 333 335 336 342 346 348 349 349 349 348 346 343 343 343 343 342 341 341 341 341 341 342 343 344 344 343 344 342
311 310 307 310 315 321 323 323 326 327 328 328 326 328 328 329 336 335 335 336 342 346 348 349 349 349 348 347 345 345 345 344 343 342 342 342 343 343 343 344 345 343 344 344
311 312 311 308 309 312 314 319 324 330 332 330 330 328 327 330 331 333 333 333 335 342 345 347 349 350 350 348 347 346 346 346 346 345 343 343 344 344 344 345 345 344 344 345
312 311 309 306 310 313 315 317 319 324 328 333 332 329 329 329 329 329 332 334 337 340 343 346 346 348 349 348 348 347 346 347 346 346 346 346 344 344 345 345 346 344 344 345
310 311 309 307 309 314 315 317 317 321 328 331 332 329 329 331 329 329 328 326 327 335 341 344 344 344 346 347 347 347 346 346 347 346 346 347 347 346 346 345 345 345 345 345
310 310 309 310 309 310 311 313 314 316 322 330 331 333 331 332 333 332 329 328 328 327 334 341 342 341 342 346 346 346 347 345 345 346 346 346 347 347 347 346 346 345 345 345
309 310 309 309 307 309 312 313 314 315 317 322 326 330 332 331 330 329 331 337 339 339 334 336 342 340 341 342 343 343 345 344 345 345 346 346 346 346 347 346 346 346 345 346
310 309 309 309 308 312 316 314 315 317 320 322 325 328 330 335 343 343 343 343 343 344 346 344 335 339 337 339 342 343 343 344 345 345 346 346 346 346 346 346 346 346 346 346
309 309 309 309 309 317 317 322 317 325 325 326 328 330 333 339 344 343 340 340 341 343 345 346 340 335 336 337 344 344 346 345 344 345 346 345 345 345 346 346 346 346 346 345
308 309 310 311 315 316 325 323 323 328 324 321 325 329 334 341 346 346 341 339 339 342 345 348 344 331 337 342 342 344 345 345 345 345 345 345 345 345 346 346 346 346 346 345
309 309 310 310 315 323 323 319 319 322 330 318 321 324 334 341 349 343 337 339 342 344 351 347 335 334 340 342 344 344 345 345 344 344 345 345 345 345 345 346 346 345 344 343
311 310 310 310 312 312 317 318 318 331 325 315 317 320 332 335 332 331 333 338 342 343 348 343 344 341 342 343 343 344 346 343 343 345 345 346 345 345 345 346 347 347 347 346
310 311 311 311 313 315 312 317 322 317 314 315 316 317 328 325 323 323 330 337 340 342 346 349 347 345 343 342 342 343 344 344 345 345 345 346 346 346 347 348 348 349 349 349
313 309 312 311 312 307 312 313 313 313 314 314 314 315 320 321 318 316 317 325 338 343 344 348 350 348 347 345 344 344 345 345 345 346 346 346 347 347 348 349 349 350 350 351
309 308 309 310 310 311 312 312 312 312 312 313 314 314 316 319 319 317 314 314 327 342 343 343 346 347 347 346 347 347 346 346 346 346 347 348 348 349 349 350 350 351 351 352
308 308 308 311 310 310 311 311 312 313 312 313 315 314 314 316 318 318 318 315 313 317 341 343 344 346 348 351 353 353 351 350 349 348 349 349 350 350 350 351 354 353 352 356
308 309 309 311 309 310 311 312 312 312 312 312 312 315 314 313 316 317 318 317 315 311 313 333 342 343 345 345 346 347 351 356 355 355 354 352 352 352 352 353 353 353 354 354

GFSCGP_850_thetae_048.txt.gz
Theta_e
319 323 324 323 324 324 327 329 330 335 339 346 349 348 350 351 350 350 350 348 346 345 344 343 343 343 343 344 344 344 345 345 342 339 341 345 346 347 348 348 345 344 345 342
321 321 322 324 323 324 324 329 333 334 336 343 348 348 347 352 351 349 349 348 346 345 344 343 343 344 344 345 345 345 343 345 335 338 340 344 345 345 347 350 344 344 344 343
323 323 321 321 322 322 324 324 326 332 334 335 344 349 348 348 351 350 349 347 346 344 344 344 344 344 345 346 346 346 342 335 330 339 339 343 346 348 349 349 348 345 344 344
323 323 322 321 322 322 323 323 323 324 331 338 339 349 348 347 352 352 351 349 347 346 344 345 345 346 345 346 347 347 345 334 329 329 339 340 344 344 344 348 348 350 343 344
326 324 325 324 323 323 323 323 322 322 324 332 338 344 346 346 348 352 351 350 348 346 345 345 346 347 346 346 347 348 348 338 333 328 336 340 340 340 343 346 349 350 345 344
323 322 323 325 325 324 323 323 323 323 323 323 331 340 344 346 347 347 349 349 349 349 347 346 346 347 348 347 347 348 347 338 332 328 327 334 338 338 343 346 346 347 348 350
319 321 323 323 326 326 325 325 327 327 325 324 326 331 339 340 342 345 347 348 349 349 349 348 347 347 348 348 347 347 348 339 335 332 332 330 332 335 345 348 347 345 345 346
316 317 319 320 323 327 326 326 330 332 328 325 325 327 331 335 337 339 344 345 348 349 350 350 349 347 348 349 348 348 347 347 341 336 333 336 332 344 345 346 348 347 345 345
316 315 318 318 320 323 326 328 327 330 330 330 327 325 326 331 335 336 337 342 344 348 349 350 351 350 348 349 349 349 348 343 346 346 334 336 333 340 348 347 347 348 349 346
315 312 313 315 316 319 324 326 328 328 331 332 331 330 327 329 335 336 337 338 343 347 349 350 351 351 350 349 349 350 350 349 345 348 343 342 336 340 342 348 347 349 349 346
312 311 313 311 312 317 322 324 326 328 329 331 333 331 330 329 330 335 336 336 338 345 348 349 350 351 351 350 349 350 350 351 350 347 348 345 344 342 339 344 342 343 344 345
312 313 314 312 312 313 314 322 325 328 330 330 332 333 330 329 330 330 333 336 337 341 346 348 349 350 351 351 350 350 350 350 350 345 343 343 341 340 347 340 342 343 344 344
312 312 313 311 311 312 313 315 320 324 327 331 333 333 331 331 331 330 330 331 336 338 342 346 347 349 350 351 351 350 350 349 349 350 345 345 346 344 342 341 343 344 344 344
309 310 311 311 312 311 314 316 318 322 326 328 329 330 333 331 331 332 332 333 332 334 338 342 346 347 350 350 352 351 351 350 349 350 350 348 342 344 343 343 344 344 345 345
311 314 311 311 310 310 310 310 314 319 322 325 326 328 330 333 332 332 332 331 332 332 335 341 343 346 349 350 352 352 352 351 350 350 351 350 343 343 343 344 344 344 345 345
311 313 311 311 310 310 310 309 310 313 316 320 322 325 327 330 331 331 330 332 333 336 336 333 339 343 347 350 352 354 352 352 352 351 351 351 344 344 345 346 345 345 345 345
312 313 312 311 309 309 309 310 311 312 315 318 322 325 329 333 335 335 334 334 338 341 342 344 341 339 344 347 351 352 352 352 352 352 351 351 347 345 345 346 346 346 346 345
312 312 313 311 309 311 310 311 312 313 314 318 321 323 327 333 335 345 344 344 344 344 345 346 345 345 340 344 346 351 352 352 352 352 349 348 348 346 346 346 346 347 346 346
310 311 311 312 311 310 311 313 317 315 316 318 323 324 324 329 335 346 344 343 344 345 346 347 348 347 348 342 345 349 351 354 353 351 348 346 345 346 346 346 347 346 347 347
310 312 313 312 311 312 314 310 308 319 323 326 327 330 329 331 340 341 340 340 341 344 346 348 351 352 350 350 344 347 351 352 353 351 344 344 345 345 346 346 346 346 346 346
313 314 313 311 312 311 310 309 308 322 328 323 324 327 336 338 336 331 331 335 339 342 345 350 352 352 351 349 343 347 351 351 349 354 355 354 349 346 346 346 345 345 346 348
311 311 312 311 311 312 310 308 316 321 317 316 318 324 325 323 322 322 324 332 341 345 347 352 349 346 344 341 345 350 351 351 354 354 355 353 347 349 353 347 347 347 347 346
312 310 313 311 313 310 305 306 313 314 316 315 316 320 319 319 319 319 320 323 331 343 349 353 352 350 349 350 349 353 354 354 356 356 355 355 352 346 354 351 352 355 352 357
307 304 309 308 309 305 309 310 312 314 314 314 315 316 318 320 319 320 320 320 321 333 343 348 352 355 354 353 353 354 356 355 358 358 359 360 359 358 358 358 359 359 359 359
306 307 308 307 305 307 310 309 312 313 313 313 314 315 314 318 318 319 321 321 318 320 335 343 346 348 349 351 354 357 358 357 358 359 360 361 360 359 361 361 360 360 359 360
308 308 309 310 306 307 307 310 312 313 312 312 313 314 316 316 317 319 320 321 321 318 320 331 340 342 343 343 346 349 356 359 354 356 357 358 358 361 360 361 359 360 360 360

GFSCGP_850_thetae_051.txt.gz
Theta_e
324 328 327 330 330 329 328 328 331 335 339 346 349 352 356 350 351 352 352 351 349 348 347 346 345 344 343 343 343 345 346 345 346 347 347 347 347 347 347 349 352 351 351 350
325 325 327 327 327 327 327 328 332 333 338 347 349 350 349 351 351 352 352 351 349 348 347 346 346 344 343 343 343 345 346 346 345 345 346 346 347 346 347 347 351 353 353 351
328 326 325 326 327 327 327 327 330 335 336 339 346 350 350 352 350 351 351 350 350 348 347 347 346 345 344 344 344 344 346 347 345 344 343 345 347 347 346 350 351 352 353 353
326 326 325 325 325 327 328 327 326 329 337 341 341 350 350 350 353 352 351 350 350 348 347 347 346 346 344 344 346 346 345 346 345 342 342 344 346 345 345 347 348 351 352 353
327 325 325 325 325 325 326 327 326 325 327 332 338 345 348 349 353 352 352 350 349 348 347 347 346 346 345 345 347 347 346 345 345 340 342 343 345 344 345 345 349 350 351 353
325 326 326 325 325 325 326 326 326 326 326 327 332 342 345 348 348 351 350 350 349 348 347 346 347 347 347 346 347 348 348 346 341 336 334 342 342 344 342 344 349 348 351 351
320 322 326 325 327 327 326 327 329 330 328 326 328 335 341 342 346 346 349 349 350 349 348 348 347 347 348 347 347 348 348 348 338 334 330 339 341 339 342 346 346 346 346 347
319 320 321 323 325 328 328 328 330 333 332 329 327 330 335 339 341 341 344 349 349 349 348 348 348 348 349 349 348 348 350 349 347 334 329 329 332 342 340 344 346 346 345 345
318 319 321 322 323 325 328 330 328 329 331 333 331 328 328 333 336 340 342 346 348 349 350 349 349 349 349 350 349 349 350 350 347 348 334 328 328 331 341 340 344 351 347 346
318 320 320 319 320 322 325 328 330 329 331 334 334 333 329 329 332 335 340 342 345 347 349 350 350 350 350 350 351 351 350 351 348 347 343 337 332 328 335 344 348 349 348 347
315 317 317 317 317 319 319 322 327 329 329 330 334 334 333 331 330 331 335 338 341 344 347 349 350 351 351 350 351 352 351 351 352 350 349 344 340 342 332 345 346 350 351 351
314 315 316 317 317 316 317 320 321 327 332 331 331 333 333 333 331 330 332 335 337 339 345 348 349 352 352 352 351 352 351 352 353 352 352 349 344 342 346 339 347 348 349 351
314 315 315 317 317 316 315 317 321 324 325 331 332 331 332 332 332 331 331 331 335 337 340 347 349 350 352 353 352 352 352 351 351 353 353 352 350 344 344 342 341 346 344 343
311 314 316 317 318 315 317 315 317 321 325 327 329 332 332 333 332 333 332 331 332 336 338 343 347 348 350 352 353 352 352 351 350 352 352 353 352 351 347 345 338 340 340 342
312 313 314 314 314 314 314 315 316 317 320 322 326 329 332 333 333 333 332 333 333 333 338 340 345 347 350 351 353 353 353 352 351 350 351 351 352 349 349 345 346 338 341 342
312 314 314 316 314 313 313 313 314 314 314 319 323 325 327 327 327 330 331 333 334 335 336 338 341 345 349 351 353 355 353 353 352 351 350 351 351 350 346 341 341 340 342 343
314 314 315 316 315 313 313 313 313 313 314 313 315 320 322 324 326 327 331 333 332 334 335 338 336 342 344 348 353 353 355 353 353 353 352 352 353 350 348 343 341 341 343 344
314 316 317 317 314 315 313 313 312 312 313 314 315 315 318 320 322 324 332 344 345 344 341 343 343 342 341 344 347 352 355 356 355 354 356 353 354 353 350 351 345 343 343 344
313 316 318 317 315 313 312 312 312 316 315 317 318 319 316 317 319 323 327 345 346 346 347 347 347 347 346 343 344 348 353 358 356 357 355 357 355 357 354 352 350 345 345 345
313 314 316 315 315 315 313 313 313 312 317 315 317 319 318 317 322 326 339 347 346 345 346 348 349 349 349 350 346 346 351 354 357 357 357 358 357 358 356 351 350 349 346 346
314 317 316 317 315 314 312 312 311 313 315 316 320 320 317 321 322 325 337 339 340 343 346 348 351 351 352 353 351 345 348 353 355 357 359 359 358 358 356 355 353 350 347 356
314 315 316 314 315 316 312 312 313 313 310 310 317 320 322 327 334 331 330 332 335 338 344 347 355 355 355 355 355 352 347 350 354 357 358 359 360 359 360 359 358 358 359 357
315 314 314 314 314 313 311 309 309 307 308 309 319 327 330 330 329 327 326 328 330 340 345 350 356 356 350 349 355 354 346 354 354 356 358 358 360 360 359 360 360 361 359 360
309 307 308 308 311 310 309 306 307 307 309 312 316 321 323 324 324 323 324 324 327 336 346 351 353 359 357 354 349 347 355 355 356 358 358 359 360 360 359 363 364 361 360 361
307 306 308 308 307 304 308 309 308 310 312 313 315 317 319 321 323 322 323 321 323 327 336 341 346 349 354 356 357 356 359 357 358 356 359 360 360 361 361 363 362 361 360 359
307 307 307 309 304 307 307 306 308 311 311 313 317 315 316 319 321 323 320 317 320 322 326 330 335 341 344 350 356 358 358 358 359 360 360 361 360 362 361 362 361 360 360 360

GFSCGP_850_thetae_054.txt.gz
Theta_e
330 331 331 330 329 331 330 329 328 332 335 347 349 351 347 345 343 351 352 350 349 348 347 346 344 343 344 342 343 345 346 346 346 349 346 349 346 347 348 348 349 346 353 351
328 330 330 327 330 330 331 331 329 330 333 341 353 352 348 345 349 350 351 350 349 348 347 346 344 344 344 343 343 344 345 346 345 349 347 348 347 346 349 347 352 343 351 351
327 327 327 328 328 329 329 329 329 330 333 337 340 350 346 343 345 347 349 349 349 349 348 348 345 344 344 344 343 343 346 347 345 347 346 348 347 349 347 350 349 345 349 346
329 328 328 326 327 328 328 328 328 328 331 336 339 345 353 353 352 344 342 350 348 349 348 348 346 345 344 344 343 343 345 348 346 345 345 347 347 348 344 350 350 346 347 350
327 327 328 328 327 327 327 328 329 328 328 332 338 342 342 355 354 347 350 351 349 348 348 348 347 346 345 345 344 343 343 347 347 343 345 344 346 345 346 344 351 351 349 348
324 326 326 326 326 326 327 327 328 329 327 328 329 335 339 347 351 346 347 350 349 349 348 348 348 347 346 346 345 344 344 343 347 342 345 342 344 345 346 344 350 352 352 345
322 324 326 327 326 326 326 326 328 329 329 327 327 328 333 339 351 348 344 342 342 350 349 349 349 348 347 346 347 346 346 345 342 342 340 343 342 345 344 344 351 351 351 351
320 318 321 326 327 327 327 327 328 330 330 329 330 328 329 332 340 347 343 345 348 350 349 349 348 348 348 347 347 348 348 346 345 339 336 342 341 340 344 347 344 348 347 349
319 320 322 321 325 326 327 330 327 328 329 330 331 330 329 331 334 344 344 347 348 348 350 349 349 348 348 348 347 349 349 347 346 338 331 334 337 334 343 342 347 345 346 347
318 320 321 322 323 324 324 326 329 329 332 334 331 333 332 332 334 339 344 342 342 342 350 350 349 349 350 349 349 349 351 350 348 346 334 326 331 329 330 337 340 346 346 346
316 316 318 321 321 321 322 322 325 329 331 332 332 332 335 338 334 336 345 343 340 344 347 340 349 350 350 351 351 350 351 353 351 350 347 336 325 328 327 335 335 341 349 350
317 315 317 318 320 320 319 320 320 322 331 331 331 331 332 335 334 333 331 334 345 346 344 346 347 348 351 352 352 352 351 353 354 352 351 347 337 327 325 326 335 340 344 348
316 316 316 317 318 318 318 317 318 319 321 327 332 332 332 333 336 332 331 330 334 346 347 338 343 347 351 351 352 353 353 352 355 356 354 353 348 342 334 326 327 339 339 342
313 315 317 318 318 318 318 318 317 317 322 323 324 329 334 332 335 335 334 334 332 334 341 345 350 351 353 352 352 353 353 353 353 356 355 354 353 349 341 340 330 335 337 337
313 314 315 315 315 316 316 316 317 317 318 322 324 325 330 328 330 332 333 333 334 335 333 337 341 347 355 354 353 353 353 353 353 353 354 355 355 353 352 347 343 334 333 333
314 314 314 315 315 316 317 316 316 317 317 317 319 322 324 324 326 328 330 330 329 331 336 337 337 349 353 354 354 354 353 354 353 352 353 353 355 356 353 351 350 346 337 335
316 315 315 316 314 315 317 317 316 316 316 317 317 320 321 321 322 324 324 325 325 327 334 336 338 341 345 355 355 355 354 354 354 352 353 352 354 356 354 354 352 352 349 338
314 317 318 318 316 319 317 317 317 315 316 316 316 317 318 318 316 316 318 320 322 323 336 346 338 342 345 347 345 357 357 355 355 353 353 353 353 354 355 354 355 353 352 345
313 315 317 318 317 315 314 315 315 317 316 315 316 317 316 316 316 318 318 317 319 323 331 348 348 347 345 345 347 355 357 357 355 356 353 355 352 352 353 353 352 352 352 349
314 315 319 318 317 316 314 314 313 314 315 315 314 314 315 315 318 321 318 319 320 330 346 347 348 349 348 340 345 346 355 357 357 355 357 355 355 353 353 352 351 351 350 344
316 317 319 318 318 314 313 313 313 314 314 315 316 316 316 318 320 321 323 319 333 339 339 347 348 350 339 338 346 348 348 354 357 357 357 358 358 355 357 356 355 354 354 356
314 319 317 318 318 317 314 314 315 315 314 313 312 312 314 314 315 321 323 328 336 339 340 343 347 347 347 355 355 348 348 349 354 360 358 360 359 360 359 360 359 359 358 359
315 311 312 312 316 312 310 311 311 311 311 310 310 311 313 314 317 322 330 333 334 332 335 341 344 349 361 361 362 355 349 345 352 355 360 358 361 361 362 361 362 361 360 361
309 306 309 309 311 309 308 307 307 308 308 308 309 310 313 315 320 328 328 327 327 331 337 342 347 350 343 346 356 362 353 352 354 357 358 358 361 363 362 361 362 361 361 360
308 308 307 308 307 305 307 306 306 306 307 307 309 313 314 317 325 324 324 323 325 328 334 338 342 346 349 353 354 357 356 360 357 359 358 359 360 363 363 361 364 361 362 360
307 308 308 308 305 303 304 304 303 306 310 310 313 314 316 318 322 321 319 321 323 325 328 332 339 342 347 351 355 357 357 362 360 362 361 361 360 363 362 361 364 362 361 362

GFSCGP_850_thetae_057.txt.gz
Theta_e
331 330 330 327 327 327 328 329 328 326 329 343 352 357 355 347 350 352 351 350 348 347 347 347 343 342 341 341 340 342 344 344 341 345 341 346 348 347 347 349 350 345 348 347
328 330 330 329 328 328 327 328 328 329 327 330 349 355 349 350 348 351 350 350 349 348 348 346 343 343 342 342 341 342 342 345 342 344 345 346 347 345 347 348 350 350 349 345
326 327 329 329 329 327 327 327 328 328 327 335 349 351 348 346 348 348 349 349 348 347 347 347 344 344 342 342 342 342 341 345 344 342 345 348 344 344 347 348 348 346 347 344
325 327 327 327 327 326 323 326 327 327 325 326 346 354 349 346 350 351 347 348 346 347 346 347 345 345 343 342 342 341 341 346 345 342 346 348 349 348 346 348 346 348 343 345
324 324 327 328 326 324 325 326 326 326 325 324 325 326 347 347 352 348 348 344 344 345 347 346 345 344 345 344 343 342 340 345 345 344 342 347 347 347 347 345 350 347 345 348
318 321 324 326 327 326 325 324 323 324 323 324 323 325 329 352 351 345 340 339 341 344 348 346 346 345 345 345 343 342 341 342 344 345 339 345 346 347 347 343 348 349 349 345
319 320 321 323 324 323 324 323 321 323 324 325 323 322 321 349 348 345 342 341 341 349 349 348 347 346 345 346 344 343 343 340 338 344 341 340 343 346 346 346 343 349 350 348
315 316 317 322 324 326 322 321 321 325 326 325 324 325 323 325 349 344 342 344 349 349 348 349 348 346 346 346 345 343 343 342 339 335 341 338 338 342 345 346 346 347 347 344
316 318 319 320 323 325 325 324 322 322 323 324 325 325 325 325 337 345 344 347 345 344 346 348 349 347 347 346 346 345 343 343 342 332 333 339 337 339 344 346 345 349 350 348
315 314 316 318 321 324 323 324 322 322 325 326 326 326 328 327 326 343 345 344 348 346 348 349 349 349 348 347 347 346 345 344 344 341 330 332 335 333 340 343 345 343 346 347
315 314 314 315 318 320 321 320 322 321 324 326 325 325 326 330 331 343 344 344 349 346 344 344 341 349 350 348 347 348 347 346 346 345 341 331 334 334 332 342 342 343 341 344
314 313 312 313 315 316 316 319 318 318 321 324 328 329 327 328 331 337 344 343 348 342 347 344 335 337 349 350 348 348 348 348 347 346 346 342 329 331 331 330 340 340 344 342
312 313 314 313 313 316 316 316 314 313 312 315 318 325 326 326 327 330 333 337 346 346 347 342 336 338 349 350 350 349 349 350 350 349 348 347 345 330 328 328 328 333 333 338
313 312 313 314 314 314 315 315 315 314 311 313 316 319 320 325 326 326 330 328 336 346 344 339 341 342 348 347 351 350 351 351 352 352 351 349 348 346 333 325 326 327 327 331
312 312 312 312 313 313 314 314 315 314 314 314 314 317 323 322 322 324 324 323 324 327 344 343 342 340 341 342 349 352 352 352 352 354 353 352 350 350 348 338 328 326 326 326
313 313 312 312 313 313 314 315 316 316 315 315 315 315 315 316 317 317 316 317 318 319 321 322 327 337 341 342 347 352 353 353 352 354 355 354 354 352 351 348 340 333 328 326
314 314 315 314 314 314 315 314 315 315 316 314 314 314 315 315 317 316 317 318 318 319 318 328 338 345 343 344 340 340 352 354 353 353 355 355 354 354 353 352 349 344 340 336
312 314 316 314 314 316 315 314 315 316 316 315 315 314 315 316 316 316 316 317 320 320 327 327 344 348 347 342 346 342 349 354 354 354 354 354 354 353 353 353 352 352 349 345
312 312 314 312 314 313 313 313 313 314 314 315 315 315 316 317 316 315 317 320 320 320 319 333 339 346 348 340 343 347 351 350 354 354 353 353 352 353 353 353 352 352 352 350
312 313 316 315 314 314 311 312 312 313 312 313 315 315 315 314 316 315 317 315 315 315 315 332 334 327 327 345 349 341 339 339 353 356 354 353 352 352 352 351 352 352 352 351
311 313 315 316 318 316 312 312 314 315 314 313 313 314 313 312 313 313 314 313 312 313 314 328 332 326 326 338 350 349 340 342 347 353 357 354 353 353 352 352 352 352 351 351
311 312 315 314 317 315 310 311 314 311 309 309 310 311 311 311 311 311 313 312 310 310 313 332 326 328 332 341 345 356 357 350 349 359 358 357 354 354 355 353 352 352 352 352
310 311 310 309 311 309 309 308 307 307 307 307 308 309 310 309 309 310 311 311 311 328 325 331 323 327 333 332 334 347 349 351 355 348 358 358 359 357 356 356 354 354 354 354
310 307 308 306 309 308 307 306 306 304 305 305 307 307 308 308 309 309 311 315 324 331 332 331 327 331 333 333 340 339 333 345 354 356 350 360 358 359 359 359 357 356 356 356
308 307 308 307 307 306 306 305 304 303 304 305 307 309 308 309 311 313 314 319 325 327 329 332 334 335 336 340 343 339 333 331 346 356 356 354 362 359 360 361 360 360 359 358
306 308 308 307 306 306 305 304 303 302 303 304 307 311 311 314 314 315 316 321 325 326 328 330 333 335 337 340 343 346 345 338 340 353 358 360 357 361 360 362 362 362 362 361

GFSCGP_850_thetae_060.txt.gz
Theta_e
324 325 328 328 325 325 326 326 326 327 327 330 353 356 356 353 352 350 348 347 346 348 345 344 345 345 342 343 343 343 341 340 345 342 344 345 346 345 347 346 348 344 347 346
326 328 327 328 326 326 327 326 325 325 326 328 353 356 354 350 351 351 349 348 347 348 347 344 345 344 342 343 342 342 340 339 344 343 342 342 345 346 347 346 350 343 346 346
326 327 327 329 328 328 326 325 326 325 326 347 351 355 353 348 347 352 351 350 349 347 346 347 346 344 343 341 340 340 340 339 342 343 342 345 345 346 347 348 349 346 347 342
326 327 326 327 328 326 325 323 325 327 323 328 344 355 349 350 349 349 344 350 350 349 347 345 345 343 341 341 340 340 341 340 338 341 340 342 345 346 345 347 347 346 348 341
321 322 325 326 325 325 325 324 323 324 323 322 324 322 340 349 352 352 341 340 344 346 348 345 344 343 342 341 341 341 341 340 337 341 337 341 346 344 346 347 346 347 346 346
315 318 319 321 324 325 324 322 320 318 319 321 321 321 340 349 350 351 348 347 346 347 348 346 345 343 343 342 341 341 341 341 338 342 339 345 346 347 348 346 347 349 344 348
314 316 317 320 321 321 322 317 319 321 320 321 320 320 320 345 344 348 348 349 348 346 346 346 345 344 344 342 342 342 342 341 339 340 342 342 346 348 348 346 345 349 347 347
312 314 315 316 321 323 321 317 318 322 322 322 321 323 323 332 344 345 347 348 344 346 346 347 346 344 344 344 343 343 342 342 341 336 342 337 344 346 347 348 344 344 347 347
313 315 315 317 315 321 323 322 317 318 319 320 321 322 324 328 328 344 343 341 340 341 343 345 347 345 344 344 344 344 343 343 342 341 335 340 336 345 346 346 346 344 346 344
313 313 313 315 315 317 322 320 322 316 321 323 322 323 323 327 333 339 342 341 341 343 344 348 347 345 345 345 344 344 344 344 343 342 340 335 337 337 345 345 346 345 347 350
310 309 311 312 311 312 312 314 317 316 319 322 322 322 327 329 331 331 342 342 344 347 345 348 348 346 345 345 345 345 345 344 343 343 342 340 335 335 338 342 345 347 347 350
310 308 311 312 312 313 312 311 309 315 318 317 322 323 324 326 327 325 328 343 346 347 347 348 348 348 346 346 346 346 346 345 345 344 343 343 338 333 333 335 343 345 347 346
310 308 311 311 310 310 312 312 311 308 307 311 313 314 320 325 325 323 324 340 347 346 347 348 348 345 345 347 347 347 347 347 346 345 345 344 344 338 331 333 335 343 344 346
311 307 309 311 312 311 312 312 312 309 308 309 311 313 314 317 317 318 321 331 346 346 347 346 343 339 339 339 346 347 347 347 347 346 346 346 345 345 342 330 331 333 342 343
308 309 310 310 311 312 312 312 313 312 312 312 311 312 313 314 314 315 318 318 325 333 345 342 335 333 336 339 337 346 348 348 348 347 347 347 347 346 346 346 336 328 331 339
308 312 311 311 312 312 313 313 314 313 313 314 313 311 311 314 315 316 317 318 322 325 323 333 342 346 346 344 341 342 346 349 349 349 349 348 348 348 348 348 347 344 328 329
310 310 310 313 311 312 312 312 313 313 313 313 313 312 312 312 314 314 320 320 321 320 318 317 330 330 333 344 341 341 342 345 350 350 351 351 351 350 350 350 349 348 346 333
308 309 309 311 312 312 310 310 311 312 313 313 313 314 314 314 315 316 316 316 315 315 314 314 314 336 335 339 342 342 344 344 350 351 352 353 353 352 352 352 351 350 349 346
307 307 308 312 309 310 312 311 312 313 312 314 314 314 313 312 313 315 314 312 312 312 311 312 312 317 336 331 328 344 343 345 345 351 352 353 355 354 354 353 352 351 351 348
307 308 309 312 313 312 311 309 310 312 310 309 310 310 310 311 312 311 312 311 311 311 311 310 311 312 334 333 331 341 341 340 349 349 351 353 353 355 355 353 353 352 352 351
307 308 309 313 314 314 308 309 310 313 311 308 307 307 307 308 310 310 310 310 310 310 310 310 310 315 319 327 337 337 343 340 339 337 350 352 354 353 355 354 353 352 352 352
309 307 310 308 312 313 307 308 309 308 306 306 305 305 305 306 307 308 309 309 309 309 309 309 311 326 323 326 322 334 339 343 339 339 339 345 347 351 352 355 354 353 353 352
308 306 305 309 306 307 307 306 306 306 305 304 304 304 305 306 307 308 308 308 309 309 309 309 309 317 328 331 324 324 324 338 338 337 344 346 343 354 354 355 355 354 353 353
308 306 306 306 305 305 305 306 305 304 304 303 303 304 306 306 309 309 308 309 309 310 309 309 310 311 330 329 329 328 326 326 334 336 333 345 352 355 356 355 355 354 353 353
305 306 307 307 306 306 306 305 305 304 304 304 303 304 306 308 310 310 311 311 312 313 313 313 313 316 326 327 329 332 333 336 343 337 336 338 349 352 355 357 356 356 355 355
307 306 307 305 306 306 305 305 305 304 303 303 303 303 305 307 309 309 309 311 312 313 317 320 322 326 327 328 330 332 335 335 342 341 338 338 349 350 352 357 358 358 357 357

GFSCGP_850_thetae_063.txt.gz
Theta_e
321 319 322 324 324 326 326 326 326 325 325 325 350 350 353 351 352 351 349 348 346 346 345 344 343 343 343 342 342 344 341 340 343 344 344 344 346 345 346 346 345 344 342 342
323 324 324 327 326 325 325 326 325 324 324 323 331 351 352 351 351 350 348 347 346 345 345 345 344 344 343 343 342 344 340 339 341 343 342 342 344 346 346 346 345 345 345 345
324 326 326 328 329 328 326 325 325 325 324 348 350 355 355 350 349 350 349 347 346 345 346 345 344 344 344 343 342 343 341 340 339 342 342 342 345 347 346 346 346 347 346 344
325 325 327 326 328 326 326 324 326 325 323 322 344 349 354 350 348 348 350 349 347 345 346 346 345 344 345 344 343 342 342 339 339 341 342 341 341 345 344 346 346 345 347 343
324 322 326 326 324 324 325 324 323 323 321 320 323 329 333 349 351 348 351 350 349 347 346 346 346 344 344 344 344 343 341 340 339 338 343 342 340 342 343 345 346 347 345 346
314 316 318 321 323 323 324 323 319 315 315 319 319 320 332 352 350 347 348 349 349 349 347 346 345 346 346 345 343 342 340 340 340 339 338 341 340 341 343 345 346 347 344 346
313 315 316 318 319 319 319 316 319 320 318 320 318 319 320 339 345 345 346 348 344 346 348 347 346 345 346 344 343 342 341 340 340 340 338 338 336 339 342 344 346 347 347 344
310 313 315 316 317 320 317 316 317 321 320 320 318 322 323 326 333 343 345 346 346 341 342 346 347 345 345 345 342 341 341 341 341 341 339 337 336 342 342 344 348 346 347 346
312 314 313 315 314 315 320 320 315 315 315 319 318 321 323 328 329 330 343 347 347 346 344 345 346 345 345 345 342 341 341 341 341 342 341 336 336 343 343 344 348 347 345 347
312 314 312 313 313 313 315 317 320 314 319 322 320 321 328 327 325 327 341 345 347 347 348 346 346 345 345 346 343 342 342 342 342 342 342 340 334 335 342 345 346 347 344 345
309 309 312 311 311 311 310 310 309 313 314 318 320 324 325 325 322 323 330 341 345 344 345 344 345 345 345 345 344 343 342 342 342 342 343 342 339 333 335 342 345 346 345 344
309 306 311 311 309 311 311 310 307 311 316 313 318 321 314 319 319 319 340 338 341 341 341 344 345 346 344 343 344 344 343 343 343 343 343 343 342 340 332 333 342 345 345 344
311 307 309 310 308 308 310 310 309 305 303 308 312 314 314 313 314 317 335 344 346 346 347 346 347 346 345 344 344 344 344 344 343 343 343 343 342 342 342 332 332 342 345 344
310 304 307 309 311 309 311 311 310 307 309 309 309 311 310 311 313 314 319 327 344 342 338 343 337 337 339 340 339 343 345 345 345 344 344 344 343 343 343 343 332 330 335 341
306 308 310 309 309 311 311 312 312 312 312 312 311 311 310 309 310 314 321 322 323 322 318 327 338 334 336 334 344 339 344 346 346 346 345 345 344 344 344 343 344 335 328 331
306 311 310 311 311 311 312 312 312 312 311 312 312 313 310 314 314 317 317 316 316 316 313 313 322 336 337 335 344 343 339 343 347 347 347 347 347 346 345 345 345 345 343 329
307 308 308 311 310 310 310 311 312 312 313 312 313 311 313 312 313 314 313 313 313 312 312 311 311 315 330 335 335 342 343 338 345 347 348 348 347 347 347 347 346 346 346 346
307 307 306 309 309 308 308 309 311 311 315 313 314 313 312 311 311 314 312 311 311 311 311 310 310 311 314 326 339 339 343 342 341 346 347 349 349 349 349 348 348 348 348 348
304 305 307 308 305 308 311 310 309 310 312 309 310 309 309 309 310 312 314 312 310 310 311 311 310 310 310 316 323 333 345 344 345 343 346 350 351 350 351 351 350 350 351 350
305 304 306 309 309 312 310 308 308 309 312 307 307 307 306 307 310 310 311 310 310 311 311 311 311 311 311 312 315 321 334 344 346 344 345 346 352 353 352 352 352 353 353 353
303 303 304 312 315 312 308 307 308 312 309 305 306 305 305 305 307 307 307 308 308 309 311 311 311 311 311 310 317 319 322 323 338 344 340 344 345 353 355 354 353 353 354 354
306 304 299 307 308 307 307 307 307 306 305 305 304 304 304 303 304 305 306 307 309 309 309 310 310 311 311 311 310 318 317 321 325 332 339 340 340 342 351 352 353 353 353 354
308 302 301 303 303 305 306 305 305 305 304 304 303 303 303 303 303 306 308 310 309 309 309 309 309 310 310 310 310 311 319 323 319 321 328 337 334 344 343 343 349 345 350 352
307 305 301 303 303 305 306 306 304 305 304 304 303 303 303 303 304 306 309 310 309 309 310 311 310 310 310 310 310 310 316 326 323 321 324 329 334 334 345 349 351 353 354 354
303 306 307 306 305 306 306 305 305 305 305 303 303 303 303 304 304 305 307 309 308 309 310 311 313 311 310 310 310 309 312 326 325 322 323 321 330 335 339 347 348 350 354 354
306 304 304 303 305 305 306 306 306 305 305 304 303 303 303 303 304 304 306 307 307 308 311 314 313 312 312 315 311 312 312 322 325 325 321 323 325 336 335 340 344 347 348 352

GFSCGP_850_thetae_066.txt.gz
Theta_e
319 318 319 321 323 327 326 326 326 325 328 330 329 343 350 349 352 350 348 345 345 343 345 345 346 343 342 340 341 341 338 341 341 342 343 344 344 345 344 345 345 343 342 341
319 318 320 322 325 326 325 326 326 324 324 322 330 341 348 347 352 351 349 346 346 344 343 344 343 343 343 342 340 341 341 341 340 341 342 343 342 344 345 345 345 343 345 344
321 324 323 327 327 326 325 325 325 326 325 334 348 349 353 352 350 350 350 347 346 345 344 343 343 343 343 343 342 341 342 340 339 340 343 343 342 344 345 346 344 348 344 343
323 324 326 326 328 326 329 323 325 326 322 321 340 340 350 351 350 348 349 348 347 345 345 344 342 342 343 343 343 342 341 341 339 342 343 342 339 341 344 344 343 347 345 344
323 323 326 326 325 324 327 323 324 323 321 319 322 339 329 347 350 348 348 348 347 346 345 345 344 344 344 344 344 343 341 342 340 341 343 343 340 340 342 343 345 346 344 342
318 315 321 324 324 323 322 321 314 313 314 318 318 331 320 348 347 345 347 349 348 347 346 345 345 345 345 344 344 344 342 342 341 339 342 343 342 339 342 343 342 344 346 345
313 315 316 317 318 318 318 317 318 318 318 319 316 319 320 325 325 332 343 347 350 349 348 345 346 346 345 344 344 344 342 342 341 339 340 339 342 341 339 340 342 344 344 344
310 313 313 314 315 314 316 316 317 321 318 319 317 320 322 325 325 324 337 345 348 349 349 346 346 345 345 344 344 344 344 342 341 339 340 340 339 341 339 340 341 344 345 345
311 313 311 313 312 314 317 317 315 314 314 317 317 321 323 323 321 322 324 342 345 347 349 348 347 346 345 345 344 343 345 343 342 340 340 340 339 339 336 337 341 343 343 344
310 313 311 312 312 311 314 312 317 313 319 322 318 325 326 321 320 320 324 335 342 346 346 348 347 347 346 345 343 344 346 344 342 340 340 340 340 338 335 337 341 343 344 343
309 309 312 309 309 309 310 310 308 311 313 317 321 324 318 318 318 316 337 344 337 345 346 344 342 344 346 346 345 344 345 345 343 341 341 341 341 338 337 336 340 341 345 344
308 307 310 310 308 309 309 310 306 315 317 309 317 320 312 310 312 317 331 344 342 342 345 346 345 345 342 344 344 344 344 344 342 341 341 341 342 341 337 335 334 340 344 345
310 305 307 311 308 308 309 309 307 303 303 309 315 313 310 311 312 319 326 323 330 338 340 343 344 344 344 343 342 343 344 343 343 341 341 341 342 342 341 337 332 332 338 343
309 304 307 308 310 308 311 311 310 306 309 309 310 312 310 310 311 316 317 317 318 323 332 335 338 337 340 341 343 343 343 343 344 343 343 342 342 342 342 342 340 333 332 337
305 310 309 308 310 311 311 312 311 311 309 311 309 312 311 311 311 313 313 313 312 312 312 321 328 335 336 338 343 342 342 344 344 344 344 344 343 343 343 342 342 342 337 331
304 310 309 310 310 311 311 311 311 311 311 311 310 312 311 312 313 313 312 311 312 311 311 310 312 324 330 337 339 341 342 340 342 344 345 345 345 345 344 343 343 343 342 341
306 305 305 308 309 309 310 310 310 311 311 312 312 312 311 311 310 310 312 311 310 310 310 311 311 310 316 328 333 333 342 343 340 343 345 346 346 346 346 346 345 344 344 343
305 305 304 307 306 305 306 308 309 312 313 310 311 310 308 308 307 309 311 311 310 309 310 311 311 311 311 312 318 323 333 344 343 337 340 345 346 346 347 347 347 347 346 345
303 304 305 305 302 307 310 308 307 309 311 308 308 307 306 306 307 310 311 311 309 309 309 310 310 311 311 311 311 317 323 340 345 342 342 345 347 348 348 348 348 348 348 347
303 302 305 303 309 310 309 307 307 308 312 305 306 305 305 305 306 308 309 309 309 308 309 310 311 311 311 311 311 313 315 321 325 342 345 344 346 349 350 350 350 349 349 350
301 302 304 308 310 310 306 306 307 310 308 305 305 304 304 304 305 305 305 306 307 307 308 309 310 310 310 311 311 311 312 314 318 322 338 344 342 346 347 348 349 351 351 351
301 298 298 307 308 305 306 305 306 305 305 305 304 303 303 303 303 303 303 304 305 306 308 309 310 310 310 310 310 311 311 310 319 318 317 324 339 339 341 350 350 352 352 352
305 300 299 300 301 304 305 305 305 305 304 304 304 303 303 304 304 303 303 304 305 306 309 309 310 310 310 310 310 310 311 311 310 315 315 318 322 333 338 343 351 350 352 353
306 304 299 301 302 303 305 305 305 304 304 304 303 303 303 303 303 302 303 304 305 306 308 308 308 310 310 310 310 310 310 310 310 311 317 316 317 322 332 338 344 345 342 345
302 305 307 306 304 305 305 305 305 305 305 305 304 303 303 302 302 303 304 304 304 305 306 307 307 307 309 311 311 310 310 311 311 314 319 321 318 318 322 333 342 350 348 346
305 303 304 302 305 305 305 306 306 307 307 306 306 306 304 302 302 302 301 302 303 304 305 306 306 306 308 311 314 312 311 311 315 320 320 321 322 319 319 321 328 340 350 351

GFSCGP_850_thetae_069.txt.gz
Theta_e
318 324 328 333 334 330 331 331 331 329 335 336 330 331 342 352 352 348 347 346 346 346 347 347 345 344 340 332 331 333 333 334 334 335 341 342 342 343 343 344 344 344 343 342
319 322 324 328 331 330 331 332 332 329 328 329 330 334 352 349 352 351 348 346 346 346 346 346 346 345 342 336 337 336 335 335 337 340 341 342 343 344 344 344 345 342 344 342
319 320 322 328 330 331 331 333 331 330 329 336 348 349 353 351 351 352 351 347 346 345 345 345 346 345 343 340 339 341 339 338 339 340 341 343 343 344 344 344 343 345 344 344
324 323 325 331 333 332 335 328 330 329 330 329 337 333 348 353 352 352 352 350 347 346 345 345 345 345 345 343 341 340 341 341 340 341 341 343 343 344 344 342 344 347 345 345
326 327 327 332 332 330 334 328 329 329 329 326 330 337 340 348 354 351 352 351 348 347 346 345 345 345 343 343 343 342 341 341 341 338 340 343 344 341 343 343 343 345 344 342
323 319 328 331 328 327 328 324 322 322 325 328 327 334 331 337 336 334 347 351 350 348 346 346 345 345 344 343 343 343 343 342 341 341 339 341 343 341 341 343 343 345 346 342
317 318 318 321 325 325 326 327 328 329 328 330 323 328 332 329 328 328 332 340 351 349 348 346 345 345 345 343 343 343 343 343 341 342 340 339 344 342 341 339 343 343 344 344
323 322 316 316 319 322 325 327 328 329 329 329 322 328 331 323 325 331 339 340 347 350 349 347 346 346 346 344 344 344 344 344 342 342 341 339 341 344 343 340 340 341 343 343
317 317 314 314 315 318 321 324 323 323 321 327 326 327 325 322 327 333 343 344 345 349 350 349 347 346 346 345 345 344 344 344 344 342 341 340 339 342 343 342 340 342 342 344
314 317 313 314 314 316 320 317 323 324 327 328 327 331 327 322 327 334 341 343 341 345 349 349 348 346 346 346 345 345 344 343 343 344 342 341 339 340 341 341 340 339 342 343
312 316 316 316 315 315 319 320 319 322 323 327 329 329 317 321 330 331 328 335 344 346 346 348 348 347 346 346 345 345 344 343 343 345 344 342 340 340 340 339 339 337 341 344
311 314 316 315 312 312 314 314 315 326 326 322 328 323 316 323 326 323 323 324 329 336 340 345 347 345 346 346 346 346 345 344 344 344 345 343 341 340 341 340 338 336 341 341
313 313 316 316 315 313 315 314 313 312 316 322 326 319 316 323 321 319 318 317 317 320 326 331 342 342 343 345 345 344 344 345 344 344 344 344 343 341 341 341 339 337 339 342
312 312 315 316 316 314 316 314 314 315 319 318 318 318 318 321 320 316 316 314 313 313 316 320 328 334 341 342 342 343 343 344 345 344 344 344 343 342 341 341 341 340 336 337
314 316 314 314 313 314 314 314 314 315 315 318 317 317 318 319 318 315 314 314 314 311 311 312 313 316 325 337 341 342 342 343 343 346 345 343 344 343 341 341 341 342 341 338
311 316 314 315 313 313 314 313 313 313 313 314 315 317 315 315 315 316 315 314 313 313 312 311 312 311 312 318 330 334 338 342 342 344 344 346 344 344 344 343 342 342 342 342
313 314 314 315 313 312 312 313 313 314 316 315 316 317 314 315 313 313 312 313 312 311 311 311 311 311 311 311 312 320 330 341 344 342 340 343 345 344 345 345 344 344 343 343
312 314 314 314 312 313 313 311 311 315 315 315 316 313 311 310 310 310 312 311 311 310 310 310 310 311 312 311 311 312 316 327 340 345 341 340 342 344 345 345 345 345 345 345
309 313 315 316 313 312 312 311 311 313 313 310 311 310 309 308 309 313 310 309 308 308 308 308 309 310 311 311 311 311 313 314 330 336 342 340 343 342 344 345 346 346 346 346
310 311 315 315 315 315 313 309 308 310 314 308 308 308 308 307 313 313 309 307 307 307 307 308 309 309 310 311 311 311 311 312 313 323 330 345 344 345 347 346 347 346 347 347
312 314 316 316 316 315 311 308 309 315 314 307 307 306 306 307 306 305 305 306 306 306 306 307 308 310 310 310 310 310 311 311 312 312 326 321 334 340 343 346 348 349 349 349
312 314 315 313 314 315 309 308 312 309 307 306 306 305 305 305 305 305 305 306 306 305 306 307 309 309 310 310 310 310 310 310 310 312 311 319 320 332 339 343 345 347 348 348
312 311 313 312 314 308 308 308 307 306 306 306 305 304 304 304 304 304 305 305 305 305 306 307 308 309 310 310 310 310 310 310 310 310 312 311 319 322 320 327 337 340 347 351
309 306 311 309 310 307 308 307 307 306 306 305 305 304 305 305 304 304 304 304 304 304 304 305 307 308 308 308 309 309 310 311 311 310 310 311 311 319 321 322 327 334 343 347
310 308 310 310 309 307 306 307 307 306 306 306 306 306 306 306 304 304 304 303 303 302 302 302 305 306 307 308 308 308 308 309 312 312 311 311 311 312 321 321 321 326 337 345
307 311 312 315 309 310 308 306 306 307 307 307 308 307 307 306 305 304 304 304 303 303 302 302 303 304 304 305 306 306 307 308 313 314 313 313 312 312 319 323 319 319 320 327

GFSCGP_850_thetae_072.txt.gz
Theta_e
321 326 326 328 331 334 334 339 340 336 345 344 341 336 347 351 353 351 346 349 349 346 345 345 348 349 348 345 342 343 345 346 343 346 346 348 348 348 349 350 346 344 346 341
322 324 326 329 332 335 335 338 339 334 333 337 334 334 345 346 351 353 350 348 349 348 346 346 348 348 346 344 341 343 343 345 339 344 346 347 348 348 350 350 347 348 344 341
323 324 326 331 335 336 335 335 338 337 333 334 338 340 350 348 349 352 351 351 350 349 347 347 349 348 345 345 342 340 341 344 337 345 346 348 350 349 344 350 349 348 345 344
322 324 324 329 334 334 335 334 334 335 335 337 335 343 346 353 352 353 352 350 349 350 349 348 348 348 345 344 345 344 339 345 340 342 347 350 348 347 348 349 350 350 346 343
325 323 325 330 333 333 335 333 334 334 336 334 332 338 346 346 353 353 353 352 350 348 348 348 348 348 346 345 345 346 346 340 348 341 345 349 347 347 349 350 349 351 342 343
327 323 326 330 333 333 333 332 332 332 334 335 334 335 339 342 338 339 350 353 352 350 348 347 348 348 347 345 347 347 348 341 341 344 340 343 350 350 347 349 348 346 348 347
325 327 328 330 334 333 333 332 332 332 332 334 333 333 336 333 334 337 339 338 353 351 350 349 348 348 347 345 347 348 349 343 341 341 342 340 341 343 350 348 346 351 352 349
325 326 326 327 332 333 333 332 331 332 332 332 331 332 332 331 338 345 346 342 341 352 351 350 349 348 348 347 348 349 349 343 343 342 341 342 340 348 349 349 347 349 349 350
326 323 319 320 321 324 331 333 330 329 330 332 331 332 328 330 340 340 344 345 346 351 351 351 349 349 348 349 349 350 350 344 344 344 343 342 341 340 348 349 350 348 349 350
322 323 320 318 319 321 325 328 329 328 331 332 331 333 331 332 341 340 338 341 347 349 351 351 351 350 349 349 349 350 350 350 344 344 345 343 342 341 340 347 350 349 349 349
319 322 320 320 322 324 324 325 326 328 329 331 333 332 325 334 335 335 333 331 335 340 347 350 351 350 350 350 350 350 350 351 351 347 347 346 346 342 340 340 346 349 349 350
317 320 321 322 317 318 321 324 326 328 331 330 331 327 327 331 328 325 323 323 323 326 328 342 347 349 349 349 350 350 350 350 351 351 350 346 345 348 349 341 340 343 348 349
316 319 321 320 319 318 321 321 322 324 326 330 329 326 328 328 329 320 318 317 318 318 319 328 339 343 345 346 348 349 349 349 349 350 350 345 345 345 348 346 341 341 341 342
316 318 319 320 321 321 321 319 320 323 327 329 328 326 328 327 327 325 318 315 315 315 315 314 318 328 334 342 346 346 347 348 349 350 350 350 346 344 348 348 342 341 341 340
320 322 320 318 317 318 318 318 318 321 324 326 326 326 327 325 323 321 320 319 315 314 314 314 312 312 314 325 335 340 340 343 345 348 350 350 350 350 348 349 349 342 341 342
317 321 321 320 317 318 318 317 317 317 319 322 323 323 321 321 321 320 319 319 318 316 315 314 313 312 312 311 314 327 334 341 342 344 345 349 351 352 351 347 343 346 346 341
318 319 320 320 317 316 317 318 317 317 318 320 321 323 319 320 318 317 317 319 317 316 315 315 313 312 312 312 312 312 321 334 340 344 344 343 347 350 354 353 351 345 343 345
317 319 318 318 317 316 318 316 316 318 319 319 320 318 317 316 316 316 317 315 314 313 313 313 313 314 314 312 312 312 312 313 329 342 344 345 343 346 349 351 352 352 351 350
315 316 317 318 317 316 315 315 315 318 318 316 317 315 314 314 314 317 314 313 312 312 312 312 312 313 315 316 314 312 312 312 311 317 335 341 344 345 345 348 348 349 352 352
314 316 318 317 320 318 319 314 313 314 318 314 314 314 313 313 315 318 312 311 311 311 311 311 311 312 314 316 316 316 317 312 311 312 314 328 336 343 342 344 346 348 349 349
318 318 320 319 320 318 315 312 313 316 319 313 312 312 312 313 312 310 310 310 310 310 310 310 311 312 313 314 315 316 317 318 312 311 312 314 323 329 339 342 343 346 350 349
317 319 320 319 320 322 313 313 317 315 311 311 310 310 310 309 309 309 308 309 309 309 309 309 310 311 312 313 314 315 316 316 313 311 311 311 312 314 322 331 340 343 345 347
318 316 320 318 319 314 313 313 312 310 311 310 309 308 307 308 309 308 307 307 308 308 307 307 307 307 308 310 312 313 314 314 314 313 311 311 311 312 314 320 322 325 343 345
314 312 316 315 313 312 313 311 310 310 309 309 308 308 308 308 308 307 307 307 306 307 306 306 305 306 306 308 309 311 312 312 313 313 314 311 311 312 312 318 328 331 332 344
315 313 315 315 313 311 311 311 311 310 309 309 308 308 309 308 308 308 307 307 307 307 307 306 306 306 306 306 307 308 308 309 310 312 314 316 317 313 314 321 326 330 328 338
313 315 317 319 314 313 312 311 310 310 309 309 309 309 309 308 308 308 308 307 306 306 306 306 306 305 304 305 306 307 306 306 308 310 312 314 317 319 320 322 322 325 323 318

GFSCGP_850_thetae_075.txt.gz
Theta_e
323 326 330 331 331 331 334 337 341 341 344 346 347 354 353 353 351 351 348 348 348 346 346 347 344 347 347 346 345 346 347 349 347 347 346 347 348 349 348 349 351 344 351 344
325 327 329 329 330 330 334 335 340 340 343 344 341 340 349 350 353 353 349 347 350 347 346 347 345 349 348 347 345 345 347 349 348 348 347 346 347 347 347 350 351 352 351 347
326 326 327 328 330 333 336 338 340 340 337 340 338 340 346 344 348 354 351 349 350 349 347 346 346 348 349 347 344 345 347 349 348 347 348 349 347 350 349 351 349 351 348 350
325 326 326 328 332 335 335 334 337 337 338 340 338 342 347 347 347 355 352 351 350 350 347 346 346 348 349 346 342 345 347 349 348 348 346 349 347 347 346 348 349 350 351 352
325 324 325 329 333 334 334 332 334 338 337 338 339 341 346 349 352 356 351 352 351 350 348 347 347 349 348 345 344 347 350 350 348 347 348 349 348 348 347 349 351 351 351 351
327 324 325 326 330 333 335 335 334 335 336 337 337 336 351 349 352 354 351 352 351 350 350 347 348 349 348 344 344 348 352 351 352 351 345 352 351 349 349 346 352 350 349 350
328 328 326 326 330 334 336 336 337 337 336 336 335 335 342 339 340 341 348 347 351 350 350 349 349 349 348 346 344 346 352 353 351 352 353 351 352 350 352 352 349 349 350 347
328 328 327 327 332 335 336 335 334 334 334 333 335 336 339 340 345 346 346 344 351 352 350 349 349 349 349 347 345 346 351 354 354 352 353 353 352 350 348 350 348 348 349 349
329 328 328 328 331 334 334 335 333 333 332 333 336 335 336 342 343 344 348 347 342 352 351 351 349 350 348 348 346 345 349 354 355 354 355 354 353 348 348 349 348 350 350 350
326 327 325 325 325 328 329 332 335 334 335 334 335 337 337 343 343 343 341 343 346 347 348 350 350 350 348 348 348 346 348 354 355 354 355 355 355 353 345 350 351 349 349 350
322 327 325 324 325 327 328 330 332 333 332 334 336 336 336 342 341 339 330 331 332 332 334 341 347 350 350 350 350 349 349 351 354 355 354 355 355 355 355 352 352 351 350 352
321 324 326 325 325 324 326 328 330 332 333 332 333 332 335 337 334 329 324 324 325 323 324 327 341 347 349 349 350 350 350 350 351 353 354 354 355 355 355 355 353 353 352 351
321 322 325 325 324 324 325 326 327 329 330 332 332 335 334 332 328 324 322 321 320 320 321 329 336 343 346 347 348 349 350 351 350 351 353 354 354 355 354 354 355 353 352 350
319 321 324 324 324 324 325 325 325 327 329 331 332 336 333 334 328 320 319 319 320 319 317 318 326 329 336 340 346 347 348 348 350 350 351 353 354 354 354 354 354 354 353 345
322 320 322 321 320 323 324 324 323 325 327 329 333 335 333 331 330 324 320 318 318 317 317 316 316 314 320 326 336 344 343 344 347 349 351 352 353 353 351 354 354 354 354 352
321 323 321 320 320 320 321 321 320 322 325 327 330 332 328 325 325 325 325 323 319 318 318 316 316 316 314 314 315 325 337 341 343 345 347 351 352 352 354 354 355 356 356 354
322 321 323 322 320 319 319 320 320 321 322 325 329 329 326 326 324 323 324 322 320 319 318 318 317 317 318 318 316 316 317 327 339 342 342 345 348 351 352 353 353 353 354 355
322 323 323 323 323 323 320 320 319 320 321 325 326 325 324 323 321 320 321 319 318 318 317 317 317 317 317 318 317 316 317 313 314 329 342 346 345 346 348 349 351 352 353 352
317 321 323 322 323 321 320 318 318 321 321 321 323 321 320 318 319 320 317 316 316 316 316 316 316 316 317 319 319 318 318 315 314 312 317 337 344 347 347 347 350 351 350 351
317 320 321 321 322 322 321 318 317 318 323 318 319 318 318 317 320 323 316 315 315 315 315 315 315 315 316 318 318 319 320 320 322 318 312 312 321 338 342 343 348 350 350 354
319 319 322 323 323 322 320 316 316 318 322 317 316 316 316 317 317 315 314 314 313 314 314 313 314 314 316 316 317 318 319 320 321 320 319 315 312 313 321 332 338 343 347 349
321 323 324 322 323 328 317 316 318 320 317 315 315 314 314 314 313 312 312 312 312 312 312 312 312 312 312 313 314 316 317 318 318 318 317 315 314 313 312 316 319 330 340 346
321 319 325 322 324 320 317 317 317 317 316 314 314 312 311 311 312 311 311 311 311 310 311 310 311 311 311 311 312 313 314 315 316 317 317 317 314 314 315 312 312 317 329 332
316 316 319 318 317 316 316 314 313 312 313 312 311 311 310 311 311 311 311 310 310 310 310 310 310 310 310 310 311 311 311 312 313 313 314 315 316 316 316 319 313 314 325 332
318 317 317 317 316 315 315 314 313 312 312 311 311 311 311 311 311 311 311 311 310 309 309 309 308 309 309 309 309 309 310 310 310 311 311 313 315 317 318 320 322 322 323 329
318 319 322 321 317 317 315 314 313 313 312 311 311 311 311 311 311 311 311 310 309 309 309 308 308 308 309 308 308 308 308 307 308 308 309 311 312 314 317 319 322 322 322 321

GFSCGP_850_thetae_078.txt.gz
Theta_e
326 327 328 331 331 332 336 337 340 347 344 345 356 354 356 352 351 349 347 347 346 345 346 346 345 342 343 345 345 346 347 348 345 345 347 347 348 348 349 348 351 349 345 342
327 326 328 330 331 331 332 334 337 343 345 352 349 350 353 352 351 349 349 349 346 346 346 346 345 346 346 347 345 346 348 347 345 343 346 347 347 348 347 349 351 351 348 341
326 326 326 329 330 330 330 331 337 344 343 346 347 355 355 354 351 352 350 349 347 348 346 346 345 348 347 347 345 346 347 349 346 347 347 350 347 349 348 347 350 348 349 343
325 327 326 328 329 330 331 333 336 342 342 342 342 347 351 352 355 354 350 348 349 350 346 347 347 348 349 347 347 346 347 348 344 348 346 346 349 348 347 347 351 350 346 346
326 326 326 326 329 330 333 334 335 339 340 338 338 340 345 347 359 358 352 349 349 349 349 347 347 348 350 347 346 345 345 348 343 347 347 347 345 347 349 350 350 350 350 348
325 325 326 326 328 332 334 335 333 335 339 338 338 339 355 353 348 352 354 351 350 350 349 347 346 348 348 347 342 344 345 347 346 342 346 347 348 347 346 349 343 349 347 347
328 328 325 326 328 331 334 336 335 336 339 338 336 338 349 348 347 344 349 353 348 351 351 349 347 348 349 346 343 346 348 346 345 341 346 347 346 349 351 347 345 350 350 350
330 329 329 328 326 330 333 335 336 337 335 335 334 337 345 345 347 345 347 348 353 352 351 349 348 349 350 346 346 347 347 345 345 346 341 340 342 344 350 345 352 350 345 349
330 330 328 328 327 329 334 336 336 334 334 334 337 343 345 346 348 350 349 346 348 348 349 350 350 350 348 347 346 347 344 342 342 343 348 345 343 340 348 347 348 348 349 349
327 330 329 327 327 330 331 333 335 335 336 339 338 344 348 347 346 346 342 338 336 337 345 348 349 351 347 349 345 348 346 344 342 349 349 350 347 345 347 347 350 351 351 349
325 329 329 328 328 331 333 335 332 333 335 337 341 342 344 346 344 340 335 331 327 330 334 347 347 348 349 349 348 349 351 348 349 353 355 354 351 349 343 344 344 348 349 348
323 324 330 327 326 327 329 331 331 335 338 335 339 341 340 339 335 332 330 329 323 322 328 333 341 346 347 348 348 349 348 353 349 355 355 354 355 353 353 348 345 346 341 343
324 323 327 327 326 326 325 327 328 330 332 338 337 340 337 333 331 327 327 326 324 321 323 324 333 342 346 347 347 348 347 348 350 355 354 354 354 354 356 355 352 351 351 343
321 321 326 328 326 325 326 326 327 328 329 331 336 342 338 334 331 326 324 323 322 322 320 319 322 330 339 344 344 346 346 342 345 350 353 355 354 355 354 353 354 353 352 352
321 321 323 324 323 322 325 325 326 326 328 333 338 341 337 334 329 326 323 323 322 320 320 321 319 320 331 337 337 342 344 345 345 347 348 349 350 353 355 354 353 353 353 353
321 322 325 324 323 322 323 325 325 325 325 328 334 335 333 329 326 325 324 323 322 321 320 319 320 320 318 318 325 331 340 343 343 343 345 342 341 347 350 351 352 353 353 353
321 322 325 325 322 322 322 322 322 322 323 333 336 332 329 329 328 327 326 324 322 321 321 320 319 320 321 320 317 319 321 330 342 342 341 343 345 337 339 351 353 352 353 353
322 326 324 325 323 324 322 322 321 321 323 329 331 330 328 326 324 325 323 321 320 320 320 319 319 319 320 321 317 315 319 316 317 323 328 339 344 345 348 350 352 353 352 352
318 321 323 325 324 324 323 321 321 321 323 326 328 327 325 323 323 321 319 318 318 318 318 318 318 318 320 321 321 320 322 321 323 319 314 321 334 342 345 345 349 349 350 351
318 319 324 323 324 324 323 319 318 320 324 323 324 324 323 321 325 322 318 317 317 317 317 317 317 318 319 319 319 320 322 322 324 321 318 315 314 316 332 341 344 346 348 350
319 320 322 323 324 325 322 318 318 321 322 321 321 321 319 320 321 319 317 316 316 316 316 315 315 316 316 316 316 318 320 321 321 320 318 316 315 314 314 315 326 338 341 343
322 325 326 321 325 328 319 318 319 322 319 318 318 317 317 317 316 315 315 314 314 314 314 313 314 314 314 314 315 316 317 318 318 317 317 317 315 314 314 314 314 313 315 326
323 321 328 323 327 322 319 320 321 320 318 317 317 316 315 314 314 314 313 313 313 313 313 313 313 313 313 313 313 314 314 313 313 313 313 312 312 313 313 313 316 316 314 314
319 317 321 322 321 320 319 318 318 317 318 316 315 313 312 313 313 313 313 313 313 312 312 312 311 311 312 312 312 311 311 311 311 311 312 313 313 311 311 313 315 318 321 317
321 319 318 319 317 317 316 317 315 314 314 314 313 312 312 313 313 313 313 313 312 311 311 310 310 310 310 311 310 310 310 309 308 309 309 310 311 312 313 315 316 318 320 322
319 320 324 324 318 319 317 316 316 315 313 313 312 312 313 313 313 312 312 313 311 311 311 310 310 309 309 309 309 308 308 307 306 306 307 308 308 310 310 312 313 315 318 321

GFSCGP_850_thetae_081.txt.gz
Theta_e
326 324 324 325 327 329 332 336 339 345 345 348 347 344 345 348 349 349 347 347 346 345 346 345 344 342 341 342 341 348 347 346 340 345 348 346 345 345 346 345 345 343 343 348
324 324 325 326 328 329 329 329 334 344 350 350 347 346 341 339 347 348 346 347 346 346 346 346 344 342 341 343 341 346 346 346 345 340 348 348 346 347 347 346 346 345 344 344
324 325 327 325 327 329 328 327 330 344 344 349 350 355 347 345 351 348 347 347 346 346 346 346 344 342 341 343 344 344 347 347 346 337 347 350 347 347 347 346 345 349 347 344
323 324 325 324 325 327 326 327 330 344 343 349 350 353 352 355 351 349 348 348 346 346 346 346 344 344 345 345 346 340 344 347 345 343 346 349 346 348 344 346 347 347 346 343
323 322 323 324 325 326 327 328 332 340 340 341 349 349 352 353 355 351 350 348 346 346 347 346 346 347 347 347 346 346 341 344 343 346 347 347 347 348 347 345 351 350 346 347
323 325 323 324 325 325 328 329 332 336 338 341 335 340 352 357 354 353 347 348 348 347 348 347 346 347 347 346 346 346 345 342 341 346 346 347 347 346 348 349 347 349 343 346
325 324 322 324 324 325 327 330 332 332 338 342 336 339 352 351 351 348 346 338 346 349 349 347 347 347 348 348 347 346 345 344 340 346 346 347 346 343 342 348 347 347 347 346
325 326 326 323 324 325 327 329 331 335 335 335 331 350 348 344 342 341 338 344 349 351 350 349 347 349 349 348 347 345 342 342 338 339 346 344 346 344 349 347 343 348 348 348
328 328 327 326 325 324 327 328 329 331 329 330 342 348 346 340 341 343 342 345 344 348 348 350 348 348 349 347 346 343 342 339 337 339 338 345 344 344 346 345 347 346 346 347
327 326 326 328 326 324 323 331 330 330 336 335 351 351 354 349 345 335 331 332 334 339 347 349 348 348 349 349 346 344 344 341 339 339 340 338 339 339 342 347 347 347 347 348
322 323 328 328 324 323 331 331 332 329 331 332 345 347 342 344 336 330 326 325 329 334 337 346 348 347 350 348 348 348 347 345 340 340 340 341 343 344 343 344 349 349 348 347
322 320 328 328 326 327 326 331 331 329 331 335 342 343 339 335 331 328 325 323 324 326 332 339 346 344 343 347 346 347 349 348 346 343 342 342 345 344 342 342 340 348 349 348
320 321 323 328 326 324 324 325 324 324 325 333 340 342 332 330 330 327 324 322 322 324 330 337 341 345 346 346 345 344 347 346 348 349 347 347 346 347 345 344 343 341 344 343
320 319 321 327 327 324 321 322 323 324 324 337 337 339 333 329 326 325 324 323 322 321 324 328 340 341 342 345 346 345 345 343 345 342 345 348 348 348 346 346 352 350 346 348
318 320 321 324 325 323 321 322 324 323 326 336 340 339 333 328 325 324 322 321 321 321 320 320 325 334 337 341 343 343 343 335 340 343 339 344 350 349 348 348 349 350 353 350
318 321 323 323 323 322 321 322 324 324 333 336 337 337 330 326 324 324 323 321 319 320 321 321 321 318 321 330 331 336 343 342 341 339 343 343 342 335 338 344 346 350 351 352
320 322 323 323 324 324 322 322 320 330 332 332 337 330 327 325 325 324 323 322 322 320 319 319 320 321 320 317 321 320 320 326 339 342 342 340 341 340 336 338 341 346 349 351
319 323 322 323 323 325 322 321 321 321 329 330 330 328 328 328 326 323 322 321 320 319 319 319 320 321 321 320 319 321 322 323 321 320 325 336 340 343 342 341 337 344 345 348
316 319 321 323 323 323 323 322 320 321 328 329 328 326 324 322 321 320 320 319 319 318 318 318 318 319 320 320 321 322 322 324 323 321 319 317 324 333 340 343 345 345 345 347
316 317 319 324 327 324 322 319 319 321 326 329 328 324 323 323 321 318 318 318 317 317 317 317 317 319 319 319 319 320 321 321 322 321 318 316 315 315 316 322 335 341 341 344
318 318 320 322 324 325 321 318 318 321 325 324 324 324 323 319 320 318 317 317 317 316 315 315 315 315 315 314 314 315 318 319 320 319 318 316 315 314 314 315 317 318 322 327
323 323 323 321 322 324 320 319 323 322 318 318 319 319 318 317 317 317 316 315 315 314 313 313 313 313 313 313 312 313 313 314 314 313 313 312 312 312 312 313 313 314 315 315
319 322 321 322 323 321 319 321 320 319 318 317 317 316 316 316 315 314 314 314 313 313 313 313 313 313 313 312 312 311 310 310 310 310 310 310 310 310 311 311 311 311 313 314
319 317 319 319 322 321 319 319 319 319 317 317 316 315 315 314 314 313 313 313 313 312 312 312 310 311 311 311 311 310 309 308 307 307 307 308 308 309 310 311 312 314 315 317
321 320 318 319 318 317 318 318 318 316 316 316 315 314 313 314 313 313 313 313 312 312 311 311 310 309 310 309 308 308 308 307 306 305 306 306 307 307 307 308 309 310 313 317
319 321 320 320 320 321 318 316 316 314 313 315 313 312 313 313 313 313 313 313 312 311 311 311 309 309 308 308 307 306 305 305 304 304 305 305 305 306 306 306 307 308 308 309

GFSCGP_850_thetae_084.txt.gz
Theta_e
326 321 321 322 322 325 327 329 336 347 350 349 352 348 348 348 351 348 346 345 345 344 342 342 342 343 346 344 344 344 343 342 338 343 344 345 345 344 344 344 344 342 340 344
321 322 321 323 325 326 327 328 329 350 348 346 349 352 348 348 350 349 347 345 345 344 343 341 342 345 343 344 343 343 346 344 337 344 346 346 345 344 345 346 344 342 342 346
321 323 324 325 325 325 324 326 328 345 349 346 348 350 345 343 341 349 348 346 345 345 343 342 341 341 341 342 341 341 344 345 345 337 345 347 347 347 345 345 344 346 344 343
322 323 325 325 325 323 322 324 328 345 342 345 346 344 352 346 344 348 346 345 345 346 345 343 342 341 342 342 341 342 344 345 346 343 345 348 347 346 345 344 346 345 346 344
320 322 322 322 324 321 323 324 327 338 339 349 349 350 346 350 354 349 347 347 346 345 346 345 343 344 343 341 342 341 343 344 345 341 344 347 349 347 345 346 347 347 346 344
320 323 320 320 322 322 324 328 335 334 336 340 343 348 346 354 352 351 349 347 346 346 346 346 345 343 342 342 344 345 342 340 341 341 345 347 348 347 346 346 346 348 344 345
322 323 321 321 321 320 323 324 328 329 337 339 334 347 343 349 351 349 349 348 347 346 346 346 345 343 343 344 346 346 345 344 341 340 347 346 346 347 346 348 345 346 345 345
321 323 323 323 320 321 322 324 328 333 334 335 337 348 345 344 349 349 348 346 343 347 347 347 347 347 346 346 346 346 346 346 343 339 345 347 347 345 345 343 347 345 347 345
322 325 325 325 323 321 323 325 323 328 327 328 346 345 340 340 337 336 337 340 344 345 349 349 348 347 347 347 347 347 346 345 341 337 341 346 345 345 344 347 346 344 347 346
321 324 322 325 324 322 320 324 328 324 333 333 349 348 346 343 334 331 330 333 337 344 347 348 347 348 348 348 347 347 347 344 337 332 333 343 344 343 343 345 344 347 347 347
317 318 320 324 324 322 324 326 327 324 325 330 345 345 343 337 331 328 326 329 334 339 344 346 347 348 348 349 347 347 347 344 343 339 339 339 339 343 338 342 344 347 347 346
320 314 318 327 323 323 326 327 325 329 331 335 338 347 336 331 329 325 325 326 333 336 341 344 344 346 347 347 347 347 346 344 344 341 339 340 338 340 340 341 341 347 347 347
317 315 319 322 322 320 319 319 319 320 322 334 332 340 330 329 327 323 323 324 329 333 337 340 342 343 345 346 347 347 346 346 345 344 341 342 341 342 343 344 344 345 344 347
318 313 318 321 325 322 320 319 319 318 320 334 335 336 330 327 325 323 322 322 328 331 335 339 341 342 343 344 345 345 344 342 343 341 344 344 343 343 344 345 343 342 342 341
315 318 320 321 320 320 320 320 321 320 322 333 335 334 328 325 323 322 322 322 322 324 327 331 337 341 341 342 342 343 341 335 334 341 338 340 339 343 343 344 345 346 346 346
312 320 320 320 324 322 320 320 325 331 335 336 333 330 324 323 322 321 321 321 321 321 320 320 322 323 329 335 341 342 342 341 339 340 343 341 339 340 341 342 342 344 345 346
318 316 316 321 322 322 320 319 320 330 335 334 335 329 324 323 323 322 320 320 320 321 321 321 320 320 322 321 322 328 334 339 340 340 341 341 339 339 340 339 336 339 341 344
313 316 315 318 319 323 320 319 319 327 330 328 326 325 324 323 323 322 321 319 319 319 320 321 321 321 321 322 322 323 323 320 325 329 338 341 341 341 339 339 337 339 335 342
311 312 314 318 318 319 322 319 319 319 327 328 326 325 324 322 321 321 320 320 319 318 319 320 321 320 321 322 322 324 324 323 321 321 320 325 331 338 337 335 341 341 340 340
311 309 313 317 322 321 319 318 318 321 324 325 325 322 320 320 319 317 319 319 318 317 318 319 319 320 319 320 321 322 322 322 321 320 319 318 317 318 324 331 328 331 335 340
316 311 313 318 320 322 319 318 318 321 320 324 322 320 319 317 318 317 318 318 318 317 317 317 317 318 317 316 316 318 319 319 319 319 318 317 315 315 315 315 316 317 317 318
318 314 311 314 316 318 320 319 319 317 318 322 322 321 321 320 317 317 317 317 316 315 314 313 313 313 312 312 312 312 313 313 312 312 311 311 311 311 311 311 312 312 313 314
313 316 315 316 316 318 320 320 318 317 318 319 320 318 318 317 316 316 315 315 314 314 313 313 312 312 312 312 311 310 309 308 308 308 308 308 309 309 309 310 310 311 311 312
316 316 312 314 319 319 320 320 319 317 316 316 317 318 317 316 316 315 314 313 313 313 313 312 312 311 310 310 309 309 307 306 306 305 305 305 306 307 307 308 308 309 310 312
316 316 313 313 315 317 319 319 319 318 316 316 315 315 315 315 314 314 313 313 313 313 312 312 310 307 307 307 306 305 305 304 304 304 304 305 305 305 306 306 306 307 307 308
317 314 314 314 318 317 317 318 318 318 318 317 315 314 313 314 313 313 313 313 312 312 311 310 310 308 306 306 305 304 303 302 301 302 303 304 304 305 305 305 306 306 306 306

GFSCGP_850_thetae_087.txt.gz
Theta_e
323 321 321 322 322 324 326 327 328 348 352 353 353 352 351 349 350 345 344 343 342 343 346 345 342 345 345 343 343 343 343 343 342 341 344 343 343 344 344 344 344 343 341 342
320 321 320 321 322 325 326 327 336 350 348 350 352 351 348 348 350 347 345 344 342 341 344 344 343 345 345 345 343 342 342 342 341 339 341 342 343 345 344 344 344 344 340 341
321 322 322 324 324 325 323 325 327 349 347 346 350 351 349 348 347 349 348 345 343 341 344 345 345 346 345 344 343 343 343 342 341 337 342 344 345 346 343 346 344 341 343 342
321 322 324 324 325 322 323 322 328 349 344 351 345 351 347 346 344 344 348 349 344 342 342 343 345 345 345 343 343 343 345 344 344 339 343 343 343 345 344 345 345 346 345 340
321 321 322 323 323 322 323 322 325 345 338 343 348 344 342 344 345 344 348 348 345 343 341 343 344 343 343 342 342 341 342 344 344 344 337 344 345 345 346 344 345 344 345 341
320 321 319 320 321 321 322 324 327 329 332 342 340 342 343 349 346 346 348 346 344 344 342 342 344 343 342 344 343 341 342 344 344 344 338 343 347 346 347 345 345 346 346 344
320 322 320 320 320 319 321 322 327 338 339 340 335 344 340 343 347 347 347 346 345 344 344 342 342 343 343 342 343 342 342 343 344 342 338 341 345 346 346 346 346 345 344 343
320 322 321 320 319 319 318 319 325 333 335 336 338 343 344 339 345 348 347 346 346 345 345 344 344 342 344 343 342 342 344 343 343 341 340 338 345 345 345 345 346 345 344 344
319 322 323 324 321 319 321 323 321 323 324 328 344 343 342 338 333 338 341 342 342 345 347 345 345 343 343 343 341 343 345 345 344 343 341 339 344 344 344 344 344 345 346 345
319 322 320 323 323 320 320 320 324 322 331 332 346 347 343 344 336 334 336 335 338 341 346 348 345 346 345 343 343 344 345 345 345 345 343 340 342 344 344 345 347 345 344 345
316 316 318 322 321 320 321 325 323 321 323 331 345 343 340 338 332 330 331 332 338 341 343 345 346 347 347 346 345 346 346 346 346 345 344 341 341 345 344 344 346 344 344 346
316 311 317 324 319 318 317 320 323 326 330 330 334 340 332 329 327 328 328 330 335 338 341 343 345 347 347 347 347 346 347 347 347 345 341 341 341 342 344 342 342 345 345 346
317 314 319 323 320 319 317 318 317 317 323 332 334 336 332 329 326 326 326 328 334 335 337 340 343 344 346 347 346 346 347 347 344 344 343 340 342 342 340 340 342 340 342 345
316 312 317 323 323 320 320 318 318 316 319 326 328 337 333 328 324 322 323 326 330 335 337 338 341 341 344 346 345 345 345 346 342 340 343 341 341 343 342 341 342 344 343 345
314 318 318 320 319 319 318 319 322 320 321 329 332 334 332 326 322 322 323 324 324 329 332 335 338 340 342 343 345 345 344 341 341 339 340 342 343 342 342 343 343 343 345 341
312 319 318 320 325 320 320 320 319 331 332 331 329 328 323 324 323 322 323 322 321 323 324 326 330 337 339 342 342 343 343 337 337 339 341 338 338 337 340 339 341 342 342 343
315 314 316 322 318 326 326 320 319 327 331 330 333 327 322 321 321 321 322 322 321 321 322 323 323 324 327 335 338 340 340 340 339 338 339 341 341 340 340 339 340 340 340 339
311 314 312 317 318 325 323 320 322 328 328 326 325 323 322 321 321 321 321 321 321 321 320 320 321 322 323 324 323 326 331 337 338 340 340 340 340 340 338 337 338 340 339 337
309 309 314 315 317 318 320 318 319 324 327 324 324 323 322 322 321 320 320 319 320 321 321 321 322 322 323 324 324 323 322 323 325 328 332 334 337 340 339 338 339 338 339 338
309 307 312 315 320 318 316 317 317 319 324 325 324 322 321 321 320 317 319 319 319 320 320 320 321 321 321 322 324 323 323 322 320 320 320 319 322 325 329 333 332 335 336 339
312 309 311 316 317 318 318 318 318 322 318 324 324 322 321 320 319 320 320 318 318 318 319 319 319 319 319 318 319 320 320 320 319 318 318 317 316 315 316 317 317 322 330 329
316 311 308 311 314 317 319 318 318 315 318 321 323 322 321 319 319 318 318 317 317 317 317 317 317 316 315 313 312 312 313 313 313 312 311 311 311 311 311 312 312 313 313 317
314 314 314 314 313 315 319 318 318 318 320 320 321 320 320 319 319 318 317 317 317 316 315 314 313 312 311 311 310 309 309 309 308 307 307 308 308 308 309 309 310 310 311 311
314 314 311 314 317 317 319 317 317 317 317 320 321 320 320 317 317 317 316 316 316 315 314 313 312 311 311 310 308 306 306 305 304 304 304 305 305 306 306 307 307 307 308 309
314 312 311 311 313 315 318 319 318 317 316 316 319 320 321 319 317 316 316 315 314 313 313 312 312 310 308 306 305 304 304 303 303 303 303 304 304 304 305 305 305 306 306 306
315 312 313 313 315 315 316 318 317 317 316 316 316 317 318 318 317 316 315 314 313 312 312 312 310 308 306 305 305 303 302 301 300 300 301 302 303 303 304 304 304 304 304 305

GFSCGP_850_thetae_090.txt.gz
Theta_e
321 322 323 325 321 323 329 331 334 344 349 353 353 350 350 347 348 345 346 346 346 346 345 345 345 343 344 345 342 343 343 343 343 343 343 343 342 343 343 343 345 343 340 340
319 322 321 323 321 324 325 326 346 349 351 350 346 351 347 348 349 344 343 343 346 347 346 346 346 343 344 344 342 344 343 342 342 341 341 342 343 344 344 345 343 344 341 340
321 323 320 322 323 323 323 325 327 348 347 348 349 352 351 347 348 349 344 343 343 343 345 345 346 343 344 344 343 342 342 342 342 341 341 342 342 343 344 343 345 344 342 340
322 322 322 323 324 322 324 321 329 349 348 350 347 355 350 348 348 346 348 345 343 342 343 345 345 343 343 344 343 342 342 343 342 338 340 342 342 343 343 345 345 342 344 341
322 320 322 323 323 321 324 321 326 346 340 345 348 344 337 347 349 347 346 348 343 342 342 343 344 344 343 344 344 342 342 343 341 339 340 342 342 345 345 345 345 345 345 343
320 320 319 320 320 321 323 322 326 329 334 343 342 343 339 346 346 346 345 346 347 342 342 342 344 343 344 345 344 343 343 344 343 343 341 336 342 344 345 345 344 344 344 342
321 321 320 319 320 318 319 318 326 338 340 340 334 342 337 342 342 342 343 345 347 343 341 343 345 343 344 345 343 343 343 343 343 343 344 338 342 346 345 345 345 345 346 342
320 321 320 319 319 318 317 317 324 339 338 338 338 341 339 337 339 346 345 347 344 343 341 341 344 344 343 344 345 344 342 343 343 343 343 341 339 344 345 345 345 346 346 343
318 321 320 319 317 318 320 318 317 322 322 333 339 341 340 338 339 341 342 344 345 344 343 341 342 344 343 344 344 343 342 343 344 343 343 343 338 342 344 344 343 343 345 345
317 320 320 321 319 320 320 319 324 320 329 331 344 343 339 344 340 340 338 338 340 345 345 343 342 343 344 343 345 342 343 343 344 344 344 343 342 341 344 344 343 343 344 346
314 316 319 320 320 318 322 325 319 320 322 334 342 341 337 338 337 337 335 336 339 340 344 345 344 344 342 342 343 343 343 344 344 344 345 344 344 342 344 345 344 345 345 344
315 311 318 321 318 317 318 319 320 324 329 329 332 335 331 331 329 332 332 334 337 341 343 343 344 346 345 343 344 343 343 344 345 345 345 343 345 342 342 345 343 343 344 344
315 314 319 319 318 316 317 316 315 316 323 333 332 330 329 327 326 328 328 331 333 337 341 342 345 345 346 346 346 344 343 345 343 346 343 342 343 342 341 342 342 341 340 341
316 313 318 319 319 317 318 317 319 314 320 325 326 333 335 328 325 323 325 330 332 335 339 340 342 344 345 346 346 346 346 346 346 346 343 343 343 344 343 343 340 340 341 342
314 318 318 319 318 318 319 319 321 328 318 327 326 332 330 327 323 323 325 327 330 332 336 338 340 342 343 344 345 344 344 344 343 343 342 341 339 342 342 342 342 341 342 342
313 319 318 320 320 323 324 320 324 331 332 331 330 332 324 325 324 322 324 326 327 329 334 336 338 340 341 342 344 345 344 343 342 341 338 337 336 341 340 339 339 340 341 342
314 314 317 321 317 325 326 322 327 329 329 329 332 326 321 321 322 322 322 323 324 325 326 329 335 337 339 340 340 340 341 339 338 338 339 339 338 340 340 337 339 338 339 340
312 312 312 318 317 326 321 319 325 328 327 326 323 322 321 321 322 323 322 322 322 323 323 324 325 327 331 333 337 338 339 338 338 338 338 339 339 339 339 340 339 337 336 339
307 310 313 315 316 316 319 316 317 320 326 323 322 321 320 320 320 319 321 322 321 321 322 323 323 325 324 324 326 329 331 333 334 335 336 337 338 338 338 337 338 338 338 338
308 306 313 314 317 317 314 317 318 318 320 323 322 321 320 320 320 317 320 322 321 320 320 321 322 323 324 324 323 322 321 321 323 324 323 324 325 329 334 335 335 333 334 334
309 309 312 315 315 316 315 317 318 321 319 323 323 322 320 320 321 322 319 320 321 320 321 321 321 321 321 322 322 321 320 320 319 318 317 317 317 316 317 319 321 322 323 327
312 310 307 310 313 315 317 317 318 315 318 322 324 323 321 320 321 319 319 319 320 320 319 319 319 318 318 317 316 314 314 313 313 312 312 311 311 311 312 312 312 312 313 314
313 313 313 311 312 312 318 318 317 317 318 320 324 324 322 320 320 319 319 318 318 318 318 317 317 316 313 312 311 310 309 309 308 308 308 308 308 308 309 309 309 309 310 310
312 312 313 314 315 317 318 317 317 317 318 319 321 324 322 320 320 319 318 317 317 317 316 315 313 312 311 311 310 308 306 305 305 304 304 305 305 305 306 306 307 307 307 308
312 311 310 311 312 316 318 319 318 317 317 318 320 321 322 320 320 319 317 317 317 316 314 314 313 312 311 309 306 304 303 303 303 303 303 303 303 304 304 304 305 305 305 305
313 311 311 312 315 316 316 318 318 317 317 317 317 319 320 321 321 320 318 319 317 315 314 313 312 311 308 306 304 304 303 302 301 301 301 302 302 303 303 304 304 304 304 304

GFSCGP_850_thetae_093.txt.gz
Theta_e
323 333 338 333 327 329 344 345 345 345 350 351 351 353 350 347 348 347 347 347 346 346 347 346 345 343 344 343 341 341 345 344 344 343 342 341 342 343 343 342 344 343 340 341
326 334 331 328 325 327 331 338 337 351 350 350 350 351 347 348 347 347 347 347 347 347 347 346 345 344 343 344 343 342 343 343 343 343 343 343 342 343 343 344 344 344 340 340
326 330 325 327 326 327 328 331 350 349 349 345 346 348 348 348 349 346 347 346 346 347 347 347 346 345 342 344 344 342 342 341 341 342 343 344 343 344 344 344 344 344 344 340
329 324 326 325 327 327 330 327 335 351 350 354 346 352 346 348 350 349 346 345 346 347 347 347 347 345 343 343 344 342 342 341 342 342 343 343 341 342 344 343 345 342 342 341
326 325 325 326 327 326 330 325 331 348 347 350 347 350 345 348 351 352 349 346 344 344 346 347 346 345 344 342 344 343 342 342 343 343 340 341 342 343 344 344 345 344 345 344
324 321 325 326 324 326 326 330 335 341 344 343 348 347 344 352 352 350 348 348 346 343 344 345 343 344 345 342 344 343 342 342 343 343 339 341 343 343 345 344 344 345 343 344
324 323 322 322 323 323 324 324 334 337 341 334 339 350 343 347 345 346 346 348 348 344 344 347 344 344 345 344 343 344 343 342 343 342 341 341 340 344 344 344 344 344 344 343
325 325 324 322 324 324 325 326 331 337 340 339 341 343 344 342 342 345 347 346 348 346 344 345 345 343 343 344 343 344 343 343 343 343 342 343 340 341 345 345 345 345 345 344
324 323 322 321 323 324 323 324 327 333 331 338 343 345 344 342 344 346 346 345 347 347 345 345 347 345 344 344 343 345 344 343 343 343 343 344 344 339 343 345 345 344 345 344
323 324 323 323 321 321 324 324 327 327 336 338 347 348 346 348 345 343 344 343 345 346 344 342 343 346 345 343 344 344 345 346 345 344 344 342 341 340 340 345 344 344 344 345
321 323 324 324 325 325 325 326 326 329 331 334 339 344 344 346 345 342 340 340 340 342 343 342 342 342 345 343 343 344 344 343 344 344 344 345 342 341 341 343 344 345 345 345
319 323 325 323 320 320 322 327 329 328 334 338 338 340 336 339 342 340 339 340 339 342 343 342 342 342 342 343 344 343 343 344 343 344 343 344 344 343 342 341 342 344 343 345
319 322 326 324 323 323 326 323 323 328 335 339 333 336 334 334 336 335 336 336 337 339 340 342 343 344 344 342 343 343 344 343 344 343 343 343 343 342 343 340 340 343 342 343
318 320 326 327 325 323 328 328 321 326 329 336 334 339 337 337 337 332 330 332 333 337 339 341 344 345 347 345 344 343 344 345 344 343 343 343 343 340 340 342 341 340 339 338
321 323 323 323 324 325 326 332 333 325 325 331 332 334 338 338 336 333 332 330 331 334 337 339 341 342 344 345 345 345 345 345 344 343 341 342 341 342 343 344 343 341 340 340
320 325 322 324 323 326 325 328 335 334 334 334 335 335 329 333 330 328 330 329 330 331 335 337 339 340 340 342 343 345 345 345 344 343 342 342 342 341 340 339 340 341 341 341
321 321 325 326 323 327 328 326 327 330 333 333 334 334 330 330 329 330 329 330 329 329 333 336 337 339 339 339 341 342 343 343 343 342 340 339 339 338 339 341 339 338 339 339
321 321 321 325 327 327 324 323 326 328 330 330 330 329 331 330 329 327 327 328 328 327 327 329 334 337 338 340 340 340 340 341 341 337 338 339 339 338 339 340 339 338 338 336
317 321 322 326 325 322 322 320 321 324 326 329 329 327 327 325 325 325 324 325 326 325 325 326 327 332 333 335 336 337 337 337 337 337 337 337 338 338 338 339 338 338 337 337
317 319 322 323 322 323 321 320 319 321 325 328 327 328 326 325 335 331 323 323 323 324 324 324 325 325 326 326 326 329 330 330 331 331 332 331 332 332 333 334 333 332 332 332
319 320 321 323 322 320 320 319 319 326 325 324 326 327 326 329 327 324 322 322 321 321 322 322 324 324 323 322 322 321 321 320 319 319 318 318 318 318 319 320 322 324 325 327
320 322 322 320 322 323 319 320 322 321 320 321 326 326 325 322 322 321 321 321 320 321 321 322 322 322 321 320 319 317 316 314 313 313 312 312 311 311 312 312 312 313 314 316
325 321 328 321 322 318 318 320 317 317 320 321 322 326 324 321 320 319 320 320 320 320 320 319 319 318 317 314 312 310 310 309 309 308 308 308 308 308 308 309 309 309 310 310
318 315 323 323 322 320 320 318 317 317 318 318 321 323 322 321 320 319 319 319 319 319 318 318 317 315 312 311 311 310 309 307 306 305 305 305 305 305 306 306 306 307 307 308
318 316 320 321 317 318 319 318 318 317 317 317 318 321 322 322 321 321 319 318 318 318 317 316 314 312 312 311 309 307 305 304 303 303 303 303 303 304 304 304 304 305 305 305
316 320 322 324 319 321 320 319 318 318 318 317 317 318 319 320 321 321 321 320 319 318 317 315 314 313 311 309 307 305 304 303 302 302 301 302 302 303 303 303 303 303 303 304

GFSCGP_850_thetae_096.txt.gz
Theta_e
323 336 344 339 336 335 347 349 353 353 352 351 352 351 351 349 348 346 344 344 344 344 345 346 346 346 347 346 347 349 349 348 346 348 348 348 348 348 347 349 342 341 346 342
325 332 338 339 332 335 343 350 351 351 352 352 351 352 350 349 348 348 344 343 344 344 345 346 347 347 347 348 347 348 350 345 345 349 349 349 348 349 349 349 346 347 343 340
325 327 335 335 331 334 339 346 345 353 350 348 351 351 348 346 347 348 346 344 345 346 347 347 347 347 348 349 350 350 350 348 344 349 348 343 349 349 349 349 349 347 344 346
324 327 332 335 337 334 338 334 345 353 351 354 346 354 346 344 348 348 347 347 346 347 347 347 348 348 348 349 351 351 350 349 343 341 348 344 344 346 347 350 350 350 345 348
326 327 331 333 336 334 335 331 339 344 348 350 351 350 348 345 347 352 350 346 345 345 346 347 348 348 348 348 350 351 349 346 348 342 347 346 344 347 347 350 348 351 345 347
327 327 329 330 332 332 330 332 336 342 346 351 346 345 346 347 347 346 349 349 347 346 346 346 347 349 349 349 350 350 348 341 342 342 341 344 349 347 344 347 350 351 351 350
326 327 327 328 331 331 331 334 337 340 343 342 346 345 343 341 348 346 349 349 349 346 346 346 348 349 350 350 350 350 349 342 342 343 347 345 347 344 348 347 345 350 348 347
327 327 327 326 328 330 332 333 337 342 343 340 339 347 344 346 346 347 349 349 349 349 346 346 348 346 349 350 350 345 346 350 347 345 343 344 343 345 346 349 347 345 351 349
325 326 326 325 326 327 331 333 333 335 337 339 341 340 345 345 347 348 349 348 348 350 348 346 349 350 350 349 349 343 343 349 352 350 347 343 342 341 348 346 344 347 346 352
326 326 324 325 325 325 327 329 334 334 339 339 340 341 340 350 350 348 350 349 348 350 350 348 348 350 348 345 344 342 349 347 345 345 350 343 345 343 345 346 343 345 350 344
326 326 325 325 325 325 326 327 327 332 334 336 338 341 347 348 350 349 347 347 350 351 350 349 350 351 351 347 344 344 344 345 349 346 346 345 345 348 347 346 347 345 345 344
326 326 329 325 326 326 326 326 328 329 335 334 336 343 344 347 347 347 344 344 344 345 346 347 349 349 349 349 344 343 343 343 343 344 343 344 345 345 348 347 347 347 343 343
325 326 329 328 327 326 326 327 329 329 329 335 335 337 343 344 346 345 345 344 342 340 341 342 343 345 347 345 345 344 343 343 344 344 344 343 343 344 345 348 347 348 347 342
320 326 329 328 326 327 329 328 328 329 329 330 333 338 346 346 345 342 342 340 339 340 339 342 344 344 344 345 347 345 343 343 343 344 344 343 343 343 341 343 346 347 346 341
325 328 328 328 327 328 328 328 327 328 328 330 331 333 343 345 345 342 339 339 338 340 340 340 343 344 344 345 346 345 345 343 343 345 344 343 343 343 343 340 342 343 343 347
326 326 327 328 328 327 331 332 330 329 329 329 332 333 336 341 342 341 339 335 338 339 339 336 340 342 344 346 345 346 345 345 344 344 344 343 342 340 342 340 345 343 341 342
325 327 327 328 327 329 329 329 330 332 332 333 331 339 337 340 339 339 339 337 338 338 337 334 339 340 341 343 344 345 345 345 345 344 343 342 343 342 341 340 340 340 340 341
325 329 328 327 328 330 328 327 328 330 331 332 334 335 336 337 338 338 338 338 336 335 332 332 337 339 339 340 341 343 343 343 343 343 342 342 342 342 340 338 338 339 339 339
325 326 327 328 329 327 326 326 326 327 330 330 334 334 336 336 335 334 334 335 335 335 334 332 335 337 337 338 339 340 340 340 340 342 340 337 339 339 339 340 340 340 339 338
322 324 325 324 327 328 327 323 322 324 329 328 332 333 334 334 340 338 332 332 332 331 332 332 331 334 334 334 334 335 336 336 336 336 337 337 337 336 337 337 337 337 336 335
323 324 325 324 324 323 324 322 322 327 329 328 331 332 332 335 331 331 330 329 328 328 328 326 325 326 326 325 325 326 328 328 327 327 325 325 326 325 327 331 332 331 330 331
323 324 324 324 324 325 322 323 325 326 324 325 329 331 331 329 328 329 328 327 326 325 324 324 324 323 322 321 320 320 319 318 317 316 316 314 314 314 314 315 316 317 319 321
327 323 326 323 325 323 323 323 322 323 323 324 326 328 330 328 327 327 327 326 325 324 323 324 323 322 320 318 316 313 311 310 310 309 309 309 309 309 309 309 310 310 311 314
324 321 325 323 322 322 323 322 322 322 321 321 324 327 327 327 327 326 326 325 324 324 323 322 321 320 317 313 311 311 310 309 308 307 306 306 306 306 306 308 309 311 311 312
320 321 322 323 322 323 323 322 321 320 320 319 322 325 327 327 326 326 325 324 324 323 321 321 320 319 316 312 312 310 308 306 305 304 304 304 308 306 306 307 308 309 306 306
321 321 322 322 320 319 320 320 321 320 320 320 320 322 324 325 326 325 325 324 323 322 321 320 319 318 315 313 311 309 307 305 304 306 308 309 309 308 308 308 304 304 304 304

GFSCGP_850_thetae_099.txt.gz
Theta_e
323 334 342 342 343 346 349 351 352 356 350 350 351 348 350 347 345 348 344 343 343 342 343 343 343 343 344 346 347 347 348 348 348 347 346 347 347 347 347 348 347 351 350 350
325 331 336 341 340 340 346 351 350 354 350 348 351 350 349 347 343 345 347 344 344 343 344 345 344 344 343 345 347 347 349 349 347 348 349 347 348 347 347 349 349 351 350 350
326 327 330 339 341 338 341 351 347 348 352 347 350 352 351 348 342 343 348 346 343 343 344 344 345 343 345 346 346 348 349 348 351 351 348 350 350 350 350 350 349 350 351 350
326 327 329 340 341 337 340 347 349 351 354 363 350 358 352 348 346 345 349 346 343 343 342 344 345 345 344 348 349 350 349 352 350 349 348 346 346 345 348 349 350 351 351 350
324 326 328 335 337 338 338 337 351 353 352 353 353 352 353 348 348 346 349 347 344 345 345 346 345 345 345 348 349 351 350 350 353 348 349 349 348 349 350 349 351 348 350 351
325 326 328 332 333 336 337 335 338 347 350 355 349 348 353 349 348 345 344 347 347 346 346 347 344 347 347 348 350 350 352 351 351 350 349 351 351 351 348 348 350 349 350 350
325 328 329 329 331 334 338 337 340 343 356 349 346 347 346 346 344 345 345 348 347 345 344 346 346 347 348 348 350 351 354 353 352 351 350 349 351 350 348 348 348 350 350 350
324 327 329 328 331 333 337 337 341 345 344 345 347 347 346 342 340 340 346 348 349 347 346 345 347 346 349 349 349 351 354 354 353 351 350 350 349 348 348 350 351 349 349 347
326 326 328 328 329 331 333 339 338 339 340 345 343 349 348 343 342 345 348 347 349 349 347 346 347 350 351 351 351 353 354 353 353 352 351 350 350 349 350 349 351 352 350 352
329 328 328 327 327 328 329 333 338 338 342 344 344 344 344 350 350 348 348 350 350 349 349 346 348 351 347 348 350 351 347 348 351 353 352 350 351 350 349 349 347 349 350 353
328 328 328 327 327 328 328 329 333 336 336 339 345 346 345 350 350 351 350 350 349 350 351 350 348 352 354 352 350 348 344 343 348 352 351 351 351 349 350 349 348 349 350 346
327 328 329 327 327 326 327 327 330 333 338 335 336 350 344 348 349 350 352 352 354 354 353 352 351 352 353 351 349 344 343 340 343 348 346 348 345 350 350 350 348 348 350 351
327 327 329 330 327 326 326 327 327 328 330 333 334 345 345 349 349 349 349 348 350 350 351 353 353 354 354 352 348 346 344 344 344 343 344 345 346 344 347 348 349 349 349 348
323 327 328 331 330 328 327 327 327 328 329 329 334 348 349 350 350 348 347 346 345 345 345 347 349 350 350 351 349 347 344 344 343 343 343 344 344 343 343 343 343 344 349 349
326 328 329 329 330 330 327 326 327 328 330 331 331 337 346 349 349 347 345 344 343 344 344 343 343 346 348 349 350 348 345 344 343 343 344 343 342 340 343 343 343 342 343 347
328 331 331 330 329 329 328 329 328 328 328 329 330 338 344 345 347 346 345 345 345 344 344 341 344 344 344 344 348 351 348 346 345 347 346 344 342 344 343 344 342 340 343 345
328 331 333 333 329 330 331 331 330 329 329 329 332 339 339 344 345 346 345 343 343 343 341 340 339 342 344 345 345 347 348 347 347 346 345 345 345 343 343 342 342 342 344 344
327 330 330 334 333 331 330 330 331 332 333 332 335 338 339 341 342 343 343 344 343 340 339 339 337 340 341 343 344 345 346 346 344 345 345 344 342 342 341 340 340 340 340 341
325 327 332 332 332 331 331 330 330 330 332 332 335 336 337 339 341 341 342 342 341 339 339 338 334 339 340 340 340 343 343 344 345 344 343 342 342 342 341 340 339 338 340 340
324 326 329 330 332 333 330 327 326 326 333 331 332 335 338 338 342 342 339 339 339 338 336 334 332 337 337 337 338 339 340 339 340 341 340 339 338 339 339 339 340 339 339 338
325 326 326 327 326 330 328 325 324 327 331 331 331 333 335 339 339 338 337 336 335 335 333 330 332 335 334 334 333 334 334 335 335 335 335 335 335 335 335 336 336 335 334 334
327 328 327 327 330 329 324 324 326 330 327 329 331 333 333 334 334 335 335 334 333 332 330 330 328 326 324 325 324 323 323 325 323 321 325 319 320 321 322 323 326 329 329 330
327 325 328 326 331 327 325 327 326 326 327 327 328 330 332 331 332 333 333 332 331 330 329 326 324 322 322 322 321 318 315 314 313 312 312 312 312 311 311 311 312 312 314 320
323 325 325 326 325 323 323 323 323 324 324 324 325 328 329 330 331 332 332 331 330 329 327 326 325 324 322 316 312 311 311 311 311 310 309 309 308 308 308 310 313 316 316 316
322 325 324 325 325 324 323 323 322 322 321 321 323 325 327 329 329 330 331 330 330 328 327 326 324 323 322 320 319 315 311 309 308 307 308 306 309 308 311 314 313 313 314 313
322 323 323 323 323 323 322 322 322 321 321 321 321 323 326 328 329 329 329 329 329 328 326 325 324 323 322 320 318 314 311 309 315 314 314 313 313 313 313 312 308 306 305 305

GFSCGP_850_thetae_102.txt.gz
Theta_e
324 326 336 343 344 346 346 356 357 348 347 352 352 350 348 349 349 347 344 343 343 343 341 342 344 345 346 346 344 345 344 344 344 348 348 347 346 348 349 347 350 349 345 348
326 325 330 338 343 351 349 350 353 343 340 350 351 351 347 347 347 345 347 344 343 341 342 343 344 345 346 346 346 342 348 344 344 346 348 348 347 348 348 348 348 344 348 342
325 326 328 334 339 343 348 349 347 345 340 343 351 353 352 348 345 344 344 346 345 343 343 344 344 343 345 347 346 347 347 345 341 348 348 347 347 349 349 347 350 348 348 344
324 326 328 330 335 342 352 345 345 345 343 350 350 358 352 346 345 342 343 345 347 346 343 344 345 344 344 345 347 348 348 346 345 349 349 348 348 345 348 347 349 349 350 348
323 325 327 328 333 341 341 345 346 345 344 347 352 353 351 350 348 346 343 344 346 346 345 345 342 344 345 345 346 347 347 348 348 349 349 346 343 349 350 349 347 348 350 349
324 325 327 327 332 336 336 342 345 344 346 355 351 353 356 354 351 348 343 344 347 345 342 344 344 343 348 348 348 351 344 348 350 347 347 349 350 349 349 346 348 349 349 348
324 324 327 328 329 333 338 340 350 355 354 356 351 351 356 350 347 347 344 345 345 346 345 345 345 346 347 350 345 351 348 347 348 347 344 348 348 346 346 345 350 349 349 350
325 324 328 329 330 331 336 340 340 351 352 356 351 353 353 346 343 342 343 344 346 345 347 344 346 347 349 351 352 351 350 347 349 348 349 347 347 346 348 350 350 345 349 345
328 326 326 328 329 330 333 335 337 339 342 348 351 351 348 342 342 343 344 345 342 340 345 346 347 347 344 350 354 343 351 349 350 351 347 348 349 347 349 348 348 352 350 345
328 330 328 328 328 329 331 333 335 342 344 348 348 350 351 347 346 345 346 345 340 340 345 344 345 347 343 342 347 352 346 350 351 353 350 347 338 338 348 349 346 349 348 346
327 330 331 328 328 328 328 329 331 334 340 343 346 351 347 348 345 346 347 348 347 349 350 346 345 346 345 340 349 349 352 347 351 353 353 351 349 349 344 344 345 349 349 347
329 329 330 330 328 328 327 328 329 333 337 337 338 347 344 345 348 347 351 349 353 350 349 347 347 348 352 353 352 350 348 346 341 343 346 349 347 347 350 349 348 348 349 348
328 329 330 330 330 328 327 327 328 328 331 336 336 351 345 337 350 353 355 356 355 357 354 350 353 353 351 348 348 346 347 345 343 342 340 345 348 346 348 350 346 347 348 347
325 327 329 329 332 331 327 326 327 327 328 329 331 346 352 351 353 350 352 354 352 354 355 355 354 353 353 354 351 348 346 344 343 341 344 343 344 344 344 345 347 346 344 346
326 328 329 328 329 330 331 327 327 329 328 330 333 343 345 347 351 349 348 349 349 348 348 352 351 352 355 353 351 350 349 347 343 344 343 343 342 342 342 340 343 343 342 340
327 329 331 333 330 331 331 331 327 327 328 329 335 347 342 342 345 348 346 345 346 346 346 343 345 348 350 351 352 349 349 350 345 343 344 345 345 344 341 341 341 341 342 342
329 332 334 337 334 332 331 332 331 328 328 329 345 344 337 335 335 348 347 346 347 345 343 342 343 343 345 345 351 351 351 348 348 346 346 346 346 344 343 343 345 344 342 340
328 332 331 337 333 335 333 331 331 335 330 339 339 340 340 342 347 346 346 346 344 342 341 339 339 342 344 344 344 348 349 349 348 348 348 346 346 345 343 342 342 341 342 341
326 331 334 336 334 333 332 332 331 334 336 334 337 338 342 343 343 344 345 344 342 340 340 338 336 340 341 343 344 345 346 346 347 345 345 345 344 341 341 341 340 340 339 340
327 331 333 333 336 335 333 329 328 330 337 332 333 337 339 339 342 345 341 341 341 338 337 336 336 338 339 340 341 342 343 343 343 344 344 343 342 342 342 340 339 339 338 340
329 330 329 329 333 332 329 328 326 329 335 331 333 335 339 343 341 340 339 338 338 336 333 331 336 337 338 338 338 339 339 339 339 339 339 339 340 338 338 338 338 339 338 338
330 329 330 332 334 334 327 327 327 332 329 331 333 334 336 336 339 338 337 336 335 333 331 330 334 335 334 335 334 336 335 335 335 335 334 336 336 336 335 335 334 335 334 335
328 329 331 330 335 329 327 329 328 329 329 329 330 331 334 333 335 337 336 335 333 332 331 330 328 326 325 325 324 323 322 322 319 317 319 324 317 314 315 316 316 317 319 326
325 326 327 328 330 326 325 325 325 326 326 325 327 329 330 331 333 334 335 334 332 331 330 328 326 324 323 322 318 314 312 311 311 310 311 310 309 309 309 310 311 316 318 317
325 326 324 325 326 325 324 323 324 323 322 322 324 327 328 330 331 333 333 333 331 330 329 328 327 326 320 314 312 313 313 312 310 309 309 308 309 309 308 311 312 314 317 317
322 323 324 324 325 327 324 324 323 323 322 321 322 324 327 328 329 330 331 331 330 329 329 328 326 325 324 323 320 317 313 312 313 312 313 312 313 313 313 314 312 312 310 309

GFSCGP_850_thetae_105.txt.gz
Theta_e
326 323 324 326 331 337 350 353 349 349 343 343 352 352 350 347 348 347 344 344 342 341 340 345 344 343 344 340 344 344 343 341 342 346 346 345 345 347 347 347 345 345 342 345
321 321 322 325 339 347 346 347 349 345 341 340 343 352 348 346 346 345 346 344 343 341 340 345 345 345 345 344 345 344 343 342 342 345 347 347 347 346 348 347 346 345 346 346
320 322 324 324 344 344 347 349 348 347 342 339 343 353 350 347 345 344 343 345 345 341 341 345 345 346 345 340 344 343 344 344 344 347 347 347 348 347 346 348 348 347 348 344
319 322 324 324 340 343 349 345 344 344 344 348 344 357 352 349 346 344 344 344 345 343 344 345 346 346 345 342 340 342 342 343 340 343 347 348 346 347 346 345 347 347 347 347
319 320 321 324 328 343 348 344 343 341 343 348 349 354 352 347 347 346 344 343 345 346 344 342 344 347 345 346 345 341 344 345 339 346 348 345 346 344 346 347 347 347 347 348
321 323 322 324 329 340 343 343 343 343 345 350 349 351 354 348 344 343 343 343 344 346 345 345 345 345 345 346 346 347 344 343 345 347 348 345 345 349 348 348 347 346 348 347
324 322 321 324 333 342 343 345 350 349 346 347 345 349 348 348 346 342 343 343 343 345 346 344 345 345 345 344 345 345 345 342 344 347 346 349 348 348 346 345 347 349 349 345
323 322 322 327 326 339 345 339 342 349 353 352 349 354 351 344 345 346 344 343 344 344 346 345 343 345 346 345 345 347 346 341 342 348 346 346 347 345 345 346 347 347 348 344
325 326 326 326 326 327 331 336 335 341 343 349 351 347 344 345 345 345 344 343 343 345 345 346 345 344 346 350 349 345 349 343 340 343 344 344 343 347 349 348 347 348 346 342
322 326 327 328 326 327 327 331 331 338 348 350 352 351 353 343 344 343 342 342 342 343 343 345 347 345 346 351 349 348 349 345 338 344 346 346 346 345 350 348 344 345 347 346
326 325 325 328 326 326 325 327 328 335 336 345 352 350 343 344 342 343 342 342 342 340 341 344 346 346 346 347 349 348 345 347 345 348 349 347 340 339 342 345 346 344 342 345
325 325 326 328 328 326 326 325 324 326 332 336 336 353 346 345 343 342 344 345 343 341 343 343 346 345 346 344 344 343 339 349 349 352 351 350 341 343 345 346 346 344 340 344
324 326 326 327 327 328 325 324 324 322 322 327 335 349 341 343 343 343 347 346 344 342 342 342 345 346 345 344 343 344 342 343 347 348 347 347 345 346 343 348 347 347 343 343
324 323 325 327 328 327 330 326 324 324 322 324 326 347 344 339 335 351 353 353 354 345 344 345 345 344 341 344 345 344 348 347 348 346 343 344 343 344 344 346 346 346 342 346
323 324 325 327 329 328 329 329 326 323 324 328 344 347 344 344 348 348 348 350 350 350 349 347 346 345 344 345 349 350 349 348 346 343 343 341 343 344 344 344 343 342 344 346
323 326 332 332 333 333 333 330 332 329 325 341 348 346 340 343 346 346 345 345 347 348 350 351 350 350 351 351 350 349 348 347 345 345 343 343 343 343 342 343 341 341 341 343
327 330 331 335 331 333 335 331 332 335 335 335 343 342 336 336 336 338 344 344 346 346 344 344 346 350 351 352 350 350 350 348 345 344 343 343 345 345 344 342 342 343 343 342
327 330 329 333 332 336 332 329 330 334 334 333 337 336 333 333 332 333 345 346 346 344 342 342 342 345 348 349 351 352 349 349 348 347 346 346 346 346 345 343 342 341 342 342
325 328 330 332 332 333 333 332 330 330 333 333 335 341 342 337 345 347 346 344 343 341 340 339 339 341 342 344 344 347 350 351 349 347 346 347 346 345 343 341 341 340 340 342
330 331 330 328 332 336 333 330 328 328 336 330 335 338 341 344 345 344 342 341 340 340 339 338 336 339 340 341 343 342 346 347 346 347 346 344 344 343 341 340 341 340 340 339
328 327 329 331 334 332 330 329 327 335 336 330 334 328 332 330 340 340 340 339 339 338 336 336 337 338 338 339 339 342 343 343 342 343 343 343 343 342 341 340 338 339 339 338
331 329 331 325 327 332 328 328 327 330 330 331 337 335 339 335 339 339 337 336 335 334 332 336 337 337 337 337 338 339 339 339 339 339 339 339 339 340 339 338 338 337 336 337
329 329 332 329 328 323 328 329 329 329 327 327 329 335 338 337 337 336 335 334 332 331 330 333 333 334 335 336 335 336 336 336 335 334 333 332 333 333 333 334 333 330 331 332
328 327 329 330 328 329 328 325 325 325 324 324 326 328 332 336 336 335 333 332 331 330 329 328 327 326 324 323 322 323 323 321 318 315 315 319 317 313 312 312 312 313 314 315
327 326 324 330 329 325 324 324 324 323 321 321 324 327 329 332 335 334 333 332 331 330 328 328 326 323 322 319 315 312 311 312 311 311 311 311 310 310 309 310 311 312 314 317
324 325 323 327 327 326 324 324 323 322 321 322 322 325 326 328 332 332 332 331 330 329 329 328 327 325 320 314 312 313 313 311 311 309 309 309 310 312 310 309 309 310 312 315

GFSCGP_850_thetae_108.txt.gz
Theta_e
322 321 322 322 322 326 348 349 349 346 342 345 345 345 348 347 345 344 343 341 342 343 342 342 342 342 343 341 343 341 341 341 344 344 345 345 346 346 345 346 344 343 346 343
320 320 321 322 324 332 347 348 348 343 342 343 344 345 343 347 346 345 343 341 341 343 342 342 342 343 343 342 345 341 342 341 342 344 345 345 346 347 347 345 345 345 345 345
318 320 321 322 325 346 345 349 346 346 342 342 342 345 344 347 346 344 344 344 340 342 343 343 342 342 343 339 344 344 341 341 342 345 345 345 344 346 347 347 347 343 345 346
316 319 320 321 326 342 347 344 345 345 344 348 342 354 352 349 347 345 345 345 343 340 344 344 343 344 344 341 344 344 343 341 341 342 345 346 346 345 346 342 346 345 345 346
318 319 318 320 321 342 346 342 342 342 343 345 346 349 351 348 349 347 344 344 344 344 345 344 344 345 344 342 341 341 341 344 342 343 344 345 346 346 346 346 345 346 346 346
320 323 318 318 335 342 340 341 342 341 342 346 346 348 350 350 348 346 344 344 344 345 345 345 345 345 345 342 340 340 342 343 342 339 346 345 346 345 344 345 347 346 345 347
320 322 325 341 343 341 340 339 348 350 347 347 345 348 347 346 344 343 343 344 344 345 344 344 346 346 345 344 343 341 342 343 343 341 346 347 342 343 346 347 343 346 346 346
320 322 321 328 341 343 341 335 342 348 348 351 347 352 350 343 341 342 341 342 343 344 345 344 344 346 346 345 345 344 342 345 342 341 343 348 346 346 346 344 345 347 347 346
321 322 322 323 333 339 340 337 333 340 341 348 349 348 345 342 345 343 342 342 342 343 346 344 345 345 346 346 346 343 343 345 341 340 342 346 348 346 344 345 347 347 345 345
318 320 321 325 324 332 334 332 333 332 345 350 347 346 348 341 343 344 345 342 343 342 345 345 344 344 346 347 345 345 345 346 343 342 342 340 339 346 347 347 346 346 346 345
320 319 323 325 325 322 322 326 325 329 336 346 351 349 339 339 339 343 343 343 343 342 343 345 345 345 344 347 346 346 347 348 345 341 341 345 344 344 347 348 346 344 344 343
322 319 324 325 323 322 321 322 321 323 327 334 339 347 341 339 338 341 342 342 342 341 342 343 346 346 344 347 347 340 346 348 347 342 344 346 346 346 344 345 343 340 339 343
320 319 324 325 324 324 324 324 321 317 318 329 336 345 339 341 339 339 341 342 342 341 342 343 345 346 346 345 339 340 347 346 345 344 346 349 344 339 339 343 344 344 345 343
322 317 324 325 324 324 326 326 325 318 319 320 325 340 343 336 346 347 342 342 344 343 341 342 342 344 346 345 343 343 347 343 343 343 346 346 345 344 344 344 343 345 345 344
321 321 322 324 331 331 331 331 332 329 323 323 326 341 342 339 347 348 349 348 346 343 342 342 342 342 345 345 344 344 343 343 344 342 346 344 344 342 342 343 344 345 345 344
320 325 328 332 329 330 333 332 335 336 335 347 346 347 342 346 346 347 349 349 348 349 344 342 343 345 345 345 343 340 345 345 345 345 346 345 342 342 343 344 344 343 341 341
326 325 327 332 328 331 334 331 333 335 334 335 344 341 338 340 344 344 346 348 348 348 347 345 345 345 345 345 343 341 343 347 346 347 344 343 342 343 343 342 342 342 342 342
325 323 323 327 326 334 330 329 329 332 332 336 340 338 335 332 339 344 345 346 347 348 347 347 347 347 346 345 343 344 344 348 348 346 346 344 343 344 344 343 342 342 341 342
321 321 325 326 328 330 331 329 330 329 331 334 339 339 340 340 343 342 344 345 345 343 343 343 343 346 347 347 348 347 348 348 348 346 345 344 345 344 343 344 342 341 340 341
320 321 323 324 329 331 329 329 328 328 332 332 334 334 337 342 343 340 341 341 340 339 338 337 338 340 340 343 348 349 349 348 348 348 347 347 345 346 344 341 341 340 339 340
322 322 324 326 328 327 326 325 327 334 331 333 332 333 337 337 337 337 338 338 338 337 336 336 337 337 338 341 342 343 345 345 346 347 345 346 344 343 341 340 340 340 339 339
329 324 327 321 325 327 326 327 328 328 333 332 331 328 334 332 329 329 336 336 334 332 334 335 337 337 336 338 339 342 341 342 342 342 341 342 341 341 340 339 338 338 338 338
326 325 327 327 323 321 326 327 329 329 334 331 337 329 327 329 329 332 335 333 331 331 334 332 333 334 335 336 337 338 338 338 338 338 338 338 338 338 338 337 336 335 335 336
324 324 324 323 325 326 326 323 323 322 325 329 330 331 335 336 336 334 333 332 332 330 329 331 332 332 330 331 332 332 333 333 332 331 328 327 328 329 330 329 327 327 329 331
321 320 321 323 325 327 324 324 324 321 322 325 327 333 334 335 334 333 331 330 329 329 329 327 325 325 324 322 319 317 314 313 312 312 312 312 313 312 311 311 311 313 315 315
321 317 320 323 325 322 323 323 323 322 321 322 325 327 333 333 332 332 331 330 330 328 328 328 326 325 317 314 312 312 312 312 311 310 310 309 310 310 310 310 310 311 311 314

GFSCGP_850_thetae_111.txt.gz
Theta_e
319 318 319 321 321 326 347 349 349 346 344 345 345 346 345 345 344 342 341 341 341 343 343 342 343 344 343 342 341 342 343 342 344 344 344 344 345 346 344 343 343 342 341 345
318 319 319 321 323 330 347 348 347 344 342 343 345 345 341 342 346 345 341 341 341 341 343 342 344 344 342 340 339 341 342 343 344 344 343 345 345 346 345 345 343 347 342 343
318 319 320 322 326 346 344 346 345 346 343 342 343 347 346 344 346 345 344 341 341 340 342 344 345 344 342 341 341 339 340 340 342 343 345 344 346 345 347 345 344 343 345 344
317 317 319 319 321 341 344 344 345 344 344 347 343 351 348 345 346 346 345 342 342 340 342 343 344 343 342 342 343 340 342 341 341 342 344 344 344 345 346 345 344 343 346 343
318 319 320 318 319 339 343 342 343 342 341 344 347 347 349 347 347 346 346 344 341 341 341 342 343 342 342 342 342 342 341 341 341 342 343 344 343 346 344 345 344 343 345 344
319 321 319 319 333 336 339 340 340 339 341 347 347 347 347 350 346 344 345 344 343 343 343 342 343 343 343 342 343 345 343 341 342 341 341 344 345 345 346 345 346 345 346 346
320 322 339 338 340 339 337 335 338 342 343 348 343 346 343 343 346 345 345 344 344 344 344 343 343 343 343 342 342 342 342 342 342 341 340 340 344 344 345 344 345 346 346 345
321 321 338 338 338 340 338 332 335 342 345 347 346 350 347 342 342 344 343 344 344 346 344 344 343 343 344 343 341 340 341 341 343 343 338 344 345 343 342 346 346 344 345 345
319 321 321 335 337 338 340 337 331 338 338 343 347 347 343 340 339 341 342 342 343 344 344 345 344 344 344 344 343 342 340 341 342 342 340 344 346 345 344 345 344 346 347 347
321 320 319 322 335 336 333 331 336 333 345 349 345 347 346 344 344 344 341 341 343 343 345 344 345 345 345 345 344 344 343 342 343 343 342 342 344 347 346 343 345 346 345 345
320 316 319 323 323 331 324 330 324 328 334 343 346 345 339 338 337 344 342 341 343 344 345 344 344 344 345 344 345 345 344 344 345 343 341 345 343 344 344 345 346 345 345 346
320 317 322 322 322 321 321 323 322 326 326 335 338 341 340 337 336 342 344 341 342 343 345 345 345 344 344 345 346 345 345 345 346 346 344 346 343 344 345 344 347 345 343 343
321 318 322 324 324 323 323 325 320 315 316 328 334 335 340 339 337 342 342 342 343 343 344 344 345 345 344 345 345 346 346 345 346 348 345 342 341 343 341 344 342 343 340 341
321 317 322 324 325 324 329 331 329 315 317 318 324 325 340 340 344 338 341 342 342 343 343 343 344 346 345 345 345 346 345 342 346 345 344 343 343 344 342 342 340 341 344 344
321 321 320 321 329 329 332 334 335 332 332 319 321 321 337 343 345 343 342 341 341 342 342 342 344 343 345 345 345 344 342 342 346 346 343 342 342 344 344 341 343 344 344 344
319 326 326 329 329 330 330 331 334 334 336 335 341 343 341 345 347 347 345 344 342 341 342 341 339 340 342 343 343 344 342 342 345 343 343 343 344 344 343 344 343 344 344 344
323 324 326 329 326 328 330 329 331 333 336 337 339 339 337 337 340 343 347 348 346 343 343 342 342 341 342 342 343 345 344 343 343 343 344 344 344 344 342 342 343 344 343 343
322 321 323 326 325 331 327 328 329 330 332 336 340 337 335 340 342 343 345 346 343 343 344 344 344 344 344 344 339 344 344 343 342 343 345 344 344 343 342 343 343 342 342 342
318 320 323 325 325 327 331 329 328 328 329 334 338 336 341 342 342 338 343 344 343 343 343 342 342 344 345 345 340 341 343 337 341 344 344 344 343 343 343 344 343 342 342 341
319 316 321 322 327 331 328 327 328 327 330 333 336 339 340 338 341 338 340 340 339 338 337 338 340 342 343 344 344 343 344 339 339 336 343 345 344 343 344 343 343 341 340 340
320 320 322 325 325 324 322 326 326 331 328 333 336 337 337 337 337 337 338 337 335 334 335 336 337 339 340 342 344 346 347 346 344 345 345 344 345 345 344 343 341 340 340 339
325 323 322 319 323 324 324 325 327 326 333 332 335 335 332 330 335 332 332 332 331 334 334 335 335 336 338 338 340 342 343 342 341 342 343 344 343 342 342 341 340 340 339 339
326 322 323 323 322 320 324 326 328 331 332 330 331 330 328 330 330 329 330 330 332 334 334 334 334 335 336 337 338 339 339 339 339 339 340 340 341 341 341 340 338 338 337 337
321 322 323 322 322 324 323 326 329 331 331 333 328 330 327 328 328 329 331 330 329 328 332 333 333 333 333 334 334 335 336 336 335 336 336 336 336 336 336 335 333 333 334 335
321 320 321 321 324 325 322 322 326 328 331 332 332 330 331 333 335 333 331 330 328 327 327 326 325 327 327 325 325 324 324 323 322 321 322 322 320 317 315 316 317 319 319 321
320 315 321 321 324 323 323 322 325 324 326 329 330 332 333 334 333 331 330 329 328 327 326 326 325 322 316 313 313 312 311 311 311 311 310 310 310 310 310 310 310 311 312 313

GFSCGP_850_thetae_114.txt.gz
Theta_e
318 316 318 321 320 326 344 348 348 346 345 346 343 343 345 341 345 342 342 341 343 345 345 344 344 343 343 342 342 341 343 345 341 343 343 343 344 345 344 342 340 340 342 345
316 319 318 320 321 327 345 346 346 344 343 342 344 344 343 341 342 345 342 339 341 343 344 344 344 343 343 342 342 344 344 342 342 343 343 343 342 345 344 343 342 342 340 341
318 320 319 321 333 341 344 343 344 345 343 341 343 345 345 343 342 344 345 340 340 340 342 343 344 343 343 343 342 343 343 342 341 342 343 343 344 345 345 345 344 345 342 342
318 316 318 319 320 336 343 340 342 344 344 345 343 349 347 344 345 344 345 341 340 341 342 343 343 343 343 342 341 341 343 343 342 343 342 342 342 344 344 344 343 343 342 343
317 319 319 318 317 332 334 341 340 342 340 343 346 347 347 344 344 343 345 343 340 340 341 343 341 342 343 341 339 340 342 341 342 342 342 343 343 344 344 345 342 344 342 343
318 319 319 319 331 333 338 338 337 336 338 343 345 346 345 346 341 342 343 344 341 340 341 341 341 343 343 342 340 341 339 340 341 342 342 342 343 342 345 344 344 343 344 344
318 320 335 337 338 336 336 331 336 340 341 343 342 344 343 345 343 342 344 345 342 340 340 343 343 344 343 342 341 343 341 341 341 341 342 343 343 344 344 345 344 344 346 345
318 319 338 336 337 338 335 330 333 337 340 342 344 345 344 339 342 342 344 344 344 341 341 343 342 342 342 342 342 342 342 342 341 341 342 342 342 343 344 344 344 345 345 346
319 319 321 335 336 336 338 337 330 335 336 341 344 344 341 340 342 343 344 344 344 344 343 342 342 342 343 343 343 341 343 342 341 342 343 341 340 346 344 342 345 344 344 345
321 321 319 321 336 336 334 333 336 332 340 345 342 344 344 343 341 345 344 343 343 344 344 343 342 342 342 343 343 342 340 339 340 340 343 340 341 346 346 344 346 344 345 345
319 316 320 321 327 335 325 332 327 328 333 339 341 339 337 340 340 344 344 344 344 343 344 344 343 342 343 343 343 343 342 341 340 340 342 341 343 343 346 345 343 345 346 345
319 317 321 323 320 320 322 328 324 328 327 333 333 336 338 336 336 341 341 342 343 343 343 345 344 344 343 343 344 344 343 343 341 342 344 342 341 342 344 340 345 344 345 344
318 317 323 324 324 325 323 328 319 314 317 331 332 330 339 336 338 341 342 341 341 342 343 344 342 344 343 344 344 345 344 344 343 344 346 345 343 343 341 340 341 342 344 345
320 316 322 324 325 325 331 331 332 313 316 318 326 321 339 340 339 340 341 341 342 343 344 345 344 344 342 343 344 345 345 345 345 345 346 346 343 341 342 342 339 340 339 341
317 319 321 321 327 330 331 331 333 331 331 319 328 337 343 342 344 339 341 342 342 343 344 345 345 344 343 344 344 345 346 345 345 345 345 344 343 341 343 342 342 341 340 342
318 322 326 329 327 329 330 330 333 334 338 336 336 342 342 342 345 345 341 341 342 343 342 344 344 344 344 345 345 345 344 344 341 341 345 346 343 341 342 343 343 342 342 343
323 324 324 326 326 327 330 329 331 332 335 336 340 336 337 339 340 342 345 341 341 343 343 343 343 343 341 343 344 344 344 343 342 345 345 342 343 343 343 343 342 343 343 344
321 321 324 326 325 330 327 327 327 329 331 334 338 337 340 339 338 339 341 343 342 342 342 343 343 343 343 343 342 343 342 343 343 342 343 343 344 343 343 344 342 343 343 342
316 319 322 325 325 325 331 330 328 327 329 331 337 337 341 340 338 337 338 340 341 342 343 342 342 343 344 343 343 342 342 344 344 343 342 342 337 338 341 343 342 342 342 342
317 315 320 321 326 329 326 328 327 326 331 331 335 339 341 338 340 340 337 337 336 336 337 339 340 341 343 344 342 338 339 343 339 340 342 345 344 341 342 343 343 343 342 341
319 319 321 322 324 323 321 326 327 332 328 332 337 339 338 335 336 338 336 333 333 335 336 336 337 339 340 342 342 342 342 343 341 338 339 339 343 342 343 343 342 340 340 340
321 321 321 318 322 322 322 325 328 325 330 334 337 337 336 336 337 336 332 331 333 335 336 336 336 337 337 339 342 343 343 342 344 343 341 336 336 340 343 342 341 339 339 339
324 320 321 319 319 319 322 324 326 330 332 332 335 335 334 333 333 330 330 333 334 334 334 334 335 336 337 337 338 339 338 336 338 339 340 338 335 340 341 341 340 339 339 338
320 320 321 320 322 323 324 328 332 333 331 331 331 330 331 330 330 329 329 329 332 332 332 333 332 333 333 334 335 336 336 336 336 337 336 336 335 336 336 337 337 336 337 338
319 319 319 319 322 324 324 326 329 330 332 331 331 329 328 329 331 330 328 327 326 325 324 325 326 326 326 328 328 329 329 329 330 330 328 325 323 323 323 325 326 328 331 332
318 318 321 320 324 322 323 326 326 325 330 330 329 328 330 333 330 330 328 326 325 324 323 323 321 316 313 313 312 312 312 311 311 311 311 311 311 310 310 310 311 312 313 314

GFSCGP_850_thetae_117.txt.gz
Theta_e
318 325 330 325 325 330 336 345 349 348 346 347 344 345 345 343 345 344 345 345 345 345 345 346 345 344 341 341 342 343 344 344 344 344 342 342 342 343 342 341 339 340 343 342
322 326 322 323 324 334 338 342 349 346 344 345 345 344 345 343 344 344 343 343 344 345 345 345 345 344 342 342 341 342 342 345 344 343 342 342 344 344 343 341 340 339 341 342
324 323 321 323 331 335 339 336 346 347 345 342 344 346 345 345 343 345 344 343 342 344 345 346 345 345 343 342 342 342 341 344 342 343 343 343 343 343 344 343 342 341 340 340
323 319 321 322 322 328 331 339 343 346 347 349 344 353 347 346 346 344 345 345 343 343 345 346 346 344 343 342 343 341 342 344 343 344 343 343 343 343 344 343 343 343 343 340
323 320 322 322 322 325 327 342 344 345 345 346 347 352 348 345 347 347 344 343 345 342 344 344 345 342 342 342 342 342 341 344 343 342 343 342 341 343 342 344 344 343 343 342
322 319 321 322 333 326 340 341 341 342 344 350 345 348 349 349 345 344 343 341 343 344 342 344 344 345 343 342 342 342 342 343 343 343 343 343 342 342 344 343 344 342 343 342
322 322 330 336 339 338 340 341 341 344 349 345 346 350 348 345 342 342 341 341 343 343 342 344 346 346 342 342 342 341 340 341 343 342 341 342 343 343 341 342 343 344 343 344
324 323 336 337 336 338 339 334 330 334 341 345 346 351 346 341 341 339 339 341 344 343 342 343 345 345 342 341 342 341 340 340 340 341 341 342 343 344 344 345 344 345 344 345
323 324 324 338 338 337 340 340 334 341 343 347 348 346 342 342 342 343 341 343 346 342 342 343 345 343 341 341 342 342 341 341 341 341 341 341 344 342 343 344 344 344 345 345
324 327 323 328 338 337 339 336 340 343 340 340 344 347 347 346 345 343 343 344 345 343 342 343 345 344 341 342 342 342 341 341 341 342 341 342 342 341 342 345 343 344 345 344
322 323 326 323 333 334 337 338 337 339 342 339 341 338 340 343 344 345 344 344 345 344 342 342 342 342 341 341 342 342 342 341 342 342 341 342 343 340 343 345 344 345 344 345
323 324 327 327 324 323 333 335 336 337 337 341 342 336 342 340 340 344 345 344 344 344 343 342 342 341 342 342 342 342 342 341 341 340 340 340 342 341 344 343 345 342 344 345
322 324 326 327 327 327 330 334 328 325 330 337 336 333 340 340 340 343 345 345 344 344 343 343 343 342 342 342 342 342 343 343 341 341 340 341 343 342 342 343 344 341 343 343
321 323 326 326 329 329 336 335 336 329 329 332 332 332 334 344 346 342 343 343 344 344 344 343 343 343 343 342 342 342 343 343 343 342 342 342 345 342 342 344 342 344 341 341
324 326 325 325 330 331 332 333 337 333 337 326 330 341 345 345 346 345 342 343 343 343 344 345 344 345 343 342 344 343 344 344 344 343 343 343 345 345 345 343 344 341 341 340
325 327 328 330 329 328 332 330 335 338 340 341 341 343 341 342 345 344 342 343 343 344 345 346 344 344 343 343 342 342 343 344 344 345 345 344 345 345 345 341 343 343 342 339
329 331 330 328 328 328 331 330 330 335 337 339 343 342 339 342 343 344 343 343 344 344 345 346 345 344 344 343 342 343 343 344 344 344 344 344 344 345 344 342 341 343 342 341
328 330 331 329 329 330 329 329 330 332 333 337 340 339 340 339 338 340 342 342 343 342 343 343 344 344 344 343 341 340 343 344 343 343 343 342 345 345 343 342 343 343 343 342
322 328 330 330 331 328 331 330 330 330 331 334 339 339 340 338 337 337 340 341 341 341 340 342 342 342 343 343 343 342 341 342 342 342 342 343 344 343 344 343 343 343 343 342
323 324 328 328 329 329 330 328 328 328 333 331 338 339 340 339 341 338 337 337 339 340 340 341 341 341 341 342 342 342 342 340 341 343 343 342 343 343 339 339 340 341 342 342
328 328 329 330 331 328 325 326 328 333 332 334 338 338 341 341 340 334 333 333 334 336 337 338 339 340 342 342 342 342 342 339 342 341 340 341 339 341 340 339 341 342 342 342
329 331 333 328 331 329 324 326 332 329 331 335 338 337 337 334 334 332 332 333 334 335 336 337 337 338 339 340 341 340 341 341 342 340 339 339 338 339 337 338 340 341 340 340
332 327 332 329 329 325 324 326 326 326 334 335 336 334 333 333 332 331 332 332 333 334 334 336 337 337 336 337 337 337 337 338 339 338 338 337 338 335 336 330 338 336 338 339
325 323 329 327 327 326 326 326 327 330 333 334 335 334 332 332 331 331 330 330 332 332 332 333 333 333 333 334 335 336 336 336 336 336 336 336 337 336 331 333 335 337 338 338
325 325 328 328 326 327 327 327 328 331 331 332 332 331 332 331 330 330 329 328 328 328 327 326 327 328 326 325 326 324 323 324 328 329 330 332 333 333 333 330 331 333 334 334
323 328 329 324 328 329 328 326 328 330 332 330 329 331 331 328 327 326 324 323 322 320 317 314 314 313 311 311 311 311 311 310 310 310 310 310 310 310 311 312 313 315 316 316

GFSCGP_850_thetae_120.txt.gz
Theta_e
321 325 328 332 334 333 335 338 341 351 349 351 352 351 349 346 346 349 347 345 343 343 345 347 347 346 345 345 346 347 347 348 347 347 348 347 346 348 347 346 342 340 343 340
323 324 328 329 329 333 335 336 341 349 348 349 349 350 346 348 345 348 348 347 344 343 345 347 347 347 345 345 346 348 348 345 348 348 347 348 346 347 347 347 346 347 346 341
323 326 326 328 329 331 333 335 336 344 348 347 348 351 349 347 346 346 347 348 344 343 344 346 347 347 346 346 346 347 349 348 344 348 347 347 348 345 345 347 347 346 344 345
325 324 325 327 328 329 331 333 334 346 346 348 347 346 351 350 351 347 346 347 344 342 344 344 346 348 347 347 347 347 348 347 343 343 348 342 344 346 347 348 348 349 348 346
325 324 324 324 325 325 327 332 335 344 345 345 348 350 343 348 353 350 347 347 344 342 343 344 345 347 347 347 348 347 348 344 349 342 347 345 347 346 347 348 348 345 346 348
325 322 324 324 326 325 330 334 341 344 343 344 340 347 345 352 349 347 344 345 345 345 343 344 345 346 347 347 348 348 348 342 345 342 342 344 348 348 348 346 348 348 348 348
324 324 323 324 328 328 333 334 337 339 341 339 345 345 345 344 345 345 345 345 346 346 344 344 345 346 347 347 348 348 348 347 346 344 344 343 347 347 347 347 346 344 348 349
325 326 325 328 329 331 332 331 332 335 334 336 346 345 344 344 342 342 345 345 346 346 346 344 344 346 347 348 348 348 348 348 348 349 347 348 346 343 346 345 346 346 346 345
326 325 327 332 332 333 333 337 331 332 333 336 336 342 343 343 342 342 342 341 341 342 344 345 344 347 348 348 348 349 349 348 348 348 349 348 346 342 349 351 346 348 346 345
327 327 327 330 336 336 338 337 336 333 336 337 335 340 341 342 344 344 344 342 342 343 344 346 345 347 348 349 348 349 349 348 348 348 348 348 349 347 350 349 344 349 350 344
328 327 328 328 333 331 337 339 337 336 337 336 339 339 339 341 344 346 344 344 343 346 345 345 345 347 349 349 348 349 349 348 348 349 349 349 349 349 349 349 350 346 343 344
326 326 328 328 328 328 328 334 334 336 335 338 337 343 341 342 343 343 344 343 344 346 345 344 346 348 348 349 349 350 350 349 349 349 350 350 349 348 350 344 350 347 344 344
325 324 327 327 328 329 330 333 334 333 335 338 337 338 339 343 342 344 345 347 345 346 347 344 345 349 348 347 349 349 350 350 350 350 350 350 350 346 348 349 349 347 347 345
324 322 322 325 327 330 335 335 336 335 334 332 333 335 333 345 347 345 345 347 346 345 345 343 343 343 342 342 343 350 350 351 351 351 350 350 349 349 347 349 349 348 342 342
326 325 324 324 324 329 332 333 335 336 334 335 331 334 337 345 345 348 346 346 346 346 347 346 342 341 342 342 342 348 351 352 351 349 351 350 349 348 347 349 348 347 345 346
327 328 326 326 325 328 330 330 331 335 337 338 339 338 344 343 344 349 346 346 345 346 346 348 347 341 343 342 342 342 350 349 344 343 343 348 344 342 342 346 346 345 345 343
328 329 330 329 326 328 329 328 330 331 333 335 337 340 341 345 344 344 347 347 347 347 348 347 348 347 346 343 343 342 344 346 343 344 344 346 347 346 343 344 346 344 342 343
327 328 328 329 329 334 327 329 329 330 331 332 333 338 342 341 340 339 344 345 344 346 348 348 348 346 344 345 344 343 342 342 343 344 345 344 345 345 345 345 345 343 342 343
325 327 327 330 330 327 327 329 331 332 330 329 331 340 341 339 341 337 336 337 339 340 341 343 342 344 344 343 343 343 342 341 342 343 343 343 342 342 342 343 345 344 342 343
325 329 329 327 331 330 332 331 329 329 333 330 332 341 342 342 347 340 334 335 334 338 339 339 340 342 342 342 343 342 340 340 340 339 339 342 343 343 344 344 343 342 343 343
329 329 328 328 331 328 328 329 329 334 336 336 339 342 342 343 339 333 333 333 334 336 337 338 339 341 341 340 343 344 344 342 342 340 341 342 341 341 342 342 339 338 340 341
329 331 330 329 331 331 327 329 333 333 335 338 341 342 335 336 335 334 333 333 335 336 336 336 338 339 339 340 341 343 344 343 341 340 341 340 340 338 338 337 339 339 340 333
332 329 332 329 331 331 329 329 330 330 336 339 339 339 338 335 334 334 333 333 332 332 335 336 336 336 336 336 337 340 341 340 342 342 341 339 338 338 336 336 333 332 335 333
329 329 329 331 331 330 330 330 330 334 337 339 336 337 334 333 331 330 333 333 333 332 331 333 334 335 334 335 335 335 336 337 337 338 337 335 335 334 332 331 336 335 332 333
329 329 328 327 329 330 331 333 334 335 338 337 335 333 332 332 333 334 335 334 333 329 328 329 327 325 325 326 326 326 328 330 333 333 333 333 334 334 334 332 334 335 333 332
328 329 326 327 326 332 331 331 334 336 335 335 335 333 331 331 331 330 329 327 325 323 323 322 319 316 312 311 311 311 311 311 312 314 313 311 311 312 314 319 320 319 319 320